[[{"header":{"parameterUnit":"m.s-1","parameterCategory":1,"la1":30.6,"la2":29.2853,"lo1":-89.7004,"lo2":-87.6739,"dx":0.0162,"dy":0.0183,"nx":112,"ny":82,"refTime":"2022-11-21T18:00:00:Z","depth":0,"parameterNumber":2,"parameterNumberName":"U-component_of_WINDS"},"data":[0.0,0.0,0.0,0.0,0.0,0.0,0.0,0.0,0.0,0.0,0.0,0.0,0.0,0.0,0.0,0.0,0.0,0.0,0.0,0.0,0.0,0.0,0.0,0.0,0.0,0.0,0.0,0.0,0.0,0.0,0.0,0.0,0.0,0.0,0.0,0.0,0.0,0.0,0.0,0.0,0.0,0.0,0.0,0.0,0.0,0.0,0.0,0.0,0.0,0.0,0.0,0.0,0.0,0.0,0.0,0.0,0.0,0.0,0.0,0.0,0.0,0.0,0.0,0.0,0.0,0.0,0.0,0.0,0.0,0.0,0.0,0.0,0.0,0.0,0.0,0.0,0.0,0.0,0.0,0.0,0.0,0.0,0.0,0.0,0.0,0.0,0.0,0.0,0.0,0.0,-3.17,-3.2853,-3.3486,-3.4004,-3.4524,-3.3873,-3.2893,-3.1441,0.0,0.0,0.0,0.0,0.0,0.0,0.0,0.0,0.0,0.0,0.0,0.0,0.0,0.0,0.0,0.0,0.0,0.0,0.0,0.0,0.0,0.0,0.0,0.0,0.0,0.0,0.0,0.0,0.0,0.0,0.0,0.0,0.0,0.0,0.0,0.0,0.0,0.0,0.0,0.0,0.0,0.0,0.0,0.0,0.0,0.0,0.0,0.0,0.0,0.0,0.0,0.0,0.0,0.0,0.0,0.0,0.0,0.0,0.0,0.0,0.0,0.0,0.0,0.0,0.0,0.0,0.0,0.0,0.0,0.0,0.0,0.0,0.0,0.0,0.0,0.0,0.0,0.0,0.0,0.0,0.0,0.0,0.0,0.0,0.0,0.0,0.0,0.0,0.0,0.0,0.0,0.0,0.0,0.0,0.0,0.0,0.0,0.0,0.0,0.0,0.0,0.0,0.0,0.0,-3.1872,-3.3939,-3.3717,-3.4017,-3.5346,-3.4709,-3.3376,-3.1345,0.0,0.0,0.0,0.0,0.0,0.0,0.0,0.0,0.0,0.0,0.0,0.0,0.0,0.0,0.0,0.0,0.0,0.0,0.0,0.0,0.0,0.0,0.0,0.0,0.0,0.0,0.0,0.0,0.0,0.0,0.0,0.0,0.0,0.0,0.0,0.0,0.0,0.0,0.0,0.0,0.0,0.0,0.0,0.0,0.0,0.0,0.0,0.0,0.0,0.0,0.0,0.0,0.0,0.0,0.0,0.0,0.0,0.0,0.0,0.0,0.0,0.0,0.0,0.0,0.0,0.0,0.0,0.0,0.0,0.0,0.0,0.0,0.0,0.0,0.0,0.0,0.0,0.0,0.0,0.0,0.0,0.0,0.0,0.0,0.0,0.0,0.0,0.0,0.0,0.0,0.0,0.0,0.0,0.0,0.0,0.0,0.0,0.0,0.0,0.0,0.0,0.0,0.0,-3.1309,-3.2826,-3.4648,-3.4354,-3.4549,-3.5785,-3.5348,-3.4125,-3.2027,-3.1472,0.0,0.0,0.0,0.0,0.0,0.0,0.0,0.0,0.0,0.0,0.0,0.0,0.0,0.0,0.0,0.0,0.0,0.0,0.0,0.0,0.0,0.0,0.0,0.0,0.0,0.0,0.0,0.0,0.0,0.0,0.0,0.0,0.0,0.0,0.0,0.0,0.0,0.0,0.0,0.0,0.0,0.0,0.0,0.0,0.0,0.0,0.0,0.0,0.0,0.0,0.0,0.0,0.0,0.0,0.0,0.0,0.0,0.0,0.0,0.0,0.0,0.0,0.0,0.0,0.0,0.0,0.0,0.0,0.0,0.0,0.0,0.0,0.0,0.0,0.0,0.0,0.0,0.0,0.0,0.0,0.0,0.0,0.0,0.0,0.0,0.0,0.0,0.0,0.0,0.0,0.0,0.0,0.0,0.0,0.0,0.0,0.0,0.0,0.0,0.0,0.0,0.0,-3.2773,-3.3959,-3.5505,-3.5187,-3.5288,-3.6368,-3.6011,-3.4941,-3.2911,-3.226,0.0,0.0,0.0,0.0,0.0,0.0,0.0,0.0,0.0,0.0,0.0,0.0,0.0,0.0,0.0,0.0,0.0,0.0,0.0,0.0,0.0,0.0,0.0,0.0,0.0,0.0,0.0,0.0,0.0,0.0,0.0,0.0,0.0,0.0,0.0,0.0,0.0,0.0,0.0,0.0,0.0,0.0,0.0,0.0,0.0,0.0,0.0,0.0,0.0,0.0,0.0,0.0,0.0,0.0,0.0,0.0,0.0,0.0,0.0,0.0,0.0,0.0,0.0,0.0,0.0,0.0,0.0,0.0,0.0,0.0,0.0,0.0,0.0,0.0,0.0,0.0,0.0,0.0,0.0,0.0,0.0,0.0,0.0,0.0,0.0,0.0,0.0,0.0,0.0,0.0,0.0,0.0,0.0,0.0,0.0,0.0,0.0,0.0,0.0,0.0,0.0,0.0,-3.3784,-3.5179,-3.6729,-3.6188,-3.6152,-3.7298,-3.6667,-3.5473,-3.3737,-3.2367,0.0,0.0,0.0,0.0,0.0,0.0,0.0,0.0,0.0,0.0,0.0,0.0,0.0,0.0,0.0,0.0,0.0,0.0,0.0,0.0,0.0,0.0,0.0,0.0,0.0,0.0,0.0,0.0,0.0,0.0,0.0,0.0,0.0,0.0,0.0,0.0,0.0,0.0,0.0,0.0,0.0,0.0,0.0,0.0,0.0,0.0,0.0,0.0,0.0,0.0,0.0,0.0,0.0,0.0,0.0,0.0,0.0,0.0,0.0,0.0,0.0,0.0,0.0,0.0,0.0,0.0,0.0,0.0,0.0,0.0,0.0,0.0,0.0,0.0,0.0,0.0,0.0,0.0,0.0,0.0,0.0,0.0,0.0,0.0,0.0,0.0,0.0,0.0,0.0,0.0,0.0,0.0,0.0,0.0,0.0,0.0,0.0,0.0,0.0,0.0,0.0,0.0,-3.3065,-3.4213,-3.6469,-3.6809,-3.7085,-3.7443,-3.746,-3.6506,-3.4207,0.0,0.0,0.0,0.0,0.0,0.0,0.0,0.0,0.0,0.0,0.0,0.0,0.0,0.0,0.0,0.0,0.0,0.0,0.0,0.0,0.0,0.0,0.0,0.0,0.0,0.0,0.0,0.0,0.0,0.0,0.0,0.0,0.0,0.0,0.0,0.0,0.0,0.0,0.0,0.0,0.0,0.0,0.0,0.0,0.0,0.0,0.0,0.0,0.0,0.0,0.0,0.0,0.0,0.0,0.0,0.0,0.0,0.0,0.0,0.0,0.0,0.0,0.0,0.0,0.0,0.0,0.0,0.0,0.0,0.0,0.0,0.0,0.0,0.0,0.0,0.0,0.0,0.0,0.0,0.0,0.0,0.0,0.0,0.0,0.0,0.0,0.0,0.0,0.0,0.0,0.0,0.0,0.0,0.0,0.0,0.0,0.0,0.0,0.0,0.0,0.0,0.0,-3.277,-3.3535,-3.4689,-3.6856,-3.7569,-3.7854,-3.795,-3.8094,-3.7209,-3.48,0.0,0.0,0.0,0.0,0.0,0.0,0.0,0.0,0.0,0.0,0.0,0.0,0.0,0.0,0.0,0.0,0.0,0.0,0.0,0.0,0.0,0.0,0.0,0.0,0.0,0.0,0.0,0.0,0.0,0.0,0.0,0.0,0.0,0.0,0.0,0.0,0.0,0.0,0.0,0.0,0.0,0.0,0.0,0.0,0.0,0.0,0.0,0.0,0.0,0.0,0.0,0.0,0.0,0.0,0.0,0.0,0.0,0.0,0.0,0.0,0.0,0.0,0.0,0.0,0.0,0.0,0.0,0.0,0.0,0.0,0.0,0.0,0.0,0.0,0.0,0.0,0.0,0.0,0.0,0.0,0.0,0.0,0.0,0.0,0.0,0.0,0.0,0.0,0.0,0.0,0.0,0.0,0.0,0.0,0.0,0.0,0.0,0.0,0.0,0.0,0.0,0.0,-3.3842,-3.5512,-3.7025,-3.8247,-3.8377,-3.8586,-3.8893,-3.8555,-3.7483,0.0,0.0,0.0,0.0,0.0,0.0,0.0,0.0,0.0,0.0,0.0,0.0,0.0,0.0,0.0,0.0,0.0,0.0,0.0,0.0,0.0,0.0,0.0,0.0,0.0,0.0,0.0,0.0,0.0,0.0,0.0,0.0,0.0,0.0,0.0,0.0,0.0,0.0,0.0,0.0,0.0,0.0,0.0,0.0,0.0,0.0,0.0,0.0,0.0,0.0,0.0,0.0,0.0,0.0,0.0,0.0,0.0,0.0,0.0,0.0,0.0,0.0,0.0,0.0,0.0,0.0,0.0,0.0,0.0,0.0,0.0,0.0,0.0,0.0,0.0,0.0,0.0,0.0,0.0,0.0,0.0,0.0,0.0,0.0,0.0,0.0,0.0,0.0,0.0,0.0,0.0,0.0,0.0,0.0,0.0,0.0,0.0,0.0,0.0,0.0,0.0,0.0,0.0,-3.4007,-3.5207,-3.641,-3.7808,-3.9061,-3.9658,-3.9382,-3.924,-3.8548,-3.7011,0.0,0.0,0.0,0.0,0.0,0.0,0.0,0.0,0.0,0.0,0.0,0.0,0.0,0.0,0.0,0.0,0.0,0.0,0.0,0.0,0.0,0.0,0.0,0.0,0.0,0.0,0.0,0.0,0.0,0.0,0.0,0.0,0.0,0.0,0.0,0.0,0.0,0.0,0.0,0.0,0.0,0.0,0.0,0.0,0.0,0.0,0.0,0.0,0.0,0.0,0.0,0.0,0.0,0.0,0.0,0.0,0.0,0.0,0.0,0.0,0.0,0.0,0.0,0.0,0.0,0.0,0.0,0.0,0.0,0.0,0.0,0.0,0.0,0.0,0.0,0.0,0.0,0.0,0.0,0.0,0.0,0.0,0.0,0.0,0.0,0.0,0.0,0.0,0.0,0.0,0.0,0.0,0.0,0.0,0.0,0.0,0.0,0.0,0.0,0.0,0.0,0.0,-3.4441,-3.5714,-3.692,-3.8203,-3.94,-4.0096,-3.9849,-3.9718,-3.8934,-3.7298,0.0,0.0,0.0,0.0,0.0,0.0,0.0,0.0,0.0,0.0,0.0,0.0,0.0,0.0,0.0,0.0,0.0,0.0,0.0,0.0,0.0,0.0,0.0,0.0,0.0,0.0,0.0,0.0,0.0,0.0,0.0,0.0,0.0,0.0,0.0,0.0,0.0,0.0,0.0,0.0,0.0,0.0,0.0,0.0,0.0,0.0,0.0,0.0,0.0,0.0,0.0,0.0,0.0,0.0,0.0,0.0,0.0,0.0,0.0,0.0,0.0,0.0,0.0,0.0,0.0,0.0,0.0,0.0,0.0,0.0,0.0,0.0,0.0,0.0,0.0,0.0,0.0,0.0,0.0,0.0,0.0,0.0,0.0,0.0,0.0,0.0,0.0,0.0,0.0,0.0,0.0,0.0,0.0,0.0,0.0,0.0,0.0,0.0,0.0,0.0,0.0,0.0,-3.5176,-3.672,-3.8117,-3.916,-3.9743,-4.0105,-4.0398,-4.0044,-3.898,-3.7212,0.0,0.0,0.0,0.0,0.0,0.0,0.0,0.0,0.0,0.0,0.0,0.0,0.0,0.0,0.0,0.0,0.0,0.0,0.0,0.0,0.0,0.0,0.0,0.0,0.0,0.0,0.0,0.0,0.0,0.0,0.0,0.0,0.0,0.0,0.0,0.0,0.0,0.0,0.0,0.0,0.0,0.0,0.0,0.0,0.0,0.0,0.0,0.0,0.0,0.0,0.0,0.0,0.0,0.0,0.0,0.0,0.0,0.0,0.0,0.0,-1.4447,-1.3017,0.0,0.0,0.0,0.0,0.0,0.0,0.0,0.0,0.0,0.0,0.0,0.0,0.0,0.0,0.0,0.0,0.0,0.0,0.0,0.0,0.0,0.0,0.0,0.0,0.0,0.0,0.0,0.0,0.0,0.0,0.0,0.0,0.0,0.0,0.0,0.0,0.0,0.0,0.0,0.0,-3.5796,-3.6424,-3.7559,-3.9869,-4.0551,-4.1003,-4.1393,-4.0624,-4.002,-3.9584,-3.8397,0.0,0.0,0.0,0.0,0.0,0.0,0.0,0.0,0.0,0.0,0.0,0.0,0.0,0.0,0.0,0.0,0.0,0.0,0.0,0.0,0.0,0.0,0.0,0.0,0.0,0.0,0.0,0.0,0.0,0.0,0.0,0.0,0.0,0.0,0.0,0.0,0.0,0.0,0.0,0.0,0.0,0.0,0.0,0.0,0.0,0.0,0.0,0.0,0.0,0.0,0.0,0.0,0.0,0.0,0.0,0.0,0.0,0.0,0.0,-1.7067,-1.5466,0.0,0.0,0.0,0.0,0.0,0.0,0.0,0.0,0.0,0.0,0.0,0.0,0.0,0.0,0.0,0.0,0.0,0.0,0.0,0.0,0.0,0.0,0.0,0.0,0.0,0.0,0.0,0.0,0.0,0.0,0.0,0.0,0.0,0.0,0.0,0.0,0.0,0.0,0.0,0.0,-3.6343,-3.75,-3.9035,-4.0884,-4.1674,-4.1892,-4.1495,-4.0943,-4.0033,-3.8601,-3.7924,0.0,0.0,0.0,0.0,0.0,0.0,0.0,0.0,0.0,0.0,0.0,0.0,0.0,0.0,0.0,0.0,0.0,0.0,0.0,0.0,0.0,0.0,0.0,0.0,0.0,0.0,0.0,0.0,0.0,0.0,0.0,0.0,0.0,0.0,0.0,0.0,0.0,0.0,0.0,0.0,0.0,0.0,0.0,0.0,0.0,0.0,0.0,0.0,0.0,0.0,0.0,0.0,0.0,-1.741,-1.7985,-1.8619,-1.9726,-2.0548,-2.1061,-2.0292,-1.8755,-1.6895,-1.6324,0.0,0.0,0.0,0.0,0.0,0.0,0.0,0.0,0.0,0.0,0.0,0.0,0.0,0.0,0.0,0.0,0.0,0.0,0.0,0.0,0.0,0.0,-2.9822,-3.4608,-3.6214,-3.633,-3.5445,0.0,0.0,0.0,0.0,0.0,0.0,0.0,0.0,0.0,0.0,0.0,-3.7094,-3.8983,-4.0673,-4.1793,-4.2526,-4.2507,-4.1364,-4.1152,-3.9931,-3.7345,-3.7161,-3.5756,0.0,0.0,0.0,0.0,0.0,0.0,0.0,0.0,0.0,0.0,0.0,0.0,0.0,0.0,0.0,0.0,0.0,0.0,0.0,0.0,0.0,0.0,0.0,0.0,0.0,0.0,0.0,0.0,0.0,0.0,0.0,0.0,-0.9821,-0.8764,0.0,0.0,0.0,0.0,0.0,0.0,0.0,0.0,0.0,0.0,0.0,0.0,0.0,-1.3059,-1.448,-1.5091,-1.6298,-1.8108,-1.9316,-2.0374,-2.1348,-2.3117,-2.4179,-2.4538,-2.5038,0.0,-2.0003,-1.8083,0.0,0.0,0.0,0.0,0.0,0.0,0.0,0.0,0.0,0.0,0.0,0.0,0.0,0.0,0.0,0.0,0.0,0.0,0.0,0.0,0.0,0.0,-3.2833,-3.7924,-3.9475,-3.9749,-3.9596,-3.7064,-3.4903,-3.522,-3.5385,-3.5369,0.0,0.0,0.0,0.0,0.0,0.0,-3.8869,-3.9129,-3.9932,-4.2014,-4.2367,-4.2278,-4.1661,-4.1212,-4.0524,-3.9429,-3.9032,-3.7445,-3.4323,-3.3547,0.0,0.0,0.0,0.0,0.0,0.0,0.0,0.0,0.0,0.0,0.0,0.0,0.0,0.0,0.0,0.0,0.0,0.0,0.0,0.0,0.0,0.0,0.0,0.0,0.0,0.0,0.0,0.0,0.0,-0.8237,-0.9331,-0.8155,-0.8829,-0.8878,0.0,0.0,0.0,0.0,0.0,0.0,0.0,0.0,0.0,-1.2055,-1.3985,-1.5708,-1.7251,-1.8432,-1.9724,-2.115,-2.1763,-2.2347,-2.2991,-2.4162,-2.5231,-2.6175,-2.6155,-2.5848,-2.5073,-2.1997,-2.0254,-1.935,0.0,0.0,0.0,0.0,-1.9565,-1.9619,-1.9832,-2.0574,-2.1349,-2.0469,0.0,0.0,0.0,0.0,0.0,0.0,0.0,-2.6879,-3.1088,-3.3671,-3.601,-3.9385,-4.0489,-4.0793,-4.0793,-3.8997,-3.7362,-3.7251,-3.6269,-3.5417,-3.5287,-3.7062,0.0,0.0,0.0,-3.8175,-3.8136,-3.9312,-4.0821,-4.2586,-4.2305,-4.1744,-4.0815,-4.0731,-3.993,-3.8189,-3.8163,-3.7113,-3.4842,-3.3842,-3.2558,0.0,0.0,0.0,0.0,0.0,0.0,0.0,0.0,0.0,0.0,0.0,0.0,0.0,0.0,0.0,0.0,0.0,0.0,0.0,0.0,0.0,0.0,0.0,0.0,0.0,0.0,0.0,0.0,-0.7993,-0.8968,-0.7969,-0.9137,-0.945,0.0,0.0,0.0,0.0,0.0,0.0,-0.9829,-1.1111,-1.2211,-1.2947,-1.5472,-1.7481,-1.8938,-2.0506,-2.193,-2.3357,-2.3357,-2.3684,-2.4263,-2.4936,-2.6018,-2.7161,-2.6767,-2.7459,-2.8565,-2.5029,-2.2968,-2.2119,-2.2254,-2.1897,-2.1464,-2.2786,-2.3039,-2.28,-2.3062,-2.4152,-2.5281,-2.4404,-2.4363,-2.4935,-2.616,0.0,0.0,0.0,0.0,-2.9734,-3.3443,-3.599,-3.8207,-4.0395,-4.0971,-4.1133,-4.1366,-4.0121,-3.9019,-3.9275,-3.787,-3.6667,-3.6849,-3.8325,0.0,-3.5148,-3.7854,-3.9676,-3.8425,-4.02,-4.1796,-4.2407,-4.1943,-4.1189,-4.0103,-4.0161,-3.9412,-3.7374,-3.7515,-3.6937,-3.5371,-3.435,-3.3466,-3.2578,0.0,0.0,0.0,0.0,0.0,0.0,0.0,0.0,0.0,0.0,0.0,0.0,0.0,0.0,0.0,0.0,0.0,0.0,0.0,0.0,0.0,0.0,0.0,0.0,0.0,0.0,0.0,0.0,0.0,-0.9769,-1.0711,0.0,0.0,0.0,0.0,-1.0221,-1.0186,-1.0689,-1.1851,-1.2541,-1.3068,-1.3545,-1.5463,-1.6816,-1.767,-1.9025,-2.0909,-2.3324,-2.3324,-2.4007,-2.5361,-2.6211,-2.7142,-2.807,-2.7999,-2.8438,-2.8795,-2.5507,-2.4404,-2.4545,-2.2687,-2.2003,-2.2003,-2.2345,-2.2986,-2.3768,-2.4335,-2.6322,-2.8469,-2.7457,-2.7258,-2.7575,-2.8612,-2.7777,0.0,0.0,-3.0774,-3.1335,-3.6816,-3.8056,-3.8604,-4.161,-4.1713,-4.1346,-4.2139,-4.0144,-3.8876,-4.1207,-4.0901,-4.0318,-4.0651,0.0,-3.968,-4.1008,-4.0415,-4.0265,-4.1404,-4.2427,-4.2366,-4.0823,-4.0986,-4.089,-3.994,-3.9832,-3.9389,-3.8465,-3.8386,-3.7691,-3.608,-3.5618,-3.4848,-3.3739,-3.3046,0.0,0.0,0.0,0.0,0.0,0.0,0.0,0.0,0.0,0.0,0.0,0.0,0.0,0.0,0.0,0.0,0.0,0.0,0.0,0.0,0.0,0.0,0.0,0.0,0.0,0.0,0.0,0.0,-0.9737,-1.0769,0.0,-0.9956,-1.0014,-1.0318,-1.0693,-1.1045,-1.1532,-1.2112,-1.3133,-1.3921,-1.4324,-1.6207,-1.7736,-1.8876,-1.9982,-2.1599,-2.3789,-2.3789,-2.4403,-2.5446,-2.5602,-2.6192,-2.7149,-2.7685,-2.8195,-2.871,-2.7867,-2.7093,-2.6432,-2.6274,-2.5827,-2.5563,-2.6884,-2.7335,-2.7225,-2.7523,-2.915,-3.0874,-2.9746,-2.929,-2.8986,-2.8136,-2.8939,-3.028,-3.0678,-3.1784,-3.3711,-3.7877,-3.9273,-4.0008,-4.1975,-4.2151,-4.1872,-4.1692,-4.055,-4.0129,-4.1933,-3.9529,-3.7724,-3.9127,-3.951,-3.9238,-3.8263,-3.9739,-4.0802,-4.0276,-3.9453,-3.889,-3.8795,-3.727,-3.6062,-3.5753,-3.6905,-3.7396,-3.6843,-3.7888,-3.8108,-3.7259,-3.6559,-3.5817,-3.4882,-3.4672,-3.4136,0.0,0.0,0.0,0.0,0.0,0.0,0.0,0.0,0.0,0.0,0.0,0.0,0.0,0.0,0.0,0.0,0.0,0.0,0.0,0.0,0.0,0.0,0.0,0.0,0.0,-0.7095,-0.8332,-0.9156,-1.0025,-1.0471,-1.0075,-1.0122,-1.0344,-1.0594,-1.1299,-1.1891,-1.2123,-1.3359,-1.4109,-1.4369,-1.6053,-1.7358,-1.8198,-1.9484,-2.1008,-2.2794,-2.3498,-2.4269,-2.5311,-2.5488,-2.6233,-2.7285,-2.746,-2.8186,-2.9131,-2.9209,-2.873,-2.8093,-2.829,-2.8043,-2.7754,-2.9007,-2.9173,-2.8883,-2.9761,-3.0865,-3.1821,-3.1744,-3.1444,-3.1061,-3.0356,-3.1411,-3.2707,-3.26,-3.4018,-3.6116,-3.8519,-3.9855,-4.0877,-4.1711,-4.1728,-4.1506,-4.1228,-4.0877,-4.1071,-4.2229,-3.9396,-3.7439,-3.9459,-3.9318,-3.8609,-3.7542,-3.8984,-3.9688,-3.8218,-3.7445,-3.6887,-3.6465,-3.5646,-3.4944,-3.4376,-3.622,-3.7259,-3.6826,-3.8009,-3.842,-3.7842,-3.7445,-3.6908,-3.6149,-3.5748,-3.5292,-3.4606,0.0,0.0,0.0,0.0,0.0,0.0,0.0,0.0,0.0,0.0,0.0,0.0,0.0,0.0,0.0,0.0,0.0,0.0,0.0,0.0,0.0,0.0,0.0,-0.5713,-0.5128,-0.5514,-0.8243,-0.8677,-0.8905,-0.9411,-0.9303,-0.9527,-1.0082,-1.1033,-1.1781,-1.2063,-1.3049,-1.3702,-1.3759,-1.4945,-1.5466,-1.5458,-1.7468,-1.9051,-2.0293,-2.2153,-2.3721,-2.5148,-2.608,-2.721,-2.8346,-2.7633,-2.8397,-3.0049,-2.9313,-2.9279,-2.9572,-2.8645,-2.8248,-2.8261,-2.8261,-2.8274,-2.8568,-3.0692,-3.13,-3.1469,-3.337,-3.3648,-3.3624,-3.5335,-3.4834,-3.4183,-3.6308,-3.7518,-3.8323,-3.8772,-3.9911,-4.1032,-4.1125,-4.047,-4.0175,-4.0939,-4.1071,-4.1314,-4.212,-4.0569,-3.9851,-4.2106,-3.9577,-3.7835,-3.964,-3.8312,0.0,-3.5575,-3.677,-3.6632,-3.3772,-3.6368,-3.7667,-3.6011,-3.7812,-3.8866,-3.8436,-3.8758,-3.8663,-3.786,-3.8281,-3.8101,-3.7334,-3.6201,-3.5452,-3.5068,0.0,0.0,0.0,0.0,0.0,0.0,0.0,0.0,0.0,0.0,0.0,0.0,0.0,0.0,0.0,0.0,0.0,0.0,0.0,0.0,0.0,0.0177,-0.1007,-0.4699,-0.6792,-0.8319,-0.9473,-0.9546,-0.9601,-0.9955,-1.0297,-1.047,-1.0438,-1.1213,-1.1922,-1.2191,-1.2932,-1.3508,-1.4,-1.5111,-1.5462,-1.5103,-1.721,-1.8566,-1.9124,-2.0524,-2.2097,-2.3818,-2.4097,-2.4587,-2.538,-2.6734,-2.7561,-2.7825,-2.8481,-2.8943,-2.9179,-2.9276,-2.905,-2.8818,-2.9032,-2.9245,-2.9697,-3.1669,-3.1436,-3.0585,-3.2469,-3.2062,-3.0972,-3.1395,-3.2061,-3.2648,-3.3254,-3.4435,-3.5908,-3.7975,-3.886,-3.9498,-4.0763,-4.0939,-4.0784,-4.0658,-4.0399,-4.038,-4.0935,-3.927,-3.873,-4.184,-3.9413,-3.767,-3.9395,-3.7552,-3.6358,-3.7366,-3.6208,-3.4978,-3.396,-3.3514,-3.3198,-3.2699,-3.4359,-3.5723,-3.6576,-3.7908,-3.8385,-3.7842,-3.7927,-3.7703,-3.7239,-3.724,-3.7055,0.0,0.0,0.0,0.0,0.0,0.0,0.0,0.0,0.0,0.0,0.0,0.0,0.0,0.0,0.0,0.0,0.0,0.0,0.0,0.0,0.0,0.0,0.0505,-0.0611,-0.2967,-0.5213,-0.7319,-0.921,-0.9295,-0.9329,-0.9763,-0.9972,-1.0004,-0.9863,-1.0545,-1.1086,-1.131,-1.2391,-1.3203,-1.3549,-1.4604,-1.4999,-1.4734,-1.675,-1.7898,-1.8156,-1.9876,-2.1641,-2.3257,-2.3437,-2.4083,-2.5297,-2.6509,-2.737,-2.7963,-2.868,-2.9105,-2.9356,0.0,0.0,0.0,0.0,-2.9758,-2.9716,-3.1011,-3.0747,-2.9981,-3.0835,-3.0571,-2.9893,-3.0497,-3.1234,-3.196,-3.2106,-3.3886,-3.5987,-3.6862,-3.8359,-3.9645,-3.9866,-4.0657,-4.1071,-4.009,-4.0261,-4.0717,-4.099,-3.919,0.0,-4.1335,-3.8494,-3.6008,-3.6242,-3.5574,-3.5171,-3.5506,-3.5606,-3.5206,-3.4327,-3.396,-3.3809,-3.3793,-3.4123,0.0,0.0,0.0,-3.8235,-3.8592,-3.8266,0.0,0.0,0.0,-3.7844,-3.7297,-3.7044,0.0,0.0,-3.5205,-3.4847,0.0,0.0,0.0,0.0,0.0,0.0,0.0,0.0,0.0,0.0,0.0,0.0,0.0,0.0,0.0,0.0,0.0134,-0.1362,-0.0967,-0.1888,-0.4063,-0.7881,-0.8259,-0.8397,-0.8907,-0.879,-0.872,-0.8803,-0.949,-0.9859,-0.9873,-1.1726,0.0,0.0,0.0,-1.4299,-1.421,-1.6217,-1.7202,-1.7307,-1.9733,-2.167,-2.3101,-2.3545,-2.4796,-2.663,-2.6815,-2.7779,-2.9208,-2.9115,-2.9394,-2.9582,-2.8271,-2.8302,-2.9064,-3.0097,-2.9822,-2.9138,-2.9735,0.0,0.0,-2.9387,-2.9561,-3.0083,-3.1267,-3.1699,-3.1771,-3.1961,-3.4768,-3.7316,-3.5858,-3.8203,-4.0614,-3.889,-4.0085,-4.1083,-3.9703,-4.0471,-4.1419,-4.1469,-3.9632,-3.8649,-4.0251,-3.7234,-3.3979,-3.2371,-3.3499,-3.4025,-3.2487,-3.5112,-3.6476,-3.4959,-3.5855,0.0,-3.6728,-3.5642,-3.6264,-3.9395,-3.8476,-3.834,-3.948,-3.8895,-3.8586,-3.845,-3.8484,-3.8093,-3.733,-3.6936,-3.6748,-3.6731,-3.6368,-3.6156,0.0,0.0,0.0,0.0,0.0,0.0,0.0,0.0,0.0,0.0,0.0,0.0,0.0,0.0,0.0,0.2725,0.3295,0.2779,0.0157,-0.0397,-0.1904,-0.5658,-0.7256,-0.7813,-0.7277,-0.8268,-0.8805,-0.8477,-0.9203,-0.9783,-0.9869,-1.1385,-1.2408,-1.2875,-1.3768,-1.4122,-1.3768,-1.5066,-1.601,-1.6499,-1.7952,0.0,-2.3004,-2.3468,-2.4742,-2.6537,-2.7273,-2.803,-2.8638,-2.8278,-2.8185,-2.8241,-2.8544,-2.8743,-2.8977,-2.9744,-2.9918,-2.9829,-3.0704,-3.097,-3.097,-3.0881,-3.0881,-3.1059,-3.1264,-3.1572,0.0,-3.1845,-3.4555,-3.7087,-3.5582,-3.7711,-4.0175,-3.9844,-4.0106,-4.0719,-4.19,-4.0895,-3.9842,-4.0225,-3.8358,-3.695,-3.743,-3.6237,-3.5201,-3.4855,-3.5352,-3.5613,-3.535,-3.5859,-3.6225,-3.5875,-3.4489,-3.3656,-3.3913,-3.4813,-3.6291,-3.8268,-3.8941,-3.9152,-3.8766,-3.8877,-3.8763,-3.845,-3.8406,-3.8272,-3.8118,-3.7724,-3.7535,-3.7518,-3.686,-3.6465,0.0,0.0,0.0,0.0,0.0,0.0,0.0,0.0,0.0,0.0,0.0,0.2624,0.2293,0.0,0.4008,0.3458,0.3849,0.3654,0.2169,0.1138,-0.0976,-0.488,-0.6305,-0.6763,-0.6379,-0.754,-0.8223,-0.7921,-0.861,-0.9096,-0.9096,-1.0227,-1.1237,-1.2067,-1.3041,-1.3817,-1.4407,-1.5366,-1.6333,-1.7496,-1.8409,-2.0085,-2.251,-2.3241,-2.4183,-2.5373,-2.6782,-2.7581,-2.7819,-2.8115,-2.8222,-2.8186,-2.8482,-2.8563,-2.8808,-2.986,-3.0354,-3.0445,-3.1158,-3.1687,-3.2138,-3.1881,-3.1958,-3.2138,-3.1915,-3.1915,-3.2062,-3.2064,-3.4759,-3.7305,-3.5568,-3.7798,-3.9947,-3.8075,-3.9024,-4.0188,-3.9469,-3.9699,-3.9788,-3.8964,-3.7949,-3.7443,-3.8129,-3.8033,-3.7363,-3.6047,-3.5939,-3.5939,-3.5852,-3.5891,-3.6002,-3.6002,-3.4167,-3.3694,-3.5722,-3.7521,-3.8562,-3.8489,-3.9649,-4.0153,-3.976,-3.9515,-3.9193,-3.8746,-3.892,-3.8751,-3.8323,-3.8408,-3.8493,-3.8666,-3.8031,-3.757,0.0,0.0,0.0,0.0,0.0,0.0,0.0,0.2776,0.3355,0.3401,0.4034,0.4381,0.3718,0.4642,0.5268,0.41,0.402,0.3978,0.377,0.2478,0.0083,-0.4065,-0.4984,-0.5421,-0.5723,-0.6778,-0.7349,-0.7113,-0.7838,-0.8149,-0.8078,-0.9194,-1.0376,-1.1302,-1.2448,-1.3722,-1.5187,-1.5858,-1.7001,-1.8734,-1.934,-2.077,-2.2758,-2.3261,-2.3976,-2.4937,-2.645,-2.7261,-2.7453,-2.8236,-2.862,-2.8596,-2.8379,-2.8351,-2.8718,-3.0174,-3.0782,-3.0887,-3.1771,-3.2521,-3.3177,-3.2881,-3.2987,-3.3234,-3.2859,-3.2831,-3.2979,-3.3314,-3.5639,-3.7579,-3.6157,-3.7949,-3.9456,-3.6365,-3.8235,-3.9898,-3.7087,-3.8621,-3.988,-3.7697,-3.7482,-3.8045,-3.9382,-3.9735,-3.9055,-3.6725,-3.6587,-3.6363,-3.5388,-3.5415,-3.5692,-3.6215,-3.4456,-3.4695,-3.8079,-3.9931,-4.0366,-3.9044,-4.0433,-4.1315,-4.1152,-4.0471,-3.9884,-3.9404,-3.9642,-3.9454,-3.8701,-3.8974,-3.9267,-3.9651,-3.9305,-3.8873,0.9585,0.8086,0.6349,0.3465,0.3455,0.3989,0.0,0.3783,0.4093,0.3856,0.3952,0.3961,0.3486,0.4808,0.5535,0.4291,0.5733,0.6023,0.3313,0.3741,0.2713,-0.1848,-0.2789,-0.3656,-0.4777,-0.5868,-0.6252,-0.581,-0.6689,-0.7129,-0.7122,-0.9194,-1.0672,-1.1417,-1.3287,-1.4407,-1.4804,-1.5727,-1.7001,-1.8717,-1.921,-2.1704,-2.5836,-2.4423,-2.5058,-2.7337,-2.7157,-2.7588,-2.8428,-2.8524,-2.862,-2.862,-2.8584,-2.856,-2.8762,-3.0212,-3.0768,-3.1085,-3.3222,-3.3984,-3.412,-3.4318,-3.4499,-3.4499,-3.4484,-3.4592,-3.5226,-3.7087,-3.768,-3.7865,-3.823,-3.8261,-3.8072,-3.7554,-3.9259,-4.0613,-3.9408,-3.9524,-3.8955,-3.6205,-3.6005,-3.6787,-3.8268,-3.8595,-3.83,-3.7249,-3.8402,-3.8259,-3.4802,-3.4374,-3.515,-3.7186,-3.5394,-3.4953,-3.7046,-3.7681,-3.8416,-3.9192,-4.1441,-4.233,-4.1635,-4.1442,-4.1164,-4.0736,-4.0375,-4.0203,-4.0117,-3.9781,-3.9639,-3.9674,-4.0028,-4.0052,0.9923,0.8,0.6084,0.3888,0.4008,0.4569,0.4077,0.4762,0.5357,0.512,0.5568,0.5742,0.5045,0.5519,0.5663,0.429,0.5109,0.5346,0.3758,0.4528,0.3571,-0.0757,-0.1186,-0.1872,-0.3814,-0.4876,-0.5236,-0.4689,-0.6087,-0.7052,-0.7309,-0.9018,-1.0493,-1.1775,-1.318,-1.4517,-1.5553,-1.611,-1.7157,-1.8803,-1.9635,-2.1149,-2.3448,-2.4095,-2.5481,-2.7392,-2.6546,-2.7067,-2.862,-2.862,-2.862,-2.862,-2.862,-2.862,-2.8788,-2.9955,-3.0807,-3.149,-3.3126,-3.4024,-3.4519,-3.4666,-3.471,-3.4739,-3.466,-3.4828,-3.5097,-3.5904,-3.6885,-3.7476,-3.66,-3.7194,-3.793,-3.8008,-3.8545,-3.9053,-3.8857,-3.8582,-3.7899,-3.6463,-3.7518,-3.8644,-3.8736,-3.9711,-3.9898,-3.8406,-3.8663,-3.7785,-3.4256,-3.5289,-3.6096,-3.5699,-3.4688,-3.443,-3.5165,-3.6464,-3.798,-3.9549,-4.0803,-4.1782,-4.2399,-4.2353,-4.2069,-4.1323,-4.1409,-4.1236,-4.0611,-4.0711,-4.0919,-4.117,-4.1301,-4.148,0.9401,0.8004,0.6942,0.4687,0.5038,0.5917,0.5397,0.6142,0.6895,0.6714,0.7063,0.726,0.6502,0.6544,0.6246,0.4893,0.5032,0.5104,0.4374,0.4994,0.3942,-0.0338,-0.0255,-0.0934,-0.3705,-0.4576,-0.475,-0.4206,-0.5775,-0.6918,-0.734,-0.8982,-1.0553,-1.2015,-1.3382,-1.4758,-1.6074,-1.6704,-1.7591,-1.8922,-2.0037,-2.1168,-2.2162,-2.4045,-2.5552,-2.6618,-2.5891,-2.6681,-2.862,-2.862,-2.862,-2.862,-2.862,-2.862,-2.8716,-3.0032,-3.0998,-3.1867,-3.3275,-3.4247,-3.4841,-3.4929,-3.4958,-3.5017,-3.498,-3.4957,-3.509,-3.5678,-3.6465,-3.687,-3.6043,-3.6661,-3.7584,-3.7582,-3.8016,-3.8202,-3.7616,-3.8135,-3.8387,-3.707,-3.8922,-4.0413,-3.9514,-4.0578,-4.0963,-3.9488,-3.9573,-3.8671,-3.5441,-3.6901,-3.7178,-3.4825,-3.4382,-3.443,-3.4798,-3.6157,-3.7834,-3.9618,-4.0604,-4.171,-4.2876,-4.2858,-4.2696,-4.2163,-4.2316,-4.2174,-4.1475,-4.1699,-4.1982,-4.2202,-4.2316,-4.2496,0.8079,0.8724,0.9385,0.6123,0.7145,0.8688,0.7911,0.8169,0.857,0.8501,0.7989,0.7518,0.7429,0.7858,0.7715,0.633,0.6509,0.6336,0.4952,0.5258,0.3848,-0.077,-0.0426,-0.1358,-0.4967,-0.5387,-0.5216,-0.471,-0.5606,-0.641,-0.6918,-0.9135,-1.0938,-1.2243,-1.4242,-1.5369,-1.5689,-1.7336,-1.8354,-1.8913,-2.0399,-2.2265,-2.4441,-2.4904,-2.5286,-2.5595,-2.5506,-2.6681,-2.862,-2.862,-2.862,-2.862,-2.862,-2.862,-2.8812,-3.0903,-3.1664,-3.1988,-3.4368,-3.5149,-3.5192,-3.5514,-3.5713,-3.5713,-3.5631,-3.5631,-3.6097,-3.804,-3.7199,-3.6178,-3.8119,-3.7348,-3.6158,-3.6126,-3.7989,-3.889,-3.6361,-3.9085,-4.105,-3.749,-3.9106,-4.0886,-4.0276,-4.0356,-4.0419,-4.0226,-4.1883,-4.2137,-3.9178,-3.884,-3.8003,-3.5632,-3.5069,-3.5425,-3.6794,-3.7067,-3.772,-3.9243,-4.1566,-4.2876,-4.2858,-4.2858,-4.3059,-4.3444,-4.3059,-4.2839,-4.2839,-4.2454,-4.2289,-4.2307,-4.2692,-4.2876,1.0071,1.0298,1.0523,0.7459,0.7508,0.8109,0.7624,0.828,0.8792,0.8001,0.8132,0.8019,0.726,0.7024,0.6687,0.5842,0.5867,0.5611,0.4847,0.5408,0.396,-0.128,-0.0681,-0.2132,-0.7804,-0.6911,-0.5696,-0.5269,-0.6182,-0.7104,-0.8023,-0.9884,-1.1549,-1.2692,-1.4799,-1.5978,-1.5997,-1.7752,-1.8549,-1.8447,-2.0433,-2.2506,-2.4474,-2.4187,-2.4928,-2.6303,-2.5764,-2.6681,-2.862,-2.862,-2.862,-2.862,-2.862,-2.9004,-2.9746,-3.1189,-3.2138,-3.2908,-3.4342,-3.4988,-3.5134,-3.5046,-3.5163,-3.528,-3.5075,-3.5017,-3.5206,-3.5836,-3.5568,-3.5206,-3.5851,-3.5806,-3.5883,-3.7199,-3.7272,-3.7096,-3.7287,-3.8449,-3.9078,-3.7584,-3.9149,-4.0099,-3.8238,-3.7983,-3.7855,-3.7476,-3.8043,-3.9242,-4.1197,-3.7439,-3.4809,-3.5383,-3.5264,-3.5282,-3.5374,-3.6926,-3.8522,-3.9976,-4.0905,-4.1888,-4.3279,-4.3279,-4.3353,-4.3499,-4.3609,-4.3683,-4.3683,-4.3811,-4.3866,-4.3866,-4.4288,-4.4325,1.1934,1.206,1.2059,0.894,0.872,0.9298,0.9642,0.967,0.9563,0.9569,0.9001,0.8309,0.7729,0.681,0.6125,0.5922,0.5388,0.5008,0.5169,0.5569,0.4085,-0.077,0.0258,-0.0861,-0.663,-0.6212,-0.5779,-0.6448,-0.7118,-0.7982,-0.9123,-1.0578,-1.1988,-1.3285,-1.5412,-1.6552,-1.6552,-1.8736,-2.0114,-2.0718,-2.1981,-2.3476,-2.5003,-2.5195,-2.5935,-2.7126,-2.6897,-2.7677,-2.9042,-2.8753,-2.862,-2.862,-2.862,-2.9184,-3.0223,-3.1284,-3.2327,-3.3365,-3.432,-3.4827,-3.4958,-3.4768,-3.4841,-3.4958,-3.4768,-3.471,-3.471,-3.471,-3.471,-3.471,-3.471,-3.4929,-3.5528,-3.6834,-3.6446,-3.6119,-3.7836,-3.8259,-3.8368,-3.8558,-3.9198,-3.934,-3.8441,-3.828,-3.832,-3.8325,-3.724,-3.7331,-3.994,-3.6436,-3.3887,-3.4262,-3.424,-3.4388,-3.5194,-3.6722,-3.858,-4.0752,-4.1053,-4.1835,-4.3261,-4.3279,-4.3408,-4.3701,-4.3811,-4.4013,-4.4288,-4.4398,-4.4526,-4.4673,-4.4948,-4.493,1.3498,1.3987,1.4195,1.0826,1.0905,1.2162,1.3566,1.2106,1.0993,1.2774,1.0473,0.833,0.8711,0.7329,0.6236,0.6623,0.5417,0.4813,0.5848,0.5691,0.4161,0.0693,0.2274,0.2008,-0.2225,-0.3568,-0.5265,-0.8098,-0.8436,-0.9048,-1.0115,-1.1209,-1.2414,-1.3912,-1.607,-1.7172,-1.7172,-2.0033,-2.2805,-2.5258,-2.4801,-2.5088,-2.6174,-2.7592,-2.8171,-2.8067,-2.8777,-2.9371,-2.976,-2.903,-2.8644,-2.8644,-2.8656,-2.9317,-3.0357,-3.1323,-3.2368,-3.3502,-3.4457,-3.4753,-3.4753,-3.4739,-3.4753,-3.4768,-3.4753,-3.4739,-3.4724,-3.4724,-3.4803,-3.4803,-3.471,-3.5009,-3.5324,-3.5229,-3.5464,-3.6074,-3.7695,-3.8371,-3.8938,-4.0106,-3.9205,-3.8723,-4.0494,-4.0937,-4.1166,-4.2048,-3.9068,-3.656,-3.6069,-3.5922,-3.4981,-3.2691,-3.2242,-3.33,-3.6052,-3.6527,-3.807,-4.1378,-4.2087,-4.2472,-4.2858,-4.2894,-4.3261,-4.4031,-4.3701,-4.3903,-4.4673,-4.4306,-4.4325,-4.4728,-4.471,-4.471,1.4565,1.5592,1.6709,1.3283,1.3691,1.5008,1.5183,1.4021,1.2814,1.2176,1.0638,0.9255,0.8579,0.7493,0.685,0.7003,0.6295,0.5901,0.609,0.641,0.5325,0.1927,0.2814,0.1939,-0.2382,-0.3017,-0.4285,-0.6819,-0.8375,-0.9487,-1.014,-1.1603,-1.2871,-1.4003,-1.607,-1.7172,-1.7172,-2.0261,-2.2764,-2.4673,-2.5313,-2.6167,-2.7164,-2.7473,-2.8187,-2.898,-2.8365,-2.9007,-3.0354,-2.971,-2.9492,-2.9504,-2.9701,-3.0653,-3.1917,-3.2221,-3.3464,-3.511,-3.5397,-3.5397,-3.5368,-3.5119,-3.5368,-3.5719,-3.5485,-3.5236,-3.5046,-3.5046,-3.5967,-3.6498,-3.5069,-3.5846,-3.6622,-3.5188,-3.4885,-3.5464,-3.738,-3.7814,-3.7938,-3.8267,-3.804,-3.7919,-3.8364,-3.9341,-3.9109,-3.6467,-3.5683,-3.5561,-3.5987,-3.4493,-3.3055,-3.2502,-3.3508,-3.4279,-3.4755,-3.755,-3.9509,-4.0053,-4.1774,-4.2766,-4.2858,-4.3169,-4.3426,-4.3646,-4.3829,-4.4178,-4.4673,-4.4563,-4.4893,-4.5572,-4.5278,-4.5297,1.718,1.7946,1.8687,1.6119,1.6253,1.704,1.695,1.5633,1.4112,1.2925,1.1201,0.9642,0.8613,0.7258,0.6407,0.6853,0.6148,0.5656,0.6072,0.6656,0.5943,0.3097,0.4188,0.3844,0.0357,-0.0539,-0.1805,-0.3899,-0.6812,-0.9312,-1.1232,-1.198,-1.296,-1.4468,-1.6655,-1.8489,-1.997,-2.2097,-2.4125,-2.6015,-2.688,-2.7509,-2.8021,-2.9405,-3.0058,-3.007,-3.0373,-3.0764,-3.121,-3.0301,-2.986,-2.9689,-3.0453,-3.1539,-3.2732,-3.3222,-3.4492,-3.5836,-3.5786,-3.5734,-3.5792,-3.547,-3.5617,-3.588,-3.5801,-3.561,-3.5464,-3.5464,-3.6723,-3.7538,-3.5479,-3.6356,-3.7334,-3.5192,-3.5335,-3.6235,-3.7407,-3.7575,-3.7575,-3.7575,-3.8935,-3.9846,-3.9026,-3.9283,-3.901,-3.6729,-3.5837,-3.5438,-3.5576,-3.3392,-3.1894,-3.2124,-3.2901,-3.3964,-3.5046,-3.7249,-3.9192,-4.0649,-4.1931,-4.2766,-4.3133,-4.3371,-4.3573,-4.3756,-4.3793,-4.4105,-4.4673,-4.4508,-4.4746,-4.5352,-4.5132,-4.515,1.9886,2.0261,2.046,1.8836,1.8749,1.9025,1.8907,1.7043,1.511,1.3982,1.1752,0.9654,0.8695,0.6958,0.5916,0.6622,0.5635,0.5075,0.5984,0.6426,0.6013,0.4285,0.5804,0.628,0.4222,0.2542,0.0914,-0.0638,-0.4568,-0.8569,-1.2534,-1.2275,-1.316,-1.5577,-1.7529,-2.0166,-2.3571,-2.4484,-2.6005,-2.7977,-2.8731,-2.9043,-2.8942,-3.1852,-3.2497,-3.118,-3.2839,-3.3045,-3.2168,-3.0874,-3.0194,-3.0033,-3.1325,-3.245,-3.3557,-3.4448,-3.5421,-3.6261,-3.5953,-3.6012,-3.6187,-3.5822,-3.5734,-3.5778,-3.5778,-3.583,-3.5801,-3.609,-3.7356,-3.8182,-3.6216,-3.699,-3.7757,-3.5716,-3.6544,-3.7811,-3.8088,-3.804,-3.8099,-3.8375,-4.1148,-4.2836,-4.1203,-4.0464,-3.9994,-3.9829,-3.7831,-3.6052,-3.5211,-3.3151,-3.1678,-3.1624,-3.1827,-3.3157,-3.5704,-3.6495,-3.8291,-4.1659,-4.2202,-4.2656,-4.3298,-4.3389,-4.3573,-4.3921,-4.3591,-4.3793,-4.46,-4.4196,-4.4233,-4.4673,-4.4618,-4.4618,1.981,2.1145,2.2427,2.0501,2.1441,2.2448,2.1014,1.8785,1.6303,1.3636,1.1279,0.9309,0.8217,0.7468,0.7059,0.7452,0.672,0.6162,0.6435,0.5861,0.5452,0.5388,0.5513,0.5564,0.546,0.3818,0.1884,-0.0093,-0.3101,-0.7061,-1.1982,-1.2531,-1.4335,-1.7813,-1.8375,-2.0369,-2.39,-2.5201,-2.665,-2.8241,-2.9403,-3.0016,-2.9968,-3.1626,-3.2138,-3.1641,-3.2025,-3.2464,-3.2802,-3.139,-3.1667,-3.282,-3.3042,-3.4068,-3.5494,-3.5697,-3.6406,-3.727,-3.6948,-3.6875,-3.6817,-3.6231,-3.6217,-3.6436,-3.6436,-3.6246,-3.6415,-3.8109,-3.8576,-3.8529,-3.8182,-3.8356,-3.8434,-3.8088,-3.8261,-3.8904,-4.057,-4.0612,-4.0869,-4.2601,-4.3161,-4.33,-4.2944,-4.2461,-4.1726,-4.0571,-3.8768,-3.7311,-3.6574,-3.5209,-3.3407,-3.1234,-3.2733,-3.3838,-3.3724,-3.7313,-3.9511,-3.9479,-4.1578,-4.2674,-4.2491,-4.2803,-4.3004,-4.3078,-4.3004,-4.3371,-4.4178,-4.3793,-4.3958,-4.4673,-4.4343,-4.4361,2.1292,2.2239,2.3219,2.2406,2.2846,2.2943,2.0415,1.8748,1.6676,1.3012,1.0989,0.954,0.8522,0.7428,0.6829,0.734,0.6577,0.596,0.6347,0.5923,0.5613,0.5708,0.5432,0.5384,0.5794,0.3853,0.1807,0.0,-0.305,-0.6773,-1.1131,-1.3411,-1.5874,-1.8712,-1.9091,-2.0862,-2.4221,-2.5532,-2.6926,-2.8298,-2.9575,-3.0445,-3.0901,-3.2203,-3.3001,-3.3273,-3.3449,-3.3575,-3.3525,-3.2816,-3.2846,-3.3404,-3.4604,-3.5555,-3.6289,-3.6905,-3.7418,-3.7782,-3.7461,-3.7226,-3.7036,-3.6729,-3.6612,-3.6597,-3.6597,-3.6495,-3.6755,-3.8854,-3.9307,-3.9132,-3.9037,-3.975,-4.0269,-3.9034,-3.9568,-4.0865,-4.2817,-4.3044,-4.3194,-4.4197,-4.5063,-4.5234,-4.3917,-4.3488,-4.3018,-4.2174,-4.1226,-4.0459,-3.9723,-3.8834,-3.711,-3.3877,-3.4599,-3.5729,-3.69,-3.9096,-4.0474,-4.0662,-4.1891,-4.2472,-4.2289,-4.2454,-4.2564,-4.2564,-4.2766,-4.2968,-4.3151,-4.3151,-4.3261,-4.3426,-4.3224,-4.3353,2.2503,2.2998,2.3365,2.3548,2.3418,2.2396,1.9233,1.8104,1.6538,1.2334,1.0651,0.9664,0.885,0.742,0.6539,0.7172,0.6441,0.5947,0.6282,0.6045,0.5826,0.5649,0.525,0.5287,0.5831,0.369,0.1724,0.0668,-0.3463,-0.7506,-1.0928,-1.454,-1.7358,-1.9109,-1.9949,-2.1845,-2.495,-2.5976,-2.7315,-2.8693,-2.9712,-3.061,-3.1501,-3.2807,-3.3778,-3.4562,-3.47,-3.4612,-3.4141,-3.3902,-3.3846,-3.4117,-3.5844,-3.6806,-3.722,-3.7957,-3.8163,-3.8119,-3.7797,-3.7519,-3.727,-3.7139,-3.6875,-3.6597,-3.6597,-3.6597,-3.7091,-3.9673,-3.9673,-3.9139,-3.9804,-4.0871,-4.1453,-4.0507,-4.1476,-4.3174,-4.5132,-4.515,-4.4893,-4.5369,-4.6605,-4.6973,-4.4969,-4.4595,-4.4377,-4.4034,-4.393,-4.3518,-4.2615,-4.194,-4.0483,-3.7691,-3.7094,-3.7782,-3.9961,-4.0702,-4.1441,-4.2092,-4.2234,-4.2234,-4.2161,-4.2142,-4.2142,-4.2142,-4.2454,-4.2509,-4.2271,-4.2674,-4.2711,-4.2399,-4.2491,-4.2711,2.2235,2.288,2.2997,2.3106,2.2934,2.1947,1.8963,1.7621,1.5889,1.1964,1.0192,0.9164,0.8406,0.7648,0.7216,0.7587,0.7355,0.695,0.6361,0.6048,0.5679,0.5261,0.4819,0.4952,0.5834,0.3736,0.2438,0.2801,-0.4074,-0.9578,-1.2556,-1.58,-1.8149,-1.9505,-2.1146,-2.3647,-2.6783,-2.7125,-2.8177,-3.0076,-3.01,-3.0696,-3.1781,-3.2899,-3.37,-3.4272,-3.43,-3.4214,-3.4155,-3.3709,-3.4666,-3.6473,-3.6786,-3.7756,-3.9107,-3.8589,-3.85,-3.8441,-3.8134,-3.8002,-3.7885,-3.7285,-3.6875,-3.6597,-3.6597,-3.6597,-3.7371,-4.1285,-3.9754,-3.775,-4.1444,-4.1156,-4.0867,-4.4347,-4.5288,-4.5963,-4.8065,-4.6724,-4.5705,-4.7487,-4.7742,-4.7352,-4.6725,-4.6598,-4.6462,-4.6104,-4.5735,-4.4903,-4.3475,-4.2492,-4.1834,-4.1622,-4.0473,-3.9442,-3.858,-4.1179,-4.2488,-4.1776,-4.2087,-4.2124,-4.1757,-4.1739,-4.1739,-4.1739,-4.1776,-4.1959,-4.2271,-4.2674,-4.2858,-4.2821,-4.3206,-4.3408,2.2439,2.2977,2.2965,2.2965,2.2054,2.049,1.8228,1.6435,1.4587,1.2064,1.0681,0.9832,0.9647,0.8561,0.7784,0.8147,0.7365,0.6745,0.6959,0.6069,0.5454,0.5442,0.4693,0.4262,0.4564,0.2888,0.0884,-0.1375,-0.5735,-0.9657,-1.2961,-1.7006,-1.9322,-1.9585,-2.1977,-2.4387,-2.6735,-2.7225,-2.8312,-3.0214,-3.0809,-3.1718,-3.2812,-3.3914,-3.4812,-3.5621,-3.5207,-3.5391,-3.5934,-3.5437,-3.6215,-3.7607,-3.7835,-3.8217,-3.8841,-3.8647,-3.8543,-3.8514,-3.8397,-3.809,-3.7724,-3.7475,-3.7036,-3.6597,-3.6597,-3.747,-3.8811,-4.0432,-3.977,-3.9089,-4.1958,-4.301,-4.4074,-4.6934,-4.7698,-4.7903,-4.8755,-4.8138,-4.7653,-4.8502,-4.8457,-4.8203,-4.7773,-4.7695,-4.7558,-4.7129,-4.6699,-4.6221,-4.556,-4.451,-4.3625,-4.3472,-4.2171,-4.1373,-4.1467,-4.2591,-4.2976,-4.2155,-4.1959,-4.1739,-4.1335,-4.1317,-4.1317,-4.1317,-4.1555,-4.1757,-4.1922,-4.2326,-4.2509,-4.2509,-4.2692,-4.2894,2.1821,2.246,2.2729,2.2729,2.1235,1.9315,1.7557,1.561,1.3672,1.2026,1.0899,1.0247,1.0331,0.9006,0.8017,0.8337,0.7443,0.6718,0.6945,0.6187,0.5543,0.5374,0.456,0.3925,0.3873,0.2407,-0.0297,-0.4686,-0.6514,-0.9488,-1.389,-1.8038,-2.0149,-2.0033,-2.2791,-2.5174,-2.6775,-2.7245,-2.8392,-3.0214,-3.1315,-3.231,-3.3414,-3.4513,-3.5607,-3.6528,-3.5934,-3.6278,-3.7038,-3.6965,-3.7429,-3.8398,-3.8619,-3.8737,-3.8737,-3.8543,-3.8543,-3.8529,-3.8426,-3.8104,-3.7695,-3.7504,-3.751,-3.7703,-3.7598,-3.8518,-3.9673,-3.9673,-4.0158,-4.0916,-4.2341,-4.4246,-4.6354,-4.8385,-4.8867,-4.8867,-4.8867,-4.8867,-4.8867,-4.8867,-4.8867,-4.873,-4.8281,-4.8203,-4.7936,-4.7281,-4.6861,-4.6609,-4.6315,-4.5338,-4.4517,-4.3951,-4.2934,-4.2528,-4.2982,-4.3031,-4.2691,-4.2027,-4.1647,-4.1372,-4.1079,-4.106,-4.106,-4.106,-4.1354,-4.15,-4.15,-4.1904,-4.2106,-4.2106,-4.2344,-4.2674,2.02,2.1322,2.1976,2.1976,2.0569,1.8749,1.7238,1.5256,1.3269,1.1788,1.0703,1.0027,1.0027,0.8816,0.7891,0.8167,0.7793,0.7062,0.579,0.6163,0.6061,0.4595,0.4069,0.393,0.4105,0.2489,-0.0499,-0.5233,-0.6135,-0.9232,-1.5625,-1.8683,-2.0461,-2.0826,-2.3697,-2.5993,-2.7381,-2.7625,-2.8575,-3.0214,-3.1315,-3.231,-3.3414,-3.4513,-3.5607,-3.6626,-3.6349,-3.6579,-3.7139,-3.7797,-3.8369,-3.8896,-3.9225,-3.9359,-3.9359,-3.8737,-3.8543,-3.85,-3.8178,-3.8061,-3.7958,-3.73,-3.8447,-4.0133,-3.9784,-3.9673,-3.9673,-3.9673,-4.1109,-4.2628,-4.2724,-4.4246,-4.6354,-4.8385,-4.8867,-4.8867,-4.8867,-4.8867,-4.8867,-4.8867,-4.8867,-4.873,-4.8281,-4.8203,-4.7729,-4.6446,-4.6222,-4.5891,-4.5047,-4.4459,-4.3876,-4.3143,-4.2987,-4.2546,-4.1776,-4.1702,-4.1519,-4.1181,-4.1079,-4.106,-4.106,-4.106,-4.106,-4.106,-4.106,-4.1145,-4.1145,-4.1482,-4.1702,-4.1721,-4.2491,-4.3078,1.8796,1.9336,1.9404,1.8706,1.7299,1.5822,1.4932,1.3397,1.2025,1.1397,1.1049,1.0806,1.0806,1.0062,0.933,0.9076,0.8152,0.7251,0.664,0.5866,0.5177,0.4693,0.3225,0.196,0.1262,0.0099,-0.1509,-0.3832,-0.5841,-0.8773,-1.2669,-1.6912,-2.0217,-2.2313,-2.5532,-2.7572,-2.8235,-2.8791,-2.9656,-3.0822,-3.2402,-3.3198,-3.3414,-3.5309,-3.6301,-3.6641,-3.7369,-3.801,-3.8594,-3.9294,-3.9814,-4.0343,-4.0038,-3.9981,-3.9877,-3.9359,-3.9225,-3.9221,-3.8706,-3.8582,-3.838,-3.7869,-3.8904,-4.0319,-3.9818,-4.1687,-4.3867,-4.3867,-4.3296,-4.301,-4.4436,-4.6354,-4.8088,-4.8755,-4.8867,-4.8867,-4.8867,-4.8867,-4.8867,-4.8867,-4.8867,-4.8808,-4.8672,-4.8398,-4.804,-4.7622,-4.678,-4.6082,-4.5806,-4.4797,-4.41,-4.3839,-4.349,-4.2858,-4.1776,-4.1941,-4.2094,-4.1926,-4.1652,-4.1523,-4.1462,-4.121,-4.106,-4.106,-4.106,-4.1207,-4.1482,-4.1886,-4.2381,-4.2931,-4.3169,-4.3175,1.7116,1.7484,1.7412,1.6784,1.5489,1.4193,1.3777,1.251,1.1359,1.1227,1.1198,1.1198,1.1198,1.0662,1.0151,0.9983,0.8615,0.7439,0.7065,0.5701,0.4592,0.3946,0.2246,0.087,0.0198,-0.0903,-0.2021,-0.3145,-0.5572,-0.8517,-1.1811,-1.6239,-2.0082,-2.3203,-2.6106,-2.8005,-2.8563,-2.9318,-3.0303,-3.1477,-3.3052,-3.3977,-3.4245,-3.5891,-3.6597,-3.6641,-3.8074,-3.8908,0.0,-4.0312,-4.0837,-4.0965,-4.0657,-4.0378,-4.0202,-3.9774,-3.9665,-3.9668,-3.9139,-3.8847,-3.8592,-3.7959,-3.939,-4.1607,-4.2837,-4.3296,-4.3772,-4.5397,-4.4341,-4.3201,-4.5303,-4.7326,-4.8867,-4.8867,-4.8867,-4.8867,-4.8867,-4.8867,-4.8867,-4.8867,-4.8867,-4.8867,-4.8867,-4.8449,-4.8037,-4.7692,-4.6614,-4.5773,-4.5415,-4.4513,-4.3871,-4.3704,-4.3616,-4.307,-4.1996,-4.2297,-4.2432,-4.2281,-4.2114,-4.1994,-4.1965,-4.1546,-4.1294,-4.1294,-4.1145,-4.1273,-4.17,-4.2106,-4.2647,-4.3261,-4.3083,-4.3051,0.0,1.57,1.5913,1.5903,1.4711,1.3569,1.3549,1.2345,0.0,1.1198,1.1198,1.1198,1.1217,1.0771,1.0467,1.0743,0.9071,0.7546,0.7134,0.567,0.4106,0.2518,0.1176,0.0475,0.0388,-0.0895,-0.2127,-0.327,-0.5417,-0.8469,-1.2525,-1.621,-1.9898,-2.3413,-2.5664,-2.7429,-2.8733,-2.9239,-3.053,-3.2379,-3.3413,-3.4483,-3.5553,-3.6319,-3.6612,-3.674,-3.8544,-3.9258,-3.9328,-4.1014,-4.1399,-4.099,-4.099,-4.0744,-4.0306,-4.0306,-4.0076,-3.974,-3.9403,-3.9066,-3.8646,-3.7901,-3.998,-4.3487,-4.7512,-4.4643,-4.0916,-4.4926,-4.453,-4.3392,-4.5491,-4.7512,-4.8959,-4.8959,-4.8959,-4.8867,-4.8867,-4.8867,-4.8867,-4.8867,-4.8867,-4.8867,-4.8867,-4.8405,-4.7714,-4.6944,-4.607,-4.5202,-4.4269,-4.3864,-4.346,-4.3125,-4.344,-4.336,-4.2573,-4.2741,-4.2814,-4.2404,-4.2368,-4.2478,-4.244,-4.1984,-4.1714,-4.1835,-4.1536,-4.1658,-4.2078,-4.2471,-4.2851,-4.3213,-4.2666,-4.3086,1.3545,0.0,1.3386,1.2783,1.2308,1.1996,0.0,1.1456,1.1198,1.1198,1.1198,1.1246,1.1416,1.1331,1.1187,1.1028,0.9272,0.7813,0.7555,0.5296,0.3168,0.1766,0.1054,0.0196,-0.1008,-0.2121,-0.3232,-0.4352,-0.6518,-0.8709,-1.0616,-1.3831,-1.7574,-2.1869,-2.4212,-2.6832,-2.9827,-3.0351,-3.1458,-3.3188,-3.4136,-3.4846,-3.5553,-3.6547,-3.7066,-3.7308,-3.9043,-3.9305,-3.8731,-4.0513,-4.0881,-4.0384,-4.0384,-4.0785,-4.132,-4.1012,-4.0896,-4.0857,-4.0108,-3.9881,-3.9933,-4.0221,-4.1414,-4.3201,-4.5773,-4.5491,-4.4926,-4.7419,-4.6654,-4.5585,-4.8069,-4.8848,-4.8959,-4.9328,-4.9144,-4.8867,-4.8867,-4.8867,-4.8867,-4.8867,-4.859,-4.8312,-4.8312,-4.7867,-4.7364,-4.6784,-4.6594,-4.618,-4.522,-4.5082,-4.4848,-4.4435,-4.4574,-4.4536,-4.4354,-4.3772,-4.3242,-4.2832,-4.2788,-4.2772,-4.2875,-4.2115,-4.2013,-4.2688,-4.3583,-4.4655,-4.5712,-4.5831,-4.5895,-4.5964,-4.5788,-4.5559,1.3232,1.2597,1.1913,1.1447,1.1368,1.134,1.1227,1.1198,1.1198,1.1198,1.1274,1.1378,1.1491,1.1008,1.0841,1.1524,0.9071,0.6864,0.6215,0.4059,0.2269,0.1682,0.0381,-0.0686,-0.1538,-0.3052,-0.4144,-0.477,-0.747,-0.9277,-0.9942,-1.4077,-1.7507,-1.9828,-2.3529,-2.697,-2.9993,-3.1203,-3.2449,-3.394,-3.499,-3.5905,-3.6686,-3.7495,-3.7763,-3.7763,-3.9636,-3.9944,-3.9241,-4.0893,-4.1302,-4.0883,-4.0934,-4.1242,-4.1731,-4.1423,-4.121,-4.1039,-4.0564,-3.9871,-3.9712,-4.19,-4.2663,-4.3296,-4.6261,-4.6542,-4.6261,-4.8273,-4.7605,-4.6635,-4.8736,-4.9236,-4.9236,-4.9236,-4.9032,-4.8867,-4.8867,-4.8867,-4.8867,-4.8867,-4.8682,-4.8497,-4.8497,-4.7848,-4.7326,-4.7025,-4.6705,-4.6239,-4.5807,-4.5574,-4.5324,-4.4937,-4.5104,-4.5078,-4.4636,-4.4687,-4.458,-4.3887,-4.3832,-4.388,-4.3906,-4.3657,-4.389,-4.4525,-4.5718,-4.6396,-4.6721,-4.7147,-4.6909,-4.6003,-4.6777,-4.6931,1.3511,1.2583,1.1546,1.1285,1.1198,1.1198,1.1198,1.1217,1.1246,1.1246,1.1416,1.1475,1.1225,1.0461,1.0358,1.1764,0.8919,0.6018,0.448,0.2861,0.1811,0.2006,-0.0281,-0.1747,-0.1747,-0.3565,-0.4963,-0.5315,-0.8246,-1.0054,-1.0273,-1.5093,-1.7909,-1.8019,-2.2727,-2.6496,-2.9252,-3.1585,-3.3362,-3.4501,-3.5924,-3.7124,-3.8381,-3.859,-3.8615,-3.8371,-4.0016,-4.0259,-3.9653,-4.0897,-4.141,-4.1308,-4.1486,-4.1613,-4.1849,-4.1849,-4.1468,-4.0928,-4.0832,-3.9647,-3.8776,-4.2601,-4.3331,-4.3487,-4.6934,-4.7307,-4.6728,-4.8088,-4.74,-4.6822,-4.8551,-4.9236,-4.942,-4.9032,-4.894,-4.8867,-4.8867,-4.8867,-4.8867,-4.8867,-4.8867,-4.8775,-4.8775,-4.8034,-4.7455,-4.7626,-4.7036,-4.6498,-4.6352,-4.6081,-4.5635,-4.4984,-4.5376,-4.5362,-4.4889,-4.5687,-4.6141,-4.5822,-4.5402,-4.5071,-4.5104,-4.5653,-4.6181,-4.6834,-4.7704,-4.7865,-4.7183,-4.795,-4.7491,-4.586,-4.7482,-4.8165,1.3655,1.3532,1.3207,1.1615,1.1198,1.1198,1.1198,1.134,1.1472,1.1472,1.1633,1.1349,1.0046,1.0778,1.1385,1.0673,0.9627,0.7936,0.5018,0.3534,0.2692,0.2836,0.0194,-0.1789,-0.2226,-0.3841,-0.557,-0.7563,-0.9072,-1.0493,-1.1512,-1.4226,-1.6477,-1.7938,-1.9715,-2.2662,-2.6758,-3.0824,-3.3523,-3.5075,-3.644,-3.7979,-3.939,-3.9181,-3.9378,-3.9863,-3.928,-3.842,-3.75,-3.8364,-3.8707,-3.878,-3.9928,-4.099,-4.1849,-4.1849,-4.177,-4.1595,-4.0991,-3.9647,-3.858,-4.0885,-4.2471,-4.3392,-4.3582,-4.6429,-4.9105,-4.6934,-4.6073,-4.6448,-4.8828,-4.9236,-4.9144,-4.942,-4.9216,-4.8867,-4.8867,-4.8867,-4.8867,-4.8867,-4.8497,-4.8219,-4.8219,-4.7774,-4.7643,-4.8473,-4.8842,-4.864,-4.7547,-4.766,-4.7257,-4.5692,-4.5557,-4.6182,-4.759,-4.6826,-4.7256,-4.9527,-4.705,-4.5502,-4.5614,-4.6356,-4.7386,-4.8651,-4.9533,-5.0294,-5.1011,-5.1095,-5.0804,-5.0136,-5.0857,-5.0881,1.4028,1.3236,1.2499,1.2693,1.3197,1.3668,1.3668,1.35,1.324,1.2786,1.2862,1.2287,1.0054,0.9957,0.9524,0.7657,0.7805,0.7212,0.4628,0.3551,0.2497,0.1297,-0.0856,-0.2539,-0.3622,-0.4944,-0.6381,-0.8072,-0.9277,-1.0501,-1.1744,-1.4587,-1.6223,-1.625,-1.9198,-2.1992,-2.4714,-2.9575,-3.2864,-3.4804,-3.6943,-3.8662,-3.9985,-3.9798,-4.0316,-4.1191,-4.0368,-3.9763,-3.947,-3.9497,-3.9709,-3.9897,-4.0754,-4.136,-4.1802,-4.1404,-4.1277,-4.1166,-4.0467,-3.9531,-3.9054,-4.1929,-4.3331,-4.3979,-4.4264,-4.6429,-4.8254,-4.6354,-4.7008,-4.8347,-4.9032,-4.9059,-4.9032,-4.9177,-4.8856,-4.8574,-4.8808,-4.8867,-4.8867,-4.8867,-4.9124,-4.9308,-4.9308,-4.9308,-4.9485,-4.9975,-4.9791,-4.9176,-4.8106,-4.7934,-4.7308,-4.5675,-4.5757,-4.6454,-4.7866,-4.7179,-4.7414,-4.9223,-4.842,-4.8082,-4.8619,-4.931,-4.9931,-5.0522,-5.1485,-5.1615,-5.1013,-5.1539,-5.1142,-4.9971,-5.1466,-5.1937,1.4304,1.309,1.2238,1.3778,1.4443,1.5003,1.5706,1.5297,1.468,1.4447,1.4138,1.3269,1.0948,0.9505,0.805,0.6307,0.663,0.6347,0.4321,0.3452,0.2188,-0.0185,-0.18,-0.3307,-0.464,-0.6086,-0.7436,-0.8508,-0.9716,-1.0951,-1.2201,-1.524,-1.6348,-1.485,-1.8709,-2.175,-2.3786,-2.8122,-3.1708,-3.4579,-3.7307,-3.9271,-4.0581,-4.0357,-4.0905,-4.2026,-4.0706,-4.0407,-4.0725,-4.0133,-4.0272,-4.0872,-4.1478,-4.1731,-4.177,-4.1134,-4.0864,-4.0705,-4.0102,-3.9539,-3.9639,-4.3253,-4.4489,-4.4548,-4.5115,-4.671,-4.7938,-4.5679,-4.7586,-5.0042,-4.9006,-4.8731,-4.8737,-4.8588,-4.8301,-4.8274,-4.898,-4.9078,-4.9098,-4.9197,-5.0022,-5.057,-5.0297,-5.0752,-5.1285,-5.1542,-5.0911,-4.9995,-4.8822,-4.8283,-4.7354,-4.5719,-4.6165,-4.7003,-4.8061,-4.8418,-4.8722,-4.9045,-4.9651,-5.0217,-5.0953,-5.1421,-5.1724,-5.1813,-5.2512,-5.2215,-5.091,-5.1607,-5.1228,-5.0057,-5.1916,-5.2671,1.4195,1.4059,1.3916,1.4421,1.3178,1.2563,1.5418,1.5182,1.4755,1.6126,1.4949,1.3513,1.2904,1.0646,0.8955,0.9107,0.8237,0.6754,0.4559,0.3457,0.2102,-0.0099,-0.2011,-0.3667,-0.4802,-0.69,-0.8693,-0.9831,-1.0951,-1.2206,-1.3375,-1.5697,-1.6315,-1.4898,-1.7256,-2.0612,-2.4537,-2.6436,-2.9855,-3.4843,-3.7624,-3.9881,-4.1687,-4.0255,-4.0521,-4.1879,-3.8736,-3.7661,-3.8102,-3.7636,-3.8149,-3.9529,-4.0872,-4.1494,-4.1802,-4.142,-4.1071,-4.0737,-4.0388,-3.9744,-3.9623,-4.3599,-4.4908,-4.4796,-4.3962,-4.7362,-5.0276,-4.4512,-4.6523,-4.9962,-4.8633,-4.8223,-4.8125,-4.7754,-4.7656,-4.8005,-4.9342,-4.9603,-4.9723,-5.0125,-5.1025,-5.1388,-5.0479,-5.1116,-5.2021,-5.2877,-5.2987,-5.2135,-4.9978,-4.963,-4.8599,-4.5898,-4.6768,-4.8149,-4.9547,-5.1998,-5.2649,-5.0994,-5.0572,-5.0405,-5.0485,-5.0911,-5.1359,-5.1813,-5.1878,-5.2075,-5.2339,-5.2446,-5.2579,-5.2951,-5.3517,-5.3757,1.44,1.4049,1.3788,1.4624,1.3995,1.3997,1.6947,1.7033,1.6673,1.7683,1.7067,1.5795,1.3772,0.96,0.6937,0.8409,0.7359,0.5733,0.3716,0.312,0.1638,-0.1686,-0.2833,-0.3982,-0.5685,-0.7401,-0.881,-0.9942,-1.1172,-1.3043,-1.6092,-1.6741,-1.7384,-1.8078,-1.8336,-2.0694,-2.5354,-2.659,-2.9986,-3.5581,-3.822,-4.0254,-4.1807,-4.0857,-4.1697,-4.385,-4.0956,-4.0069,-4.0649,-4.0528,-4.0184,-3.9934,-4.0912,-4.1478,-4.1715,-4.1454,-4.1043,-4.0705,-4.0394,-3.9895,-4.0125,-4.3807,-4.4169,-4.3201,-4.3392,-4.6299,-4.8473,-4.3944,-4.615,-4.9622,-4.8515,-4.8008,-4.7773,-4.7617,-4.8007,-4.8663,-4.9552,-5.0416,-5.1174,-5.1534,-5.2458,-5.3086,-5.3015,-5.3808,-5.4556,-5.4917,-5.3735,-5.2125,-5.0497,-4.9903,-4.8922,-4.7062,-4.9237,-5.0622,-5.0243,-5.2495,-5.3083,-5.1252,-5.1722,-5.2046,-5.172,-5.2152,-5.2237,-5.1813,-5.2381,-5.2621,-5.249,-5.2796,-5.3036,-5.3211,-5.3407,-5.3647,1.4327,1.3593,1.3051,1.4261,1.4456,1.5138,1.7964,1.797,1.7808,1.9001,1.9121,1.775,1.3656,0.9963,0.7673,0.8045,0.678,0.5127,0.3198,0.2944,0.1352,-0.27,-0.325,-0.4186,-0.6291,-0.7934,-0.9147,-0.9947,-1.1512,-1.3714,-1.6826,-1.6951,-1.7593,-1.8914,-1.9744,-2.2007,-2.5967,-2.7828,-3.1297,-3.652,-3.8956,-4.0631,-4.1802,-4.1084,-4.2147,-4.4474,-4.169,-4.1156,-4.2123,-4.1866,-4.1293,-4.0724,-4.1309,-4.1613,-4.1731,-4.1344,-4.1045,-4.0743,-4.0314,-3.9897,-4.0157,-4.4008,-4.3764,-4.2262,-4.3582,-4.6018,-4.7529,-4.4151,-4.6336,-4.9472,-4.85,-4.7785,-4.7344,-4.7207,-4.7702,-4.8462,-4.9668,-5.0874,-5.191,-5.2785,-5.3857,-5.4594,-5.4662,-5.5183,-5.5639,-5.5639,-5.3661,-5.1799,-5.0568,-5.0086,-4.9663,-4.927,-5.1099,-5.2121,-5.1601,-5.3038,-5.3256,-5.1681,-5.2605,-5.2927,-5.2293,-5.273,-5.2621,-5.1813,-5.2577,-5.2883,-5.2708,-5.3211,-5.3516,-5.3669,-5.3669,-5.3844,1.3814,1.2704,1.1881,1.3536,1.4306,1.5375,1.8059,1.7768,1.7561,2.0079,2.0851,1.9021,1.2324,1.2306,1.2166,0.8562,0.6708,0.5005,0.3129,0.2862,0.1359,-0.285,-0.3276,-0.4094,-0.6346,-0.8732,-1.004,-1.0054,-1.2211,-1.413,-1.5283,-1.644,-1.6933,-1.664,-2.1208,-2.4575,-2.6397,-2.9891,-3.3715,-3.7679,-3.9891,-4.116,-4.1782,-4.0699,-4.1407,-4.3309,-4.0224,-3.9969,-4.1585,-4.0623,-4.0805,-4.1652,-4.1927,-4.1968,-4.1731,-4.1108,-4.0856,-4.0669,-4.0016,-3.9491,-3.9816,-4.4349,-4.4035,-4.2358,-4.4323,-4.6784,-4.8123,-4.5133,-4.6911,-4.9482,-4.8504,-4.7603,-4.6816,-4.6406,-4.6308,-4.7157,-4.9955,-5.0866,-5.1825,-5.3539,-5.5133,-5.5843,-5.493,-5.4634,-5.4613,-5.4613,-5.2927,-5.1372,-5.0448,-5.0346,-5.0978,-5.2418,-5.2102,-5.2366,-5.3822,-5.3931,-5.3516,-5.2555,-5.2948,-5.2774,-5.1834,-5.2249,-5.2271,-5.1813,-5.2249,-5.273,-5.3211,-5.3713,-5.4194,-5.4741,-5.4741,-5.4741,1.5159,1.515,1.5214,1.5433,1.6381,1.754,1.8736,1.869,1.8639,1.9606,1.7355,1.4786,1.3303,1.0052,0.7584,0.7925,0.6708,0.5005,0.3129,0.2862,0.1356,-0.2724,-0.3262,-0.4299,-0.6857,-0.8939,-1.0278,-1.0665,-1.4325,-1.7559,-1.9839,-2.1699,-2.2791,-2.2709,-2.5134,-2.6858,-2.7829,-3.0683,-3.4321,-3.8762,-4.0396,-4.1037,-4.0638,-4.0841,-4.1895,-4.3413,-4.143,-4.1182,-4.2052,-4.0545,-4.0834,-4.2067,-4.1432,-4.1731,-4.2339,-4.1731,-4.123,-4.0748,-4.0582,-4.1244,-4.2271,-4.3329,-4.3163,-4.2543,-4.2802,-4.4418,-4.5849,-4.4643,-4.6684,-4.917,-4.8871,-4.7908,-4.6982,-4.7201,-4.858,-5.0052,-5.1131,-5.314,-5.4843,-5.5314,-5.6087,-5.6614,-5.6664,-5.6057,-5.5371,-5.4731,-5.292,-5.1625,-5.14,-5.2277,-5.3199,-5.4036,-5.4255,-5.4256,-5.3888,-5.3931,-5.3516,-5.2555,-5.2621,-5.2424,-5.1834,-5.2249,-5.2271,-5.1813,-5.2599,-5.3058,-5.3211,-5.4041,-5.4521,-5.4741,-5.4741,-5.4475,1.507,1.5224,1.5519,1.653,1.7631,1.8727,1.9888,1.9506,1.8893,1.8654,1.6263,1.3781,1.2767,0.96,0.7129,0.7101,0.6369,0.5031,0.3131,0.2966,0.1362,-0.2729,-0.3265,-0.4515,-0.7541,-0.9184,-1.0408,-1.1286,-1.5469,-1.897,-2.1388,-2.3324,-2.476,-2.5532,-2.7612,-2.8924,-2.903,-3.2555,-3.5857,-3.8902,-4.0264,-4.0826,-4.0585,-4.1643,-4.2603,-4.3284,-4.2393,-4.2072,-4.2112,-4.113,-4.1368,-4.2345,-4.1622,-4.1942,-4.2593,-4.1849,-4.1309,-4.0809,-4.0665,-4.1752,-4.3054,-4.2867,-4.2794,-4.2816,-4.3305,-4.4347,-4.5397,-4.5941,-4.7641,-4.9308,-4.9268,-4.825,-4.7481,-4.8113,-4.9349,-5.0692,-5.2019,-5.3863,-5.5329,-5.5748,-5.6197,-5.6422,-5.6328,-5.543,-5.4663,-5.4048,-5.2842,-5.2104,-5.2554,-5.3394,-5.4251,-5.5153,-5.5329,-5.5155,-5.4565,-5.4696,-5.4215,-5.2861,-5.3123,-5.297,-5.2097,-5.2337,-5.2359,-5.2075,-5.3014,-5.3321,-5.2952,-5.4084,-5.4477,-5.4104,-5.4565,-5.4387,1.437,1.4102,1.4342,1.7197,1.8286,1.9154,2.1122,2.0074,1.8446,1.7805,1.6597,1.4561,1.1145,1.0121,0.8836,0.6111,0.5796,0.516,0.3142,0.2986,0.1473,-0.2755,-0.328,-0.4642,-0.8291,-0.9566,-1.0761,-1.2354,-1.624,-1.9505,-2.1509,-2.3237,-2.484,-2.627,-2.9436,-3.0806,-3.0228,-3.5198,-3.7968,-3.8585,-3.9961,-4.0763,-4.1162,-4.257,-4.3027,-4.2752,-4.3038,-4.2609,-4.1862,-4.1879,-4.209,-4.2288,-4.2242,-4.2425,-4.2593,-4.1715,-4.1108,-4.0802,-4.0403,-4.1586,-4.3015,-4.2663,-4.284,-4.3426,-4.5046,-4.5647,-4.6186,-4.8204,-4.9207,-4.9689,-4.9684,-4.8783,-4.8098,-4.9017,-4.9277,-5.0061,-5.2756,-5.3818,-5.4507,-5.5244,-5.577,-5.5786,-5.4841,-5.3815,-5.3124,-5.2927,-5.2654,-5.2866,-5.3805,-5.4111,-5.4684,-5.5981,-5.5744,-5.5482,-5.5395,-5.5788,-5.5264,-5.3385,-5.4106,-5.3975,-5.2599,-5.2555,-5.2533,-5.2405,-5.3364,-5.3343,-5.2412,-5.3909,-5.4169,-5.3318,-5.4148,-5.4255,1.658,1.7021,1.7703,1.8942,1.9755,2.0453,2.0731,1.9328,1.8168,1.8749,1.4944,1.1288,1.0581,0.7816,0.5673,0.5713,0.5823,0.5094,0.3198,0.3028,0.1389,-0.2781,-0.3311,-0.4894,-0.8896,-0.9862,-1.1727,-1.5344,-1.9507,-2.3102,-2.5758,-2.9256,-3.0871,-3.022,-3.333,-3.4375,-3.2711,-3.6251,-3.8645,-4.0023,-4.0598,-4.1289,-4.1961,-4.1398,-4.0911,-4.0668,-4.2047,-4.2078,-4.1276,-4.0935,-4.1209,-4.174,-4.1763,-4.2173,-4.2593,-4.1968,-4.136,-4.0825,-4.0764,-4.312,-4.552,-4.1689,-4.3043,-4.5855,-4.4032,-4.4517,-4.6167,-4.7829,-4.8966,-4.9717,-4.9758,-4.9559,-4.9553,-5.0864,-5.1486,-5.2261,-5.393,-5.5601,-5.6685,-5.6478,-5.6816,-5.6868,-5.5885,-5.4801,-5.378,-5.2575,-5.3337,-5.4224,-5.438,-5.5813,-5.6539,-5.6181,-5.6334,-5.6181,-5.5439,-5.5482,-5.5045,-5.3866,-5.3975,-5.3779,-5.308,-5.3058,-5.2712,-5.2001,-5.2909,-5.2886,-5.1978,-5.3027,-5.3455,-5.3259,-5.307,-5.2868,1.6704,1.7269,1.814,1.9845,2.0863,2.1373,2.1502,1.9961,1.8693,1.9141,1.4197,0.9856,1.025,0.6898,0.4259,0.5025,0.5446,0.487,0.2853,0.2876,0.1411,-0.293,-0.3887,-0.5823,-0.9733,-1.0793,-1.3073,-1.7561,-2.1151,-2.4823,-2.879,-3.099,-3.2531,-3.3594,-3.4551,-3.4939,-3.4666,-3.7558,-3.9356,-4.0085,-4.0651,-4.1155,-4.1649,-4.1706,-4.1461,-4.1235,-4.2064,-4.1651,-4.0465,-4.0692,-4.1144,-4.1624,-4.1742,-4.2147,-4.2593,-4.1849,-4.1242,-4.0912,-4.1936,-4.4389,-4.6494,-4.269,-4.4735,-4.7988,-4.5141,-4.5644,-4.7572,-4.9085,-4.9824,-5.0025,-4.987,-4.9931,-5.0378,-5.1776,-5.2706,-5.3644,-5.5238,-5.6021,-5.6382,-5.6043,-5.5689,-5.5042,-5.3991,-5.3801,-5.3706,-5.3365,-5.4445,-5.5472,-5.5942,-5.6837,-5.7339,-5.6837,-5.7011,-5.6858,-5.6116,-5.6269,-5.5897,-5.4718,-5.4849,-5.4564,-5.3582,-5.3539,-5.3235,-5.2499,-5.2925,-5.2595,-5.1456,-5.2584,-5.2818,-5.2195,-5.2439,-5.2517,1.638,1.7001,1.7947,2.0359,2.1409,2.191,2.2481,2.0972,1.9433,1.9313,1.4084,0.9599,1.0007,0.6603,0.3905,0.4395,0.4941,0.4528,0.2495,0.2618,0.1333,-0.2976,-0.4586,-0.6674,-1.0372,-1.1627,-1.4422,-1.966,-2.2023,-2.5696,-3.1341,-3.1096,-3.2533,-3.6283,-3.4795,-3.472,-3.6396,-3.8766,-3.991,-3.9785,-4.0775,-4.1242,-4.1331,-4.2673,-4.2965,-4.2101,-4.231,-4.1407,-3.9995,-4.0805,-4.1324,-4.1634,-4.1996,-4.2237,-4.2458,-4.1613,-4.1085,-4.1091,-4.3265,-4.5319,-4.6707,-4.4183,-4.6229,-4.9082,-4.6603,-4.6983,-4.8698,-5.055,-5.0826,-5.0414,-5.0092,-5.0273,-5.0905,-5.2356,-5.3332,-5.4404,-5.6317,-5.6042,-5.5435,-5.5386,-5.4201,-5.2942,-5.2122,-5.2832,-5.3747,-5.4589,-5.5574,-5.658,-5.7399,-5.7514,-5.7514,-5.7514,-5.7514,-5.7361,-5.6946,-5.7295,-5.6989,-5.5701,-5.6007,-5.5517,-5.4094,-5.3962,-5.3679,-5.3204,-5.3149,-5.2449,-5.1144,-5.2276,-5.2297,-5.1249,-5.1769,-5.217,1.7896,1.8959,2.0005,2.0744,2.1051,2.149,2.2142,2.0844,1.959,1.9809,1.4759,1.0362,1.0185,0.6565,0.3882,0.4526,0.4645,0.412,0.2537,0.2348,0.0932,-0.3004,-0.4521,-0.6718,-1.0372,-1.1627,-1.5102,-2.1992,-2.2832,-2.6243,-3.3772,-3.2584,-3.351,-3.7651,-3.5949,-3.5986,-3.819,-3.9509,-4.0119,-4.0117,-4.215,-4.2857,-4.2416,-4.411,-4.3386,-4.1118,-4.1965,-4.1634,-4.0465,-4.0935,-4.1289,-4.1633,-4.199,-4.1984,-4.1849,-4.1478,-4.1087,-4.1081,-4.3271,-4.5362,-4.6676,-4.4156,-4.5233,-4.7317,-4.6131,-4.5964,-4.6878,-5.0176,-5.1031,-5.098,-5.0931,-5.0932,-5.1441,-5.3229,-5.3794,-5.4413,-5.6308,-5.6639,-5.6403,-5.5943,-5.5027,-5.4216,-5.4098,-5.4926,-5.5613,-5.5821,-5.6667,-5.7377,-5.7514,-5.7514,-5.7514,-5.7514,-5.7514,-5.7492,-5.7426,-5.7492,-5.7273,-5.664,-5.6662,-5.6108,-5.4611,-5.4187,-5.3693,-5.3198,-5.2771,-5.2061,-5.1114,-5.1328,-5.1515,-5.1674,-5.0642,-5.0788,1.8319,1.9704,2.0825,2.121,2.1668,2.198,2.222,2.1315,2.0379,1.9997,1.5845,1.1951,1.0713,0.6818,0.3902,0.4253,0.428,0.3825,0.257,0.176,0.0105,-0.3142,-0.5778,-0.8233,-1.0456,-1.3455,-1.7473,-2.3131,-2.4421,-2.8016,-3.5028,-3.3742,-3.4482,-3.8251,-3.6729,-3.68,-3.8529,-4.0119,-4.0887,-4.0907,-4.2723,-4.3008,-4.2267,-4.4228,-4.3875,-4.1734,-4.254,-4.1879,-4.0448,-4.1127,-4.1439,-4.1478,-4.1849,-4.1849,-4.1731,-4.1226,-4.096,-4.1276,-4.463,-4.6392,-4.6907,-4.5811,-4.7762,-4.9928,-4.6796,-4.7391,-4.9433,-5.0721,-5.1129,-5.1078,-5.1092,-5.1659,-5.2637,-5.4346,-5.463,-5.5134,-5.6753,-5.6068,-5.4915,-5.4445,-5.4372,-5.4508,-5.4497,-5.5313,-5.6013,-5.5991,-5.6868,-5.7514,-5.7514,-5.7514,-5.7514,-5.7514,-5.7514,-5.7514,-5.7514,-5.7514,-5.7426,-5.723,-5.6669,-5.5976,-5.5108,-5.4259,-5.3675,-5.3236,-5.2778,-5.2263,-5.1895,-5.2143,-5.2102,-5.1791,-5.1439,-5.1605,1.832,1.952,2.0662,2.1184,2.163,2.1895,2.2031,2.1597,2.0844,1.9621,1.6263,1.2968,1.089,0.7021,0.4083,0.3828,0.3859,0.3482,0.2382,0.146,-0.0212,-0.3269,-0.6472,-0.9272,-1.115,-1.5035,-1.9465,-2.4152,-2.5513,-2.9071,-3.565,-3.3837,-3.4406,-3.841,-3.6942,-3.681,-3.8529,-4.0413,-4.1573,-4.2017,-4.3157,-4.3149,-4.2283,-4.3993,-4.3909,-4.255,-4.2953,-4.2094,-4.0506,-4.1245,-4.1467,-4.1581,-4.2302,-4.2249,-4.1818,-4.1643,-4.1712,-4.2235,-4.5859,-4.7428,-4.7837,-4.7837,-4.99,-5.1514,-4.7729,-4.8701,-5.1174,-5.168,-5.1715,-5.1769,-5.2193,-5.2736,-5.3646,-5.5174,-5.5134,-5.5097,-5.6425,-5.5374,-5.4011,-5.3434,-5.4201,-5.4832,-5.4884,-5.5744,-5.6393,-5.6371,-5.7048,-5.7514,-5.7514,-5.7514,-5.7514,-5.7514,-5.7514,-5.7514,-5.7514,-5.7514,-5.7514,-5.7514,-5.6723,-5.6021,-5.5315,-5.4533,-5.3809,-5.3344,-5.3013,-5.2785,-5.2661,-5.2888,-5.264,-5.1978,-5.2205,-5.2371,1.797,1.8359,1.9143,2.0411,2.0348,2.0251,2.1529,2.1519,2.0565,1.8293,1.5591,1.2727,0.9827,0.6762,0.4348,0.3421,0.3231,0.2846,0.1759,0.1557,0.0315,-0.3158,-0.5765,-0.8821,-1.2563,-1.5579,-1.9777,-2.5672,-2.5305,-2.8181,-3.5636,-3.2311,-3.2783,-3.8306,-3.6176,-3.6045,-3.8529,-4.0199,-4.1853,-4.3436,-4.3982,-4.3955,-4.3372,-4.3739,-4.354,-4.2998,-4.3003,-4.2311,-4.1116,-4.1234,-4.1636,-4.2243,-4.4074,-4.3574,-4.2006,-4.3289,-4.4043,-4.4535,-4.647,-4.833,-4.9934,-4.9934,-4.9866,-4.9527,-4.8835,-4.8831,-4.9683,-5.2981,-5.3483,-5.3539,-5.5269,-5.4456,-5.3648,-5.5512,-5.4556,-5.3583,-5.4494,-5.4915,-5.501,-5.4557,-5.5198,-5.5957,-5.5974,-5.6767,-5.7421,-5.7421,-5.7421,-5.7514,-5.7514,-5.7514,-5.7514,-5.7514,-5.7514,-5.7514,-5.7514,-5.7514,-5.7514,-5.7514,-5.7048,-5.6365,-5.5336,-5.4849,-5.4289,-5.382,-5.3684,-5.3571,-5.3137,-5.2723,-5.2495,-5.2454,-5.204,-5.206,1.7228,1.7697,1.8402,1.8787,1.9067,1.9514,2.0076,2.0774,2.063,1.8464,1.6464,1.4021,1.0777,0.7172,0.4445,0.3825,0.3433,0.2934,0.224,0.052,-0.1382,-0.3364,-0.7,-1.0332,-1.2897,-1.6537,-2.0578,-2.4816,-2.6396,-2.9408,-3.4597,-3.3967,-3.4937,-3.8391,-3.7685,-3.8235,-4.0585,-4.0865,-4.1863,-4.3502,-4.3991,-4.3724,-4.2641,-4.3438,-4.3206,-4.2121,-4.2739,-4.2501,-4.1761,-4.1786,-4.2102,-4.2544,-4.2795,-4.2468,-4.1826,-4.1893,-4.3017,-4.4728,-4.6462,-4.8461,-5.0139,-5.0497,-5.1101,-5.1585,-4.9748,-5.0601,-5.234,-5.3645,-5.4026,-5.4412,-5.5644,-5.5976,-5.622,-5.7156,-5.6932,-5.623,-5.5545,-5.5796,-5.6115,-5.5915,-5.6787,-5.7402,-5.6998,-5.7234,-5.7514,-5.7514,-5.7514,-5.7514,-5.7514,-5.7514,-5.7514,-5.7514,-5.7514,-5.7514,-5.7514,-5.7514,-5.7349,-5.7069,-5.6602,-5.5953,-5.5335,-5.4863,-5.4485,-5.4296,-5.4296,-5.4213,-5.4048,-5.3882,-5.3509,-5.295,-5.3364,-5.3344,1.643,1.6698,1.7156,1.7611,1.7934,1.8411,1.9272,2.0269,2.0271,1.7397,1.6255,1.4523,1.0451,0.7403,0.5191,0.4324,0.3635,0.2932,0.2234,0.0104,-0.192,-0.3474,-0.7864,-1.1627,-1.371,-1.7932,-2.194,-2.536,-2.725,-3.0165,-3.453,-3.4108,-3.4834,-3.7342,-3.808,-3.9463,-4.151,-4.1312,-4.2061,-4.3757,-4.4363,-4.3892,-4.2708,-4.3272,-4.2907,-4.1774,-4.2449,-4.2425,-4.2152,-4.2211,-4.2905,-4.3635,-4.306,-4.2885,-4.2874,-4.3023,-4.4188,-4.6035,-4.7697,-4.9541,-5.1162,-5.1683,-5.219,-5.2504,-5.1372,-5.2011,-5.3469,-5.4784,-5.5063,-5.5158,-5.6621,-5.7267,-5.7516,-5.7625,-5.7858,-5.7753,-5.7031,-5.708,-5.7197,-5.6973,-5.7841,-5.8409,-5.806,-5.7885,-5.7776,-5.7776,-5.7645,-5.7514,-5.7514,-5.7514,-5.7514,-5.7514,-5.7514,-5.7442,-5.7256,-5.7256,-5.7069,-5.6602,-5.6038,-5.5661,-5.5304,-5.483,-5.4544,-5.4544,-5.4544,-5.4544,-5.4544,-5.4544,-5.4151,-5.3427,-5.4192,-5.4213,0.0,0.0,0.0,1.7002,1.6898,1.6887,1.8912,2.0125,1.9536,1.4898,1.4759,1.392,0.8668,0.7278,0.6455,0.5011,0.3934,0.2839,0.1746,0.0521,-0.1063,-0.3378,-0.8239,-1.2419,-1.5183,-1.9659,-2.3889,-2.7386,-2.7844,-3.0208,-3.5351,-3.2784,-3.2422,-3.5164,-3.7382,-3.9256,-4.0996,-4.151,-4.2587,-4.4262,-4.4767,-4.4563,-4.3723,-4.3223,-4.2637,-4.2101,-4.2101,-4.2162,-4.2217,-4.2587,-4.4026,-4.5722,-4.532,-4.5119,-4.5269,-4.7031,-4.7925,-4.8515,-5.0282,-5.1912,-5.3282,-5.3716,-5.295,-5.2117,-5.3533,-5.3002,-5.2764,-5.644,-5.6553,-5.6083,-5.836,-5.8188,-5.7345,-5.6875,-5.7174,-5.7785,-5.874,-5.8557,-5.8138,-5.7656,-5.8308,-5.8977,-5.8977,-5.8606,-5.83,-5.83,-5.7863,-5.7536,-5.7536,-5.7536,-5.7514,-5.7514,-5.7514,-5.7349,-5.6883,-5.6789,-5.6602,-5.6038,-5.5567,-5.5304,-5.5304,-5.483,-5.4544,-5.4544,-5.4544,-5.4544,-5.4544,-5.4544,-5.4296,-5.3767,-5.4296,-5.4524,1.4646,0.0,0.0,0.0,0.0,0.0,1.7005,1.8238,1.8151,1.4516,1.4433,1.3647,0.9439,0.7904,0.6963,0.5896,0.4957,0.3758,0.2272,0.0,-0.2047,-0.3365,-0.879,-1.3212,-1.5176,-1.919,-2.3171,-2.6881,-2.7642,-2.9995,-3.4818,-3.6163,-3.6661,-3.6439,-3.78,-3.9152,-4.0394,-4.1305,-4.2415,-4.3738,-4.3873,-4.354,-4.2725,-4.2104,-4.1585,-4.1144,-4.1803,-4.3087,-4.4783,-4.4918,-4.532,-4.5905,-4.6904,-4.7284,-4.7347,-4.7619,-4.9098,-5.1076,-5.1339,-5.2661,-5.4299,-5.4759,-5.4143,-5.3488,-5.4612,-5.5101,-5.5678,-5.751,-5.8323,-5.8729,-5.9758,-5.8934,-5.8116,-5.862,-5.8911,-5.9073,-5.9398,-5.9626,-5.9625,-5.9181,-5.9309,-5.9392,-5.9021,-5.8868,-5.8781,-5.8781,-5.8387,-5.8082,-5.8082,-5.7754,-5.7514,-5.7514,-5.7514,-5.7349,-5.6883,-5.6789,-5.6414,-5.5588,-5.5399,-5.5114,-5.4735,-5.4544,-5.4544,-5.4544,-5.4544,-5.4544,-5.4544,-5.4544,-5.4296,-5.384,-5.3985,-5.4379,0.0,0.0,0.0,1.41,0.0,0.0,1.7008,1.764,1.7221,1.488,1.4373,1.3284,0.9701,0.8481,0.7827,0.7173,0.6254,0.489,0.2945,0.0418,-0.1705,-0.278,-0.9032,-1.3696,-1.5129,-1.9695,-2.3574,-2.6221,-2.7282,-2.9437,-3.3041,-3.6463,-3.7532,-3.6051,-3.7624,-3.8945,-3.9877,-4.1202,-4.2227,-4.3162,-4.2998,-4.282,-4.2641,-4.1532,-4.1484,-4.2393,-4.3256,-4.4813,-4.6904,-4.7996,-4.8509,-4.841,-4.7302,-4.7978,-4.9437,-4.8312,-4.9736,-5.2178,-5.263,-5.3587,-5.4674,-5.5419,-5.4654,-5.3872,-5.5899,-5.6203,-5.6278,-5.83,-5.9431,-6.0065,-6.0306,-5.968,-5.9118,-5.9462,-5.9908,-6.0299,-6.0299,-6.0299,-6.0332,-6.0048,-6.0004,-5.982,-5.9321,-5.9318,-5.9187,-5.8973,-5.862,-5.8184,-5.7995,-5.756,-5.7256,-5.7256,-5.7256,-5.7069,-5.6789,-5.6602,-5.6132,-5.5399,-5.5114,-5.483,-5.4544,-5.4544,-5.4544,-5.4544,-5.4544,-5.4544,-5.4544,-5.4544,-5.4399,-5.413,-5.413,-5.442,0.0,0.0,0.0,0.0,1.4088,0.0,1.7721,1.7533,1.6444,1.5329,1.4358,1.2765,0.9698,0.8993,0.8762,0.8458,0.7501,0.5966,0.3556,0.1323,-0.0624,-0.1887,-0.8787,-1.3885,-1.5181,-2.0402,-2.4336,-2.5579,-2.7091,-2.8921,-3.0894,-3.4992,-3.6459,-3.4854,-3.7211,-3.8751,-3.9256,-4.0996,-4.2022,-4.2533,-4.2162,-4.2302,-4.2754,-4.141,-4.2069,-4.4354,-4.5548,-4.7004,-4.8768,-5.1173,-5.2085,-5.1697,-4.76,-4.8373,-5.1541,-4.9573,-5.0434,-5.268,-5.4122,-5.4654,-5.4831,-5.5607,-5.4831,-5.4036,-5.7185,-5.6688,-5.576,-5.9001,-6.011,-6.03,-6.0475,-6.0361,-6.0202,-5.9755,-6.0441,-6.1198,-6.1132,-6.0765,-6.0397,-6.0223,-6.0245,-6.0125,-5.9635,-5.9659,-5.9592,-5.9085,-5.8669,-5.8177,-5.7682,-5.7207,-5.6883,-5.6883,-5.6883,-5.6789,-5.6695,-5.632,-5.5755,-5.5209,-5.4735,-5.4544,-5.4544,-5.4544,-5.4544,-5.4544,-5.4544,-5.4544,-5.4544,-5.4544,-5.4565,-5.4606,-5.4565,-5.4544,1.396,0.0,1.3505,1.3824,1.3931,0.0,1.5267,1.55,1.5117,1.3961,1.3153,1.2051,1.0283,0.9188,0.8384,0.7645,0.6603,0.5334,0.3934,0.1834,-0.0311,-0.2286,-0.815,-1.2802,-1.4793,-1.9519,-2.3286,-2.5346,-2.8704,-3.0784,-3.101,-3.4792,-3.6356,-3.4854,-3.7211,-3.8529,-3.8633,-4.0791,-4.1802,-4.1904,-4.1233,-4.1059,-4.1596,-4.1734,-4.2322,-4.3323,-4.641,-4.8866,-5.0842,-5.1348,-5.1561,-5.1658,-5.2354,-5.3144,-5.3835,-5.3432,-5.3815,-5.4693,-5.4999,-5.5146,-5.5178,-5.5357,-5.544,-5.5783,-5.7224,-5.785,-5.8606,-6.0912,-6.0716,-6.001,-6.083,-6.0407,-5.982,-6.0156,-6.0703,-6.1092,-6.0673,-6.0492,-6.0104,-5.9327,-5.9481,-5.9635,-5.9023,-5.9647,-6.0093,-5.9582,-5.9169,-5.8824,-5.8729,-5.7872,-5.7349,-5.7349,-5.7349,-5.7069,-5.6226,-5.6038,-5.5661,-5.4714,-5.4544,-5.4544,-5.4544,-5.4544,-5.4544,-5.4544,-5.4544,-5.4544,-5.4544,-5.4544,-5.471,-5.5041,-5.4689,-5.4544,1.4146,1.3819,1.3698,1.3701,1.3809,0.0,0.0,1.4966,1.4449,1.4346,1.2889,1.1278,1.038,0.9242,0.8169,0.7582,0.6886,0.5978,0.4629,0.2488,0.0609,-0.0507,-0.6678,-1.1738,-1.3968,-1.8942,-2.3109,-2.5984,-2.808,-2.9687,-3.0509,-3.3408,-3.4921,-3.4626,-3.6621,-3.8008,-3.8543,-4.0378,-4.1313,-4.114,-4.1831,-4.2555,-4.3273,-4.3805,-4.5166,-4.7157,-4.897,-5.0959,-5.2932,-5.2932,-5.2932,-5.2932,-5.2932,-5.3644,-5.4333,-5.3336,-5.3767,-5.4989,-5.4936,-5.4947,-5.4989,-5.5503,-5.585,-5.6299,-5.7771,-5.8971,-5.9953,-6.0968,-6.0826,-6.0521,-6.1089,-6.0818,-6.0419,-6.0419,-6.0768,-6.1079,-6.0554,-6.0395,-6.018,-5.9352,-5.9395,-5.9417,-5.8924,-5.9733,-6.0223,-5.9733,-5.9299,-5.886,-5.8669,-5.7749,-5.7163,-5.7163,-5.6883,-5.6695,-5.6414,-5.5944,-5.5472,-5.4925,-5.4639,-5.4544,-5.4544,-5.4544,-5.4544,-5.4544,-5.4544,-5.4544,-5.4544,-5.4544,-5.4524,-5.4503,-5.4068,-5.3861,1.4349,1.4094,1.3865,1.3638,1.3749,1.4256,0.0,0.0,0.0,1.4622,1.2611,1.0557,1.0175,0.9102,0.8122,0.7809,0.7245,0.6509,0.5259,0.3086,0.152,0.1147,-0.4865,-1.0092,-1.2733,-1.797,-2.2793,-2.6578,-2.667,-2.7548,-3.01,-3.1937,-3.3395,-3.4412,-3.6017,-3.7382,-3.8543,-4.0084,-4.0723,-4.0482,-4.2539,-4.3939,-4.4769,-4.6083,-4.8243,-5.0842,-5.1638,-5.2932,-5.4544,-5.4544,-5.4544,-5.4333,-5.2644,-5.3028,-5.4333,-5.2543,-5.3012,-5.4592,-5.4411,-5.4497,-5.4706,-5.5723,-5.6226,-5.6767,-5.851,-5.9543,-6.0273,-6.0422,-6.0732,-6.0948,-6.1141,-6.1088,-6.0938,-6.0636,-6.0907,-6.1035,-6.0363,-6.0353,-6.018,-5.9419,-5.9407,-5.9297,-5.862,-5.957,-6.006,-5.918,-5.888,-5.8647,-5.7965,-5.7212,-5.6602,-5.6602,-5.6226,-5.6132,-5.6508,-5.5777,-5.5304,-5.5114,-5.4735,-5.4544,-5.4544,-5.4544,-5.4544,-5.4544,-5.4544,-5.4544,-5.4544,-5.4441,-5.4213,-5.3746,-5.3489,-5.324,1.4695,1.4087,1.3904,1.3857,1.3882,1.4014,1.4425,0.0,1.2897,1.2949,0.0,0.9918,0.9837,0.0,0.0,0.7815,0.6591,0.5689,0.5773,0.3542,0.1646,0.0735,-0.33,-0.7372,-1.0767,-1.6097,-2.1431,-2.6493,-2.5548,-2.636,-3.004,-3.1865,-3.3304,-3.4398,-3.6017,-3.7382,-3.8543,-3.967,-4.0328,-4.0482,-4.2221,-4.2823,-4.2571,-4.693,-4.8809,-4.8712,-5.2527,-5.4238,-5.4544,-5.4544,-5.4544,-5.4449,-5.4238,-5.4333,-5.4387,-5.3785,-5.3962,-5.4399,-5.4048,-5.4151,-5.4652,-5.564,-5.6883,-5.8185,-5.8831,-5.9107,-5.9332,-6.027,-6.0189,-6.0061,-6.0941,-6.0841,-6.0636,-6.1007,-6.1127,-6.0899,-5.9954,-6.0023,-6.0004,-5.8465,-5.8564,-5.8599,-5.7705,-5.9159,-5.9648,-5.733,-5.7774,-5.7944,-5.7016,-5.6431,-5.6132,-5.6132,-5.6038,-5.585,-5.5472,-5.5399,-5.5114,-5.4639,-5.4544,-5.4544,-5.4544,-5.4544,-5.4544,-5.4544,-5.4544,-5.4544,-5.4544,-5.413,-5.3903,-5.384,-5.3799,-5.354,1.5725,1.5747,1.5433,1.3947,1.3599,1.3385,1.2569,1.2106,1.1853,1.1853,0.0,0.0,0.0,0.0,0.0,0.0,0.6965,0.6155,0.541,0.4323,0.3127,0.2006,-0.1727,-0.6336,-1.1688,-1.6074,-2.0277,-2.4457,-2.4214,-2.5406,-2.9081,-3.0799,-3.2542,-3.4295,-3.5392,-3.674,-3.8439,-3.9359,-4.0399,-4.1835,-4.4325,-4.6098,-4.7296,-5.0745,-5.2136,-5.1929,-5.374,-5.4544,-5.4544,-5.4544,-5.4544,-5.4544,-5.4544,-5.4544,-5.4482,-5.4006,-5.3611,-5.3361,-5.3726,-5.3611,-5.3632,-5.5753,-5.7069,-5.7907,-5.8463,-5.8739,-5.9125,-5.9545,-5.9709,-5.9879,-6.0545,-6.0592,-6.0441,-6.0702,-6.0724,-6.0528,-5.9764,-5.9786,-5.97,-5.9091,-5.8839,-5.8578,-5.7915,-5.8489,-5.8684,-5.7694,-5.7453,-5.7218,-5.6719,-5.6293,-5.6038,-5.6038,-5.5755,-5.5472,-5.5304,-5.502,-5.4735,-5.4544,-5.4544,-5.4544,-5.4544,-5.4544,-5.4544,-5.4544,-5.4544,-5.4684,-5.4978,-5.4768,-5.4482,-5.4253,-5.3734,-5.3533,1.6032,1.6247,1.5809,1.3748,1.3122,1.2717,1.1479,1.0992,1.082,1.082,0.9877,0.0,0.0,0.0,0.0,0.0,0.0,0.6476,0.5031,0.4519,0.3952,0.2855,-0.1013,-0.5945,-1.1757,-1.4822,-1.8189,-2.234,-2.2766,-2.4549,-2.8641,-3.0181,-3.2128,-3.4501,-3.4961,-3.6216,-3.8439,-3.927,-4.07,-4.2807,-4.607,-4.8648,-5.0454,-5.3249,-5.4354,-5.4047,-5.4354,-5.4544,-5.4544,-5.4544,-5.4544,-5.4544,-5.4544,-5.4428,-5.4271,-5.3788,-5.3238,-5.2874,-5.3238,-5.3405,-5.38,-5.6085,-5.7256,-5.7814,-5.8,-5.8278,-5.864,-5.873,-5.9146,-5.9614,-6.0145,-6.0222,-6.0222,-6.0006,-6.0016,-5.9744,-5.8859,-5.8955,-5.9085,-5.8729,-5.837,-5.814,-5.78,-5.794,-5.794,-5.7373,-5.6856,-5.6369,-5.6147,-5.5757,-5.5567,-5.5567,-5.5283,-5.5114,-5.5114,-5.4735,-5.4639,-5.4904,-5.4619,-5.4639,-5.4904,-5.4619,-5.4544,-5.4544,-5.4589,-5.4926,-5.5315,-5.528,-5.5178,-5.5014,-5.4011,-5.3687,1.4969,1.456,1.4081,1.3082,1.2461,1.2067,1.1819,1.0785,0.9825,0.9825,0.8887,0.8031,0.8045,0.0,0.0,0.0,0.0,0.0,0.0,0.395,0.3213,0.2686,-0.1806,-0.617,-0.9619,-1.1327,-1.4742,-2.0868,-2.1351,-2.3688,-2.91,-3.0399,-3.2232,-3.5116,-3.517,-3.6216,-3.8439,-3.9734,-4.116,-4.2807,-4.661,-4.8697,-4.951,-5.2963,-5.3951,-5.3089,-5.4047,-5.4544,-5.4544,-5.4544,-5.4544,-5.4544,-5.4544,-5.4238,-5.3754,-5.3343,-5.3455,-5.3597,-5.2719,-5.3997,-5.5953,-5.658,-5.7442,-5.8185,-5.7722,-5.7536,-5.7645,-5.8169,-5.8628,-5.9086,-5.9589,-5.972,-5.9601,-5.9053,-5.9017,-5.856,-5.6507,-5.723,-5.7795,-5.6389,-5.6471,-5.6786,-5.6765,-5.7534,-5.7415,-5.5545,-5.5688,-5.5712,-5.4702,-5.4544,-5.4544,-5.4544,-5.4544,-5.4544,-5.4544,-5.4544,-5.4904,-5.5944,-5.4999,-5.4904,-5.5944,-5.4999,-5.4544,-5.4544,-5.503,-5.5243,-5.5315,-5.5328,-5.5492,-5.5976,-5.5014,-5.4302,1.2224,1.2285,1.2442,1.1478,1.0971,1.0651,1.056,0.9766,0.9053,0.8945,0.8461,0.7988,0.7988,0.0,0.0,0.0,0.0,0.0,0.0,0.3176,0.2188,0.239,-0.2356,-0.5841,-0.6529,-1.0574,-1.4711,-1.8399,-2.0605,-2.3467,-2.7302,-2.8906,-3.1012,-3.3974,-3.467,-3.5919,-3.7904,-3.9631,-4.2049,-4.5227,-4.7405,-4.9895,-5.2751,-5.3965,-5.4333,-5.4047,-5.4354,-5.4544,-5.4544,-5.4544,-5.4544,-5.4544,-5.4544,-5.4805,-5.5088,-5.3991,-5.3188,-5.2836,-5.3107,-5.4234,-5.5713,-5.6508,-5.7256,-5.7656,-5.7142,-5.7273,-5.7557,-5.7732,-5.8147,-5.8628,-5.9086,-5.9218,-5.9122,-5.8598,-5.8443,-5.8264,-5.7194,-5.6855,-5.6833,-5.7004,-5.6272,-5.5904,-5.6605,-5.6424,-5.5925,-5.5324,-5.5129,-5.4996,-5.504,-5.502,-5.502,-5.502,-5.502,-5.4925,-5.4544,-5.4544,-5.4619,-5.4999,-5.4714,-5.4619,-5.4999,-5.4989,-5.5039,-5.5078,-5.5458,-5.5959,-5.6209,-5.625,-5.6372,-5.6549,-5.6197,-5.5601,1.0684,1.0626,1.0727,0.9714,0.9062,0.8848,0.9159,0.88,0.8301,0.7991,0.8111,0.7884,0.676,0.7279,0.0,0.0,0.0,0.0,0.0,0.2447,0.1161,0.1695,-0.2225,-0.5108,-0.5558,-0.9348,-1.3239,-1.6735,-1.9308,-2.222,-2.5679,-2.7795,-3.022,-3.3159,-3.4056,-3.5338,-3.7211,-3.9536,-4.2688,-4.6516,-4.8211,-5.0916,-5.4544,-5.4544,-5.4544,-5.4544,-5.4544,-5.4428,-5.4238,-5.4238,-5.4245,-5.4197,-5.4581,-5.5041,-5.5255,-5.4156,-5.3068,-5.2394,-5.3548,-5.4408,-5.5262,-5.6602,-5.7256,-5.747,-5.7142,-5.7273,-5.7514,-5.7514,-5.7885,-5.8344,-5.846,-5.862,-5.8482,-5.7642,-5.7422,-5.7293,-5.6387,-5.5821,-5.5663,-5.6093,-5.5546,-5.5175,-5.5871,-5.5425,-5.5,-5.5165,-5.4813,-5.4639,-5.502,-5.502,-5.502,-5.502,-5.5378,-5.5378,-5.5094,-5.4999,-5.4999,-5.4999,-5.4999,-5.5209,-5.5556,-5.5919,-5.6,-5.5781,-5.6278,-5.656,-5.6686,-5.671,-5.6753,-5.6758,-5.6939,-5.6677]},{"header":{"parameterUnit":"m.s-1","parameterCategory":1,"la1":30.6,"la2":29.2853,"lo1":-89.7004,"lo2":-87.6739,"dx":0.0162,"dy":0.0183,"nx":112,"ny":82,"refTime":"2022-11-21T18:00:00:Z","depth":0,"parameterNumber":3,"parameterNumberName":"V-component_of_WINDS"},"data":[0.0,0.0,0.0,0.0,0.0,0.0,0.0,0.0,0.0,0.0,0.0,0.0,0.0,0.0,0.0,0.0,0.0,0.0,0.0,0.0,0.0,0.0,0.0,0.0,0.0,0.0,0.0,0.0,0.0,0.0,0.0,0.0,0.0,0.0,0.0,0.0,0.0,0.0,0.0,0.0,0.0,0.0,0.0,0.0,0.0,0.0,0.0,0.0,0.0,0.0,0.0,0.0,0.0,0.0,0.0,0.0,0.0,0.0,0.0,0.0,0.0,0.0,0.0,0.0,0.0,0.0,0.0,0.0,0.0,0.0,0.0,0.0,0.0,0.0,0.0,0.0,0.0,0.0,0.0,0.0,0.0,0.0,0.0,0.0,0.0,0.0,0.0,0.0,0.0,0.0,5.3683,5.5497,5.6847,5.7584,5.7457,5.6936,5.5564,5.311,0.0,0.0,0.0,0.0,0.0,0.0,0.0,0.0,0.0,0.0,0.0,0.0,0.0,0.0,0.0,0.0,0.0,0.0,0.0,0.0,0.0,0.0,0.0,0.0,0.0,0.0,0.0,0.0,0.0,0.0,0.0,0.0,0.0,0.0,0.0,0.0,0.0,0.0,0.0,0.0,0.0,0.0,0.0,0.0,0.0,0.0,0.0,0.0,0.0,0.0,0.0,0.0,0.0,0.0,0.0,0.0,0.0,0.0,0.0,0.0,0.0,0.0,0.0,0.0,0.0,0.0,0.0,0.0,0.0,0.0,0.0,0.0,0.0,0.0,0.0,0.0,0.0,0.0,0.0,0.0,0.0,0.0,0.0,0.0,0.0,0.0,0.0,0.0,0.0,0.0,0.0,0.0,0.0,0.0,0.0,0.0,0.0,0.0,0.0,0.0,0.0,0.0,0.0,0.0,5.3308,5.6623,5.7527,5.7894,5.7963,5.7482,5.5685,5.2167,0.0,0.0,0.0,0.0,0.0,0.0,0.0,0.0,0.0,0.0,0.0,0.0,0.0,0.0,0.0,0.0,0.0,0.0,0.0,0.0,0.0,0.0,0.0,0.0,0.0,0.0,0.0,0.0,0.0,0.0,0.0,0.0,0.0,0.0,0.0,0.0,0.0,0.0,0.0,0.0,0.0,0.0,0.0,0.0,0.0,0.0,0.0,0.0,0.0,0.0,0.0,0.0,0.0,0.0,0.0,0.0,0.0,0.0,0.0,0.0,0.0,0.0,0.0,0.0,0.0,0.0,0.0,0.0,0.0,0.0,0.0,0.0,0.0,0.0,0.0,0.0,0.0,0.0,0.0,0.0,0.0,0.0,0.0,0.0,0.0,0.0,0.0,0.0,0.0,0.0,0.0,0.0,0.0,0.0,0.0,0.0,0.0,0.0,0.0,0.0,0.0,0.0,0.0,5.4228,5.6147,5.8383,5.8467,5.8215,5.7969,5.7825,5.6374,5.317,5.1358,0.0,0.0,0.0,0.0,0.0,0.0,0.0,0.0,0.0,0.0,0.0,0.0,0.0,0.0,0.0,0.0,0.0,0.0,0.0,0.0,0.0,0.0,0.0,0.0,0.0,0.0,0.0,0.0,0.0,0.0,0.0,0.0,0.0,0.0,0.0,0.0,0.0,0.0,0.0,0.0,0.0,0.0,0.0,0.0,0.0,0.0,0.0,0.0,0.0,0.0,0.0,0.0,0.0,0.0,0.0,0.0,0.0,0.0,0.0,0.0,0.0,0.0,0.0,0.0,0.0,0.0,0.0,0.0,0.0,0.0,0.0,0.0,0.0,0.0,0.0,0.0,0.0,0.0,0.0,0.0,0.0,0.0,0.0,0.0,0.0,0.0,0.0,0.0,0.0,0.0,0.0,0.0,0.0,0.0,0.0,0.0,0.0,0.0,0.0,0.0,0.0,0.0,5.7486,5.8967,5.9828,5.929,5.8729,5.8343,5.8335,5.7158,5.4369,5.2387,0.0,0.0,0.0,0.0,0.0,0.0,0.0,0.0,0.0,0.0,0.0,0.0,0.0,0.0,0.0,0.0,0.0,0.0,0.0,0.0,0.0,0.0,0.0,0.0,0.0,0.0,0.0,0.0,0.0,0.0,0.0,0.0,0.0,0.0,0.0,0.0,0.0,0.0,0.0,0.0,0.0,0.0,0.0,0.0,0.0,0.0,0.0,0.0,0.0,0.0,0.0,0.0,0.0,0.0,0.0,0.0,0.0,0.0,0.0,0.0,0.0,0.0,0.0,0.0,0.0,0.0,0.0,0.0,0.0,0.0,0.0,0.0,0.0,0.0,0.0,0.0,0.0,0.0,0.0,0.0,0.0,0.0,0.0,0.0,0.0,0.0,0.0,0.0,0.0,0.0,0.0,0.0,0.0,0.0,0.0,0.0,0.0,0.0,0.0,0.0,0.0,0.0,5.8076,6.0021,6.0231,5.9783,5.9577,5.9835,5.9398,5.7886,5.4918,5.2688,0.0,0.0,0.0,0.0,0.0,0.0,0.0,0.0,0.0,0.0,0.0,0.0,0.0,0.0,0.0,0.0,0.0,0.0,0.0,0.0,0.0,0.0,0.0,0.0,0.0,0.0,0.0,0.0,0.0,0.0,0.0,0.0,0.0,0.0,0.0,0.0,0.0,0.0,0.0,0.0,0.0,0.0,0.0,0.0,0.0,0.0,0.0,0.0,0.0,0.0,0.0,0.0,0.0,0.0,0.0,0.0,0.0,0.0,0.0,0.0,0.0,0.0,0.0,0.0,0.0,0.0,0.0,0.0,0.0,0.0,0.0,0.0,0.0,0.0,0.0,0.0,0.0,0.0,0.0,0.0,0.0,0.0,0.0,0.0,0.0,0.0,0.0,0.0,0.0,0.0,0.0,0.0,0.0,0.0,0.0,0.0,0.0,0.0,0.0,0.0,0.0,0.0,5.8891,6.0935,6.13,6.0959,6.0517,6.0067,6.024,5.8993,5.5684,0.0,0.0,0.0,0.0,0.0,0.0,0.0,0.0,0.0,0.0,0.0,0.0,0.0,0.0,0.0,0.0,0.0,0.0,0.0,0.0,0.0,0.0,0.0,0.0,0.0,0.0,0.0,0.0,0.0,0.0,0.0,0.0,0.0,0.0,0.0,0.0,0.0,0.0,0.0,0.0,0.0,0.0,0.0,0.0,0.0,0.0,0.0,0.0,0.0,0.0,0.0,0.0,0.0,0.0,0.0,0.0,0.0,0.0,0.0,0.0,0.0,0.0,0.0,0.0,0.0,0.0,0.0,0.0,0.0,0.0,0.0,0.0,0.0,0.0,0.0,0.0,0.0,0.0,0.0,0.0,0.0,0.0,0.0,0.0,0.0,0.0,0.0,0.0,0.0,0.0,0.0,0.0,0.0,0.0,0.0,0.0,0.0,0.0,0.0,0.0,0.0,0.0,5.6902,5.9882,6.2101,6.2569,6.2371,6.1924,6.1177,6.141,5.9982,5.6374,0.0,0.0,0.0,0.0,0.0,0.0,0.0,0.0,0.0,0.0,0.0,0.0,0.0,0.0,0.0,0.0,0.0,0.0,0.0,0.0,0.0,0.0,0.0,0.0,0.0,0.0,0.0,0.0,0.0,0.0,0.0,0.0,0.0,0.0,0.0,0.0,0.0,0.0,0.0,0.0,0.0,0.0,0.0,0.0,0.0,0.0,0.0,0.0,0.0,0.0,0.0,0.0,0.0,0.0,0.0,0.0,0.0,0.0,0.0,0.0,0.0,0.0,0.0,0.0,0.0,0.0,0.0,0.0,0.0,0.0,0.0,0.0,0.0,0.0,0.0,0.0,0.0,0.0,0.0,0.0,0.0,0.0,0.0,0.0,0.0,0.0,0.0,0.0,0.0,0.0,0.0,0.0,0.0,0.0,0.0,0.0,0.0,0.0,0.0,0.0,0.0,0.0,5.7453,6.1047,6.3647,6.3969,6.4028,6.3902,6.3624,6.2915,6.0869,0.0,0.0,0.0,0.0,0.0,0.0,0.0,0.0,0.0,0.0,0.0,0.0,0.0,0.0,0.0,0.0,0.0,0.0,0.0,0.0,0.0,0.0,0.0,0.0,0.0,0.0,0.0,0.0,0.0,0.0,0.0,0.0,0.0,0.0,0.0,0.0,0.0,0.0,0.0,0.0,0.0,0.0,0.0,0.0,0.0,0.0,0.0,0.0,0.0,0.0,0.0,0.0,0.0,0.0,0.0,0.0,0.0,0.0,0.0,0.0,0.0,0.0,0.0,0.0,0.0,0.0,0.0,0.0,0.0,0.0,0.0,0.0,0.0,0.0,0.0,0.0,0.0,0.0,0.0,0.0,0.0,0.0,0.0,0.0,0.0,0.0,0.0,0.0,0.0,0.0,0.0,0.0,0.0,0.0,0.0,0.0,0.0,0.0,0.0,0.0,0.0,0.0,0.0,5.7446,6.1134,6.3866,6.4184,6.4848,6.5034,6.4424,6.4191,6.2598,5.9231,0.0,0.0,0.0,0.0,0.0,0.0,0.0,0.0,0.0,0.0,0.0,0.0,0.0,0.0,0.0,0.0,0.0,0.0,0.0,0.0,0.0,0.0,0.0,0.0,0.0,0.0,0.0,0.0,0.0,0.0,0.0,0.0,0.0,0.0,0.0,0.0,0.0,0.0,0.0,0.0,0.0,0.0,0.0,0.0,0.0,0.0,0.0,0.0,0.0,0.0,0.0,0.0,0.0,0.0,0.0,0.0,0.0,0.0,0.0,0.0,0.0,0.0,0.0,0.0,0.0,0.0,0.0,0.0,0.0,0.0,0.0,0.0,0.0,0.0,0.0,0.0,0.0,0.0,0.0,0.0,0.0,0.0,0.0,0.0,0.0,0.0,0.0,0.0,0.0,0.0,0.0,0.0,0.0,0.0,0.0,0.0,0.0,0.0,0.0,0.0,0.0,0.0,5.8324,6.2014,6.4924,6.5673,6.6556,6.6732,6.5831,6.5454,6.3691,5.9835,0.0,0.0,0.0,0.0,0.0,0.0,0.0,0.0,0.0,0.0,0.0,0.0,0.0,0.0,0.0,0.0,0.0,0.0,0.0,0.0,0.0,0.0,0.0,0.0,0.0,0.0,0.0,0.0,0.0,0.0,0.0,0.0,0.0,0.0,0.0,0.0,0.0,0.0,0.0,0.0,0.0,0.0,0.0,0.0,0.0,0.0,0.0,0.0,0.0,0.0,0.0,0.0,0.0,0.0,0.0,0.0,0.0,0.0,0.0,0.0,0.0,0.0,0.0,0.0,0.0,0.0,0.0,0.0,0.0,0.0,0.0,0.0,0.0,0.0,0.0,0.0,0.0,0.0,0.0,0.0,0.0,0.0,0.0,0.0,0.0,0.0,0.0,0.0,0.0,0.0,0.0,0.0,0.0,0.0,0.0,0.0,0.0,0.0,0.0,0.0,0.0,0.0,5.9569,6.3282,6.6354,6.7827,6.8663,6.8769,6.7735,6.6809,6.4395,5.9842,0.0,0.0,0.0,0.0,0.0,0.0,0.0,0.0,0.0,0.0,0.0,0.0,0.0,0.0,0.0,0.0,0.0,0.0,0.0,0.0,0.0,0.0,0.0,0.0,0.0,0.0,0.0,0.0,0.0,0.0,0.0,0.0,0.0,0.0,0.0,0.0,0.0,0.0,0.0,0.0,0.0,0.0,0.0,0.0,0.0,0.0,0.0,0.0,0.0,0.0,0.0,0.0,0.0,0.0,0.0,0.0,0.0,0.0,0.0,0.0,3.8512,3.4585,0.0,0.0,0.0,0.0,0.0,0.0,0.0,0.0,0.0,0.0,0.0,0.0,0.0,0.0,0.0,0.0,0.0,0.0,0.0,0.0,0.0,0.0,0.0,0.0,0.0,0.0,0.0,0.0,0.0,0.0,0.0,0.0,0.0,0.0,0.0,0.0,0.0,0.0,0.0,0.0,5.9427,6.3408,6.6896,6.8364,6.9187,6.9783,7.0097,6.8282,6.6276,6.4438,6.2049,0.0,0.0,0.0,0.0,0.0,0.0,0.0,0.0,0.0,0.0,0.0,0.0,0.0,0.0,0.0,0.0,0.0,0.0,0.0,0.0,0.0,0.0,0.0,0.0,0.0,0.0,0.0,0.0,0.0,0.0,0.0,0.0,0.0,0.0,0.0,0.0,0.0,0.0,0.0,0.0,0.0,0.0,0.0,0.0,0.0,0.0,0.0,0.0,0.0,0.0,0.0,0.0,0.0,0.0,0.0,0.0,0.0,0.0,0.0,4.5498,4.1092,0.0,0.0,0.0,0.0,0.0,0.0,0.0,0.0,0.0,0.0,0.0,0.0,0.0,0.0,0.0,0.0,0.0,0.0,0.0,0.0,0.0,0.0,0.0,0.0,0.0,0.0,0.0,0.0,0.0,0.0,0.0,0.0,0.0,0.0,0.0,0.0,0.0,0.0,0.0,0.0,6.1239,6.4952,6.8124,6.9581,7.0748,7.1118,7.0445,6.9682,6.8132,6.5531,6.4705,0.0,0.0,0.0,0.0,0.0,0.0,0.0,0.0,0.0,0.0,0.0,0.0,0.0,0.0,0.0,0.0,0.0,0.0,0.0,0.0,0.0,0.0,0.0,0.0,0.0,0.0,0.0,0.0,0.0,0.0,0.0,0.0,0.0,0.0,0.0,0.0,0.0,0.0,0.0,0.0,0.0,0.0,0.0,0.0,0.0,0.0,0.0,0.0,0.0,0.0,0.0,0.0,0.0,5.4801,5.5765,5.6462,5.7491,5.7825,5.7474,5.4093,4.983,4.5187,4.4399,0.0,0.0,0.0,0.0,0.0,0.0,0.0,0.0,0.0,0.0,0.0,0.0,0.0,0.0,0.0,0.0,0.0,0.0,0.0,0.0,0.0,0.0,5.1523,5.7315,6.0269,6.1065,5.8269,0.0,0.0,0.0,0.0,0.0,0.0,0.0,0.0,0.0,0.0,0.0,6.3606,6.6846,6.9569,7.095,7.2376,7.2523,7.0929,7.1278,7.0042,6.6344,6.7386,6.6372,0.0,0.0,0.0,0.0,0.0,0.0,0.0,0.0,0.0,0.0,0.0,0.0,0.0,0.0,0.0,0.0,0.0,0.0,0.0,0.0,0.0,0.0,0.0,0.0,0.0,0.0,0.0,0.0,0.0,0.0,0.0,0.0,4.5235,4.1906,0.0,0.0,0.0,0.0,0.0,0.0,0.0,0.0,0.0,0.0,0.0,0.0,0.0,5.2622,5.4516,5.4188,5.502,5.6997,5.9892,6.156,6.2221,6.483,6.5983,6.585,6.587,0.0,5.228,4.8204,0.0,0.0,0.0,0.0,0.0,0.0,0.0,0.0,0.0,0.0,0.0,0.0,0.0,0.0,0.0,0.0,0.0,0.0,0.0,0.0,0.0,0.0,5.5463,6.3115,6.5053,6.5024,6.4614,6.1079,5.8232,5.8907,5.9036,5.8863,0.0,0.0,0.0,0.0,0.0,0.0,6.4689,6.8116,7.094,7.1862,7.2831,7.3785,7.4582,7.3401,7.2175,7.1131,6.9876,6.8077,6.5585,6.4272,0.0,0.0,0.0,0.0,0.0,0.0,0.0,0.0,0.0,0.0,0.0,0.0,0.0,0.0,0.0,0.0,0.0,0.0,0.0,0.0,0.0,0.0,0.0,0.0,0.0,0.0,0.0,0.0,0.0,4.2132,4.486,4.1232,4.3886,4.4633,0.0,0.0,0.0,0.0,0.0,0.0,0.0,0.0,0.0,5.3823,5.7423,5.9929,6.1168,6.2983,6.4513,6.5826,6.7229,6.8271,6.8964,7.0671,7.125,7.0951,7.1374,6.8905,6.4267,5.8835,5.5273,5.2983,0.0,0.0,0.0,0.0,4.8886,4.8865,4.8779,4.847,4.8091,4.8515,0.0,0.0,0.0,0.0,0.0,0.0,0.0,4.7267,5.291,5.6737,6.0528,6.6201,6.8226,6.8909,6.8909,6.6204,6.3586,6.2925,6.2821,6.3081,6.3824,6.4032,0.0,0.0,0.0,6.6456,6.7063,6.8956,7.0883,7.2477,7.3274,7.3595,7.3444,7.367,7.3351,7.2202,7.1774,7.0915,6.9314,6.7324,6.5302,0.0,0.0,0.0,0.0,0.0,0.0,0.0,0.0,0.0,0.0,0.0,0.0,0.0,0.0,0.0,0.0,0.0,0.0,0.0,0.0,0.0,0.0,0.0,0.0,0.0,0.0,0.0,0.0,4.3927,4.6407,4.2223,4.5936,4.7507,0.0,0.0,0.0,0.0,0.0,0.0,5.177,5.554,5.8385,5.9946,6.4137,6.6692,6.743,7.0353,7.2294,7.3241,7.3241,7.371,7.4673,7.5068,7.5031,7.4625,7.4808,7.4432,7.3219,6.7168,6.289,5.9956,5.8738,5.8372,5.8574,5.803,5.7931,5.8067,5.8173,5.7772,5.7287,5.7666,5.6536,5.4874,5.4387,0.0,0.0,0.0,0.0,5.3504,5.6917,6.0494,6.422,6.8236,7.0254,7.1244,7.1109,6.9843,6.8269,6.6675,6.6091,6.632,6.769,6.7225,0.0,6.8062,6.794,6.8205,6.932,7.0158,7.131,7.2899,7.3571,7.3549,7.2722,7.416,7.4516,7.3154,7.3827,7.3682,7.2321,7.0429,6.8426,6.6426,0.0,0.0,0.0,0.0,0.0,0.0,0.0,0.0,0.0,0.0,0.0,0.0,0.0,0.0,0.0,0.0,0.0,0.0,0.0,0.0,0.0,0.0,0.0,0.0,0.0,0.0,0.0,0.0,0.0,4.9395,5.2353,0.0,0.0,0.0,0.0,5.583,5.5638,5.6299,5.8579,6.1986,6.459,6.6207,6.9392,7.1767,7.325,7.3233,7.4139,7.5993,7.5993,7.6722,7.8053,7.7772,7.7452,7.7121,7.7188,7.6569,7.5014,6.8907,6.615,6.543,6.1703,6.0248,6.0248,6.0164,5.988,5.9574,6.0231,5.9645,5.8694,5.9218,5.8621,5.7651,5.7231,5.8074,0.0,0.0,5.8492,5.9874,6.3768,6.4446,6.5211,6.9422,7.0815,7.1075,7.0654,7.0774,7.0678,6.9435,6.8071,6.71,6.699,0.0,7.1036,6.8417,7.089,7.2454,7.0996,7.2027,7.3012,7.3082,7.3751,7.434,7.4722,7.5708,7.6071,7.5492,7.6364,7.6012,7.3975,7.3027,7.1055,6.7856,6.6281,0.0,0.0,0.0,0.0,0.0,0.0,0.0,0.0,0.0,0.0,0.0,0.0,0.0,0.0,0.0,0.0,0.0,0.0,0.0,0.0,0.0,0.0,0.0,0.0,0.0,0.0,0.0,0.0,5.286,5.6721,0.0,5.5401,5.5034,5.6011,5.8404,6.0325,6.2221,6.4179,6.7961,7.0793,7.2425,7.3868,7.5323,7.6776,7.6576,7.6907,7.7812,7.7812,7.799,7.8313,7.8796,7.885,7.8566,7.9,7.8529,7.7302,7.5031,7.3193,7.1647,7.0039,6.9538,6.976,6.9807,6.9841,7.001,7.0774,7.0373,6.9549,6.9444,6.9214,6.8494,6.5884,6.4809,6.4021,6.17,6.2718,6.4759,6.5771,6.7852,7.0178,7.1975,7.2641,7.2892,7.313,7.2966,7.2395,7.1366,7.0404,6.966,6.951,7.037,7.0969,7.0656,7.0779,7.1029,7.1552,7.2099,7.2758,7.3737,7.4345,7.4765,7.4957,7.5876,7.6462,7.6383,7.683,7.6852,7.6181,7.4958,7.3234,7.1125,6.9922,6.8094,0.0,0.0,0.0,0.0,0.0,0.0,0.0,0.0,0.0,0.0,0.0,0.0,0.0,0.0,0.0,0.0,0.0,0.0,0.0,0.0,0.0,0.0,0.0,0.0,0.0,5.2136,5.5748,5.546,5.9117,6.1339,6.0614,6.0487,6.14,6.3735,6.6191,6.8309,7.0092,7.2967,7.5211,7.6593,7.7176,7.7894,7.8825,7.8879,7.9093,7.9492,7.9327,7.9381,7.967,8.0228,8.044,8.0378,8.0607,8.0149,7.9228,7.8908,7.7877,7.6405,7.5665,7.5507,7.5739,7.5812,7.5999,7.6235,7.6777,7.6635,7.6116,7.547,7.5215,7.4528,7.1732,7.055,6.9743,6.7587,6.8416,6.9936,6.9849,7.0803,7.2066,7.3164,7.3379,7.3549,7.4377,7.4124,7.3525,7.2776,7.1996,7.1538,7.1739,7.2039,7.2422,7.2892,7.2176,7.1969,7.3026,7.2898,7.3182,7.4352,7.4315,7.4302,7.4567,7.5513,7.6181,7.6348,7.7075,7.7482,7.7374,7.6351,7.5048,7.3506,7.2092,7.0399,6.847,0.0,0.0,0.0,0.0,0.0,0.0,0.0,0.0,0.0,0.0,0.0,0.0,0.0,0.0,0.0,0.0,0.0,0.0,0.0,0.0,0.0,0.0,0.0,5.0144,5.5153,5.8608,5.7735,5.9843,6.2375,6.4907,6.5159,6.7258,7.2308,7.3275,7.4385,7.616,7.6948,7.7707,7.853,7.9188,7.9565,7.9527,8.003,8.0511,8.1013,8.0564,8.1053,8.2257,8.2089,8.2216,8.2616,8.1992,8.1317,8.0638,7.9993,7.9631,7.9357,7.7908,7.7347,7.7384,7.7384,7.742,7.7437,7.7419,7.747,7.7402,7.6516,7.5797,7.508,7.429,7.513,7.6328,7.6336,7.5662,7.5213,7.63,7.3317,7.0535,7.2688,7.301,7.3039,7.4046,7.4285,7.415,7.3695,7.3,7.2638,7.3298,7.4826,7.5678,7.4749,7.5394,0.0,7.543,7.4768,7.4487,7.4971,7.3747,7.3135,7.3834,7.4815,7.5462,7.5638,7.7313,7.7972,7.7409,7.7202,7.6419,7.4881,7.2608,7.1105,7.0336,0.0,0.0,0.0,0.0,0.0,0.0,0.0,0.0,0.0,0.0,0.0,0.0,0.0,0.0,0.0,0.0,0.0,0.0,0.0,0.0,0.0,5.4101,5.7686,5.7308,5.9614,6.2141,6.4345,6.6348,6.8313,7.0275,7.1015,7.2213,7.427,7.4473,7.5272,7.697,7.78,7.8613,7.94,8.0071,8.0481,8.0509,8.0964,8.1225,8.1216,8.1559,8.1754,8.1717,8.1676,8.1693,8.1736,8.1673,8.1192,8.0523,8.0708,8.0336,7.9627,7.9091,7.9008,7.9176,7.9764,8.0351,8.0768,8.0141,8.0317,8.0728,7.9863,7.9858,8.0162,7.9956,7.9354,7.8818,7.8819,7.7798,7.6568,7.5958,7.4849,7.3895,7.3919,7.4046,7.4532,7.6066,7.638,7.6346,7.6183,7.6044,7.54,7.3764,7.4913,7.5761,7.4878,7.5732,7.6226,7.5563,7.6124,7.6311,7.5829,7.5941,7.6123,7.6338,7.672,7.6827,7.6468,7.7081,7.7412,7.7374,7.7333,7.6877,7.593,7.5102,7.4321,0.0,0.0,0.0,0.0,0.0,0.0,0.0,0.0,0.0,0.0,0.0,0.0,0.0,0.0,0.0,0.0,0.0,0.0,0.0,0.0,0.0,0.0,5.7849,6.2262,6.3211,6.4438,6.6159,6.88,7.0011,7.1464,7.3534,7.4492,7.5354,7.62,7.6858,7.765,7.8604,7.9351,7.9972,8.0429,8.076,8.0926,8.0975,8.142,8.1575,8.1478,8.2,8.2199,8.2122,8.2071,8.229,8.2743,8.2814,8.2698,8.2375,8.2707,8.2476,8.1764,0.0,0.0,0.0,0.0,8.0662,8.1094,8.0524,8.0625,8.0996,8.0591,8.0692,8.1029,8.0762,8.006,7.9352,7.9715,7.8634,7.7394,7.7284,7.6727,7.6158,7.6175,7.6464,7.7041,7.8258,7.8171,7.7802,7.7703,7.7752,0.0,7.5344,7.5959,7.6565,7.6411,7.6724,7.6953,7.6799,7.6795,7.6808,7.6649,7.6726,7.6836,7.68,7.7551,0.0,0.0,0.0,7.7747,7.7615,7.7383,0.0,0.0,0.0,7.6111,7.5423,7.4502,0.0,0.0,6.9656,6.9136,0.0,0.0,0.0,0.0,0.0,0.0,0.0,0.0,0.0,0.0,0.0,0.0,0.0,0.0,0.0,0.0,6.1406,6.5728,6.8157,6.9232,7.0195,7.1245,7.1792,7.2995,7.5256,7.641,7.7283,7.802,7.9435,8.0295,8.0412,8.0873,0.0,0.0,0.0,8.1093,8.1108,8.1528,8.1805,8.1862,8.2195,8.2676,8.3301,8.3136,8.3709,8.4783,8.4725,8.4866,8.5128,8.516,8.5064,8.471,8.1815,8.0481,8.0126,7.9702,7.9763,8.0057,7.9796,0.0,0.0,7.9925,7.986,7.9665,7.9124,7.8952,7.9133,7.9857,7.9017,7.8236,7.9601,7.8763,7.7812,7.8862,7.9313,7.9768,8.029,7.9643,7.8933,7.8819,7.8842,7.8588,7.7736,7.7626,7.7913,7.8636,7.8205,7.802,7.8673,7.7494,7.6905,7.7606,7.7111,0.0,7.6785,7.7983,7.8213,7.6903,7.8021,7.8392,7.7693,7.7376,7.7181,7.7118,7.7188,7.7033,7.6538,7.573,7.5344,7.5309,7.2744,7.1538,0.0,0.0,0.0,0.0,0.0,0.0,0.0,0.0,0.0,0.0,0.0,0.0,0.0,0.0,0.0,5.943,6.562,7.0727,7.1914,7.285,7.2709,7.0907,7.3667,7.5927,7.6451,7.7843,7.8806,7.8999,7.9233,7.9675,8.0373,8.0369,8.0613,8.1291,8.1184,8.1124,8.1184,8.1788,8.2364,8.2945,8.3562,0.0,8.511,8.4983,8.5231,8.5794,8.5522,8.5318,8.5281,8.5442,8.5473,8.5331,8.3787,8.3182,8.2976,8.1998,8.1644,8.1677,8.131,8.1209,8.1209,8.1243,8.1243,8.1175,8.118,8.1186,0.0,8.1625,8.1407,8.1145,8.1347,8.0641,7.9923,8.0133,8.0221,8.0349,8.0489,8.0479,8.057,8.1121,8.133,8.1079,8.004,7.9515,7.9295,7.9448,7.987,8.0224,8.034,8.0071,7.9949,8.0107,8.0033,8.026,8.0873,8.0063,7.9404,7.9339,7.8532,7.7465,7.6083,7.7341,7.7747,7.7118,7.7881,7.8252,7.8153,7.7345,7.6959,7.6924,7.5158,7.4352,0.0,0.0,0.0,0.0,0.0,0.0,0.0,0.0,0.0,0.0,0.0,5.3412,5.3857,0.0,6.3271,6.4634,6.9112,7.276,7.364,7.4483,7.4525,7.3236,7.4891,7.6341,7.6767,7.831,7.9066,7.8665,7.9417,7.9835,7.9835,7.9698,7.9956,8.0744,8.0632,8.0938,8.1708,8.2408,8.3058,8.3659,8.4342,8.4882,8.5121,8.4883,8.5391,8.6349,8.5922,8.6162,8.6906,8.6852,8.6858,8.6747,8.5745,8.5059,8.4563,8.3742,8.3398,8.3364,8.3059,8.2817,8.2643,8.2784,8.2713,8.2643,8.2603,8.2603,8.2714,8.3258,8.289,8.2333,8.2291,8.129,8.0561,8.142,8.1359,8.127,8.2056,8.2075,8.2032,8.2383,8.2082,8.1454,8.0617,8.0187,7.9898,7.9558,8.0249,8.072,8.0289,8.0613,8.0863,8.0863,8.1232,8.1345,8.0945,7.9781,7.9283,7.9796,7.8876,7.7962,7.7198,7.7762,7.7969,7.7712,7.8062,7.8364,7.8574,7.8098,7.8056,7.8406,7.776,7.7029,0.0,0.0,0.0,0.0,0.0,0.0,0.0,5.2974,5.4858,5.7673,5.9551,6.0741,6.0785,6.4364,6.7882,6.9527,7.2193,7.4347,7.5061,7.5701,7.6054,7.5985,7.6048,7.6331,7.7014,7.8458,7.9034,7.8349,7.9576,8.0055,7.9355,7.9155,7.9482,8.042,8.0291,8.0915,8.2441,8.303,8.3561,8.4071,8.4614,8.4878,8.4933,8.4594,8.5369,8.6964,8.6515,8.7123,8.8414,8.8208,8.8084,8.801,8.7341,8.6611,8.5831,8.4915,8.4572,8.4575,8.4414,8.417,8.3956,8.4282,8.4282,8.4101,8.3955,8.3882,8.3991,8.4573,8.4215,8.3667,8.3653,8.2555,8.1802,8.3137,8.2939,8.2716,8.3544,8.3535,8.3375,8.3442,8.2725,8.1821,8.0969,8.0797,8.052,7.9893,8.0514,8.0958,8.0665,8.1207,8.1598,8.158,8.2169,8.1984,8.0511,7.9871,7.9652,7.9831,7.9355,7.8944,7.8632,7.837,7.8276,7.8388,7.8224,7.8275,7.8694,7.8384,7.8543,7.9094,7.9484,7.9044,4.6084,4.7995,5.1249,5.1994,5.4539,5.7048,0.0,5.8706,5.9469,5.9837,6.1318,6.2531,6.2598,6.6663,7.0329,7.1434,7.4937,7.7618,7.782,7.7879,7.7687,7.7009,7.745,7.7883,7.8096,7.8962,7.9442,7.9358,7.9445,7.9485,7.9408,7.9155,7.9718,8.1233,8.1027,8.1708,8.3423,8.3333,8.3561,8.3994,8.4043,8.4685,8.5845,8.5526,8.6319,8.8041,8.8137,8.8167,8.8146,8.8115,8.8084,8.8084,8.7973,8.7898,8.7545,8.5316,8.4535,8.4544,8.461,8.4643,8.4715,8.5477,8.5657,8.5657,8.5621,8.5619,8.5572,8.5294,8.6143,8.7085,8.6627,8.6442,8.6269,8.5857,8.565,8.5146,8.3556,8.3803,8.45,8.5035,8.4823,8.4103,8.2536,8.2298,8.2134,8.15,8.1655,8.2282,8.3761,8.4022,8.4081,8.4013,8.4148,8.3867,8.2964,8.3406,8.2855,8.0801,8.0463,7.9822,7.851,7.9186,7.9287,7.8672,7.8815,7.8903,7.8946,7.8285,7.8006,7.8076,7.8772,7.9461,5.5566,5.5599,5.6116,5.9326,6.1158,6.2411,6.3267,6.4081,6.5327,6.7893,6.9778,7.0979,7.1032,7.319,7.5099,7.5542,7.6666,7.7668,7.823,7.8228,7.7887,7.7066,7.7647,7.7985,7.7641,7.8325,7.8576,7.8062,7.8436,7.863,7.8606,7.8389,7.9033,8.0589,8.0926,8.1808,8.3406,8.3857,8.4327,8.4816,8.4627,8.4825,8.5272,8.4726,8.5339,8.6877,8.8201,8.8533,8.8084,8.8084,8.8084,8.8084,8.8084,8.8084,8.7947,8.6689,8.61,8.5935,8.5737,8.5553,8.5438,8.5801,8.5909,8.5982,8.6603,8.6746,8.6595,8.5883,8.5594,8.5678,8.6225,8.6311,8.6204,8.5871,8.6829,8.7201,8.5018,8.54,8.6132,8.5902,8.4763,8.3826,8.3783,8.3023,8.2716,8.3548,8.2913,8.2673,8.3732,8.3642,8.3764,8.4358,8.4526,8.4421,8.4117,8.3861,8.3099,8.1539,8.1837,8.1342,7.9741,8.0075,7.996,7.938,7.9335,7.9425,7.9703,7.9257,7.9237,7.9723,8.0623,8.1189,6.0208,6.0291,6.0344,6.4987,6.6802,6.7632,6.8577,6.9338,7.0798,7.3953,7.5961,7.7159,7.7227,7.7733,7.8267,7.8598,7.808,7.788,7.855,7.8826,7.8495,7.7421,7.7773,7.7846,7.7137,7.7599,7.7667,7.7034,7.7715,7.8092,7.8015,7.8079,7.8828,8.0396,8.1051,8.2122,8.3665,8.4458,8.5035,8.5349,8.5094,8.4901,8.4929,8.4903,8.5237,8.6055,8.8111,8.865,8.8084,8.8084,8.8084,8.8084,8.8084,8.8084,8.8053,8.753,8.7234,8.6962,8.6684,8.6389,8.6235,8.6452,8.6525,8.667,8.74,8.762,8.7398,8.64,8.5646,8.5303,8.5952,8.6369,8.6696,8.6952,8.7956,8.8386,8.6512,8.6925,8.724,8.6024,8.4429,8.3552,8.4498,8.3428,8.3066,8.4683,8.3434,8.2694,8.3747,8.337,8.3504,8.4597,8.4567,8.4421,8.427,8.3653,8.2779,8.168,8.2111,8.1861,8.0638,8.0603,8.0512,8.0352,8.0006,7.9948,8.0313,7.9889,8.0006,8.064,8.1505,8.1852,5.4877,5.8375,6.187,6.6633,7.0184,7.2725,7.3717,7.4593,7.5216,7.5342,7.6812,7.8076,7.8045,7.8043,7.8332,7.9318,7.9382,7.9396,7.9533,8.0218,8.0103,7.8434,7.8163,7.78,7.7067,7.7038,7.7011,7.7004,7.7728,7.8175,7.8092,7.8651,7.9722,8.131,8.1816,8.2924,8.4652,8.5207,8.5433,8.5311,8.4968,8.4943,8.5237,8.6851,8.7107,8.6406,8.8223,8.865,8.8084,8.8084,8.8084,8.8084,8.8084,8.8084,8.8021,8.7268,8.6995,8.7001,8.6971,8.6996,8.7104,8.7901,8.8116,8.8116,8.8191,8.8191,8.7959,8.6966,8.7371,8.7884,8.6889,8.7987,8.9495,9.0265,8.9497,8.8385,8.7512,8.7786,8.7532,8.5202,8.4344,8.4061,8.4441,8.3666,8.3332,8.4335,8.2869,8.2476,8.4741,8.4251,8.4118,8.5234,8.4665,8.3965,8.3375,8.3254,8.2531,8.0907,8.0706,8.0638,8.0603,8.0603,8.0983,8.1707,8.0983,8.0569,8.0569,7.9844,7.9534,7.9569,8.0293,8.0638,5.9386,6.3229,6.6912,7.1722,7.3759,7.4796,7.5711,7.5602,7.5702,7.6929,7.5776,7.4727,7.5393,7.5533,7.5485,7.5281,7.669,7.7806,7.7857,7.8564,7.8846,7.8192,7.8083,7.8174,7.8362,7.8015,7.7799,7.779,7.8546,7.9213,7.9675,7.978,8.0267,8.128,8.2353,8.3166,8.3759,8.4882,8.5431,8.5413,8.5522,8.5485,8.5349,8.7216,8.7657,8.705,8.8392,8.865,8.8084,8.8084,8.8084,8.8084,8.8084,8.7958,8.7628,8.7166,8.6821,8.6574,8.6351,8.6597,8.6959,8.6742,8.7032,8.7322,8.6815,8.667,8.6593,8.625,8.6403,8.6593,8.6286,8.6981,8.7709,8.7371,8.7807,8.7924,8.6527,8.6358,8.6247,8.5417,8.4195,8.3833,8.5383,8.4813,8.4527,8.5678,8.47,8.3677,8.3081,8.4585,8.5616,8.5423,8.5134,8.4915,8.4876,8.417,8.3323,8.2418,8.2267,8.1989,8.1397,8.1397,8.1535,8.181,8.2017,8.2155,8.2155,8.2397,8.25,8.25,8.3293,8.3362,6.3617,6.6692,6.9271,7.415,7.5081,7.5051,7.5795,7.5358,7.5175,7.6553,7.4654,7.2926,7.354,7.3239,7.275,7.2218,7.3592,7.5146,7.6309,7.7221,7.794,7.8473,7.8828,7.894,7.8745,7.8935,7.8929,7.8642,7.9369,8.015,8.0854,8.1031,8.1427,8.2136,8.3154,8.3691,8.3691,8.495,8.5839,8.6298,8.6549,8.6479,8.6132,8.7865,8.8261,8.7697,8.8666,8.8794,8.8398,8.8164,8.8084,8.8084,8.8084,8.7858,8.7464,8.7132,8.675,8.6356,8.6024,8.6199,8.6525,8.6054,8.6235,8.6525,8.6054,8.5909,8.5909,8.5909,8.5909,8.5909,8.5909,8.6452,8.6842,8.6253,8.718,8.7739,8.5989,8.593,8.5924,8.4853,8.4301,8.4364,8.5335,8.4979,8.4575,8.483,8.4886,8.459,8.3736,8.5064,8.6027,8.5878,8.5551,8.5112,8.4444,8.3705,8.2736,8.1513,8.1668,8.1666,8.1362,8.1397,8.1638,8.219,8.2397,8.2776,8.3293,8.35,8.3742,8.4018,8.4535,8.4501,6.7093,6.8748,6.9383,7.4096,7.4637,7.4166,7.4557,7.4333,7.4111,7.434,7.3358,7.2413,7.225,7.1225,7.0388,7.0392,7.0809,7.2222,7.5359,7.6586,7.7779,7.9372,8.0163,8.0014,7.8445,7.9725,8.0335,7.955,8.0261,8.098,8.1641,8.2366,8.3062,8.3695,8.4143,8.4403,8.4403,8.5497,8.6618,8.7725,8.7937,8.7855,8.766,8.8861,8.9008,8.8344,8.8896,8.9071,8.8942,8.8361,8.8158,8.8158,8.8195,8.7937,8.7542,8.7242,8.686,8.6429,8.6095,8.6018,8.6018,8.5982,8.6018,8.6054,8.6018,8.5982,8.5945,8.5945,8.5871,8.5871,8.5909,8.6378,8.6883,8.6921,8.75,8.7631,8.5923,8.6436,8.6439,8.3613,8.4556,8.5464,8.4423,8.4166,8.3706,8.2302,8.3543,8.5096,8.6279,8.5664,8.5504,8.6572,8.5948,8.4537,8.2421,8.204,8.0948,7.8646,7.9155,7.9879,8.0603,8.0672,8.1362,8.2811,8.219,8.2569,8.4018,8.3328,8.3362,8.4121,8.4087,8.4087,6.9266,7.2962,7.6157,7.7304,7.8145,7.858,7.8108,7.7055,7.5562,7.3253,7.0135,6.7454,6.6283,6.8419,7.0331,7.0316,7.4774,7.8254,7.8475,7.9233,7.9901,8.0289,8.0576,8.0797,8.0863,8.1311,8.1763,8.2061,8.227,8.2464,8.2583,8.3218,8.3624,8.368,8.4143,8.4403,8.4403,8.6045,8.7235,8.7851,8.9009,8.9413,8.9197,8.9511,8.974,8.9856,8.8946,8.8615,8.8782,8.8794,8.8784,8.8822,8.9415,8.934,8.8897,8.8829,8.8326,8.7727,8.7611,8.7611,8.7539,8.6923,8.7539,8.8408,8.7829,8.7213,8.6742,8.6742,8.5772,8.4952,8.5721,8.5484,8.5239,8.601,8.6344,8.615,8.4952,8.4931,8.4961,8.4213,8.4445,8.467,8.4426,8.3889,8.3869,8.488,8.4577,8.4544,8.5297,8.5912,8.6392,8.6643,8.5337,8.4313,8.3907,8.1921,8.056,8.0116,8.0247,8.0431,8.0603,8.119,8.1672,8.2086,8.2431,8.3087,8.4018,8.3811,8.4432,8.5708,8.5156,8.519,7.156,7.4751,7.7465,7.792,7.8571,7.8484,7.6064,7.475,7.3024,6.9313,6.6049,6.357,6.2771,6.5615,6.8098,6.8054,7.3023,7.7254,7.8241,7.9056,7.9975,8.1074,8.1611,8.1902,8.1874,8.2303,8.2714,8.3072,8.308,8.3348,8.39,8.3915,8.4204,8.475,8.5184,8.5604,8.6073,8.7406,8.8489,8.9254,9.0384,9.0685,9.0242,9.0499,9.049,9.0197,8.9477,8.9344,8.9685,8.9584,8.9568,8.9707,9.0358,9.0315,8.9931,8.9751,8.9271,8.8698,8.8297,8.8444,8.8589,8.7793,8.8155,8.8807,8.8333,8.7862,8.75,8.75,8.6513,8.5565,8.6186,8.565,8.51,8.5755,8.5569,8.5107,8.4513,8.4396,8.4396,8.4396,8.3734,8.3305,8.3692,8.3528,8.3656,8.4725,8.4682,8.4511,8.458,8.5592,8.6453,8.6784,8.5991,8.4862,8.3574,8.1973,8.0801,8.021,8.0121,8.0431,8.1121,8.1569,8.1948,8.2293,8.2362,8.2949,8.4018,8.3707,8.4156,8.5294,8.488,8.4915,7.3894,7.5614,7.6693,7.7711,7.8093,7.7021,7.2456,7.099,6.9229,6.4398,6.1902,6.0524,6.0432,6.2897,6.5162,6.5761,6.9655,7.3732,7.7112,7.837,7.9734,8.1763,8.3,8.3279,8.2274,8.3203,8.3745,8.3552,8.3664,8.4174,8.5137,8.4661,8.4884,8.6142,8.6643,8.7351,8.8355,8.9039,8.9949,9.1154,9.1821,9.1763,9.1099,9.153,9.1137,9.0233,9.0225,9.0483,9.0839,9.0627,9.0568,9.0745,9.1299,9.132,9.096,9.0627,9.0209,8.9748,8.8988,8.9133,8.9567,8.8662,8.8444,8.8553,8.8553,8.8405,8.8333,8.8215,8.7474,8.6776,8.6896,8.6356,8.581,8.5961,8.5315,8.4676,8.4551,8.4445,8.4332,8.4207,8.2756,8.1851,8.2641,8.2963,8.3147,8.3269,8.3982,8.4421,8.4225,8.4973,8.5866,8.6593,8.6561,8.5264,8.2359,8.1969,8.1189,7.9602,7.958,8.0224,8.1431,8.1603,8.1948,8.2604,8.1983,8.2362,8.388,8.3121,8.319,8.4018,8.3914,8.3914,7.6258,7.8571,8.0529,8.0356,8.108,8.0604,7.5773,7.3295,6.9921,6.2474,5.9765,5.8364,5.7107,6.0281,6.4458,6.8738,7.3129,7.7215,8.0642,8.2526,8.3181,8.2206,8.4116,8.4896,8.3298,8.5305,8.6346,8.5508,8.6116,8.6117,8.5256,8.5769,8.6238,8.6585,8.7386,8.8226,8.9197,8.9731,9.0697,9.2013,9.2551,9.2723,9.2575,9.1526,9.1389,9.1892,9.0434,9.0111,9.0737,9.1813,9.1966,9.1727,9.3307,9.3602,9.3071,9.2993,9.2718,9.2247,9.1451,9.1269,9.1125,8.9676,8.964,9.0183,9.0183,8.9712,8.9011,8.8171,8.7413,8.6793,8.6776,8.6656,8.6579,8.6561,8.6442,8.6112,8.5296,8.467,8.4026,8.316,8.2254,8.1651,8.1839,8.2003,8.2335,8.2954,8.2432,8.2588,8.4366,8.448,8.4537,8.4948,8.4172,8.3228,8.2177,8.117,8.0341,7.9616,8.0084,8.0258,7.9913,8.05,8.0879,8.1017,8.0879,8.1569,8.3087,8.2362,8.2673,8.4018,8.3397,8.3431,7.7763,7.9852,8.1645,8.1832,8.2034,8.0343,7.3304,7.0276,6.6576,5.8092,5.5564,5.4801,5.4573,5.7885,6.1733,6.5056,7.1573,7.68,7.8454,8.213,8.4227,8.2929,8.4278,8.4986,8.4176,8.6086,8.7169,8.6562,8.7329,8.7276,8.6001,8.6505,8.7239,8.8033,8.8391,8.9034,9.0001,9.0531,9.1267,9.22,9.2742,9.2666,9.202,9.1573,9.1288,9.1106,9.0667,9.0704,9.118,9.235,9.2754,9.2721,9.4113,9.4468,9.423,9.399,9.3788,9.3515,9.2718,9.2139,9.1668,9.0907,9.0618,9.0581,9.0581,9.0328,8.9842,8.8827,8.8285,8.7893,8.7422,8.6972,8.6603,8.6653,8.6324,8.5675,8.4716,8.425,8.3866,8.3342,8.2565,8.2026,8.2163,8.2656,8.2858,8.2326,8.2237,8.2269,8.2584,8.2574,8.3106,8.4644,8.4309,8.3412,8.1916,8.1281,8.0517,7.9589,7.9833,7.9879,7.9534,7.9844,8.0051,8.0051,8.0431,8.081,8.1155,8.1155,8.1362,8.1672,8.1293,8.1535,7.8478,8.0205,8.1482,8.212,8.167,7.8752,6.9943,6.6404,6.2538,5.396,5.1488,5.1205,5.2184,5.497,5.7952,6.0593,6.7663,7.351,7.5599,8.0163,8.3312,8.3402,8.4329,8.4914,8.4721,8.6679,8.7795,8.7458,8.8135,8.8001,8.6657,8.7471,8.827,8.8947,8.9523,9.0124,9.0734,9.1339,9.1844,9.2405,9.2821,9.2488,9.1486,9.169,9.1253,9.0332,9.099,9.1358,9.1619,9.2831,9.3309,9.3418,9.4609,9.4952,9.479,9.454,9.4457,9.4348,9.3551,9.2863,9.2247,9.1921,9.1269,9.0581,9.0581,9.0581,9.038,8.9106,8.9106,8.9214,8.8105,8.74,8.6909,8.6621,8.5988,8.5192,8.4215,8.4029,8.3989,8.3777,8.3007,8.2394,8.2394,8.2996,8.3024,8.1524,8.1757,8.1845,8.0997,8.0997,8.1865,8.3916,8.4054,8.3146,8.1034,8.097,8.0463,7.9373,7.9431,7.9431,7.9293,7.9258,7.9258,7.9258,7.9844,7.9948,7.95,8.0258,8.0327,7.9741,7.9913,8.0327,7.7864,7.9792,8.0531,8.0581,7.998,7.7174,6.8964,6.4633,6.0083,5.2081,4.9269,4.8557,4.9566,5.0795,5.346,5.9124,6.2144,6.6827,7.5553,7.793,7.9955,8.3036,8.4863,8.556,8.476,8.7772,8.9381,8.851,8.8852,8.8349,8.6594,8.9038,8.9706,8.7981,9.0692,9.1848,9.1146,9.1941,9.2523,9.2909,9.2984,9.2748,9.2299,9.1947,9.1657,9.1361,9.1434,9.1508,9.1655,9.3566,9.3966,9.3488,9.5211,9.5545,9.5,9.5211,9.529,9.5145,9.4384,9.4058,9.3768,9.2284,9.1269,9.0581,9.0581,9.0581,9.0222,8.8284,8.9027,9.0022,8.8123,8.8259,8.8393,8.6568,8.6079,8.5765,8.4739,8.4728,8.4617,8.372,8.2899,8.2222,8.1546,8.1529,8.1292,8.0461,7.9817,7.9975,8.1336,8.1194,8.1008,8.1248,8.0954,8.0201,7.8883,7.9103,7.9074,7.8568,7.9155,7.9224,7.8534,7.8499,7.8499,7.8499,7.8568,7.8913,7.95,8.0258,8.0603,8.0534,8.1259,8.1638,7.8253,8.013,8.0418,8.0418,7.755,7.2958,6.6289,6.1069,5.5901,4.977,4.7686,4.7269,4.8224,4.8865,5.0576,5.4512,5.8916,6.351,6.8358,7.2089,7.5624,7.9071,8.1075,8.3055,8.5307,8.8234,8.9995,9.0028,9.0521,8.9991,8.8035,8.9572,9.0419,9.0203,9.1539,9.222,9.2096,9.2278,9.2604,9.2988,9.2751,9.2444,9.202,9.162,9.1282,9.1012,9.1717,9.1897,9.1812,9.3844,9.4342,9.3965,9.5135,9.5488,9.5235,9.5356,9.5398,9.5326,9.5036,9.4276,9.337,9.2754,9.1668,9.0581,9.0581,9.0182,8.9527,8.8721,8.9063,8.9364,8.7967,8.7457,8.6969,8.5549,8.517,8.51,8.466,8.4653,8.4658,8.422,8.393,8.349,8.2746,8.2611,8.2374,8.1629,8.0885,8.0665,8.1353,8.1131,8.0768,8.0274,8.1009,8.0981,7.9658,7.9683,7.9565,7.9074,7.8913,7.8499,7.7741,7.7706,7.7706,7.7706,7.8154,7.8534,7.8844,7.9603,7.9948,7.9948,8.0293,8.0672,7.5788,7.8328,7.9266,7.9266,7.4981,6.9353,6.4124,5.8257,5.2628,4.8009,4.6513,4.6221,4.6843,4.7434,4.8561,5.0844,5.5598,6.0134,6.341,6.7333,7.1426,7.5669,7.7326,7.9903,8.4481,8.8248,9.0663,9.1325,9.1722,9.1227,8.9594,9.0684,9.1359,9.1304,9.2266,9.2737,9.2613,9.272,9.2866,9.2988,9.2582,9.2198,9.1803,9.1396,9.0975,9.0694,9.1812,9.2097,9.1962,9.3841,9.4414,9.415,9.4988,9.5278,9.5278,9.5398,9.5398,9.5362,9.5109,9.4312,9.3298,9.2827,9.1686,9.0465,9.0213,8.9654,8.9106,8.9106,8.8888,8.8499,8.7783,8.6838,8.582,8.4872,8.464,8.464,8.464,8.464,8.464,8.464,8.464,8.4403,8.3625,8.349,8.3238,8.2308,8.1783,8.1343,8.1241,8.1164,8.0726,7.97,8.0961,8.1263,7.9784,7.9668,7.9452,7.8833,7.8327,7.781,7.7258,7.7223,7.7223,7.7223,7.7775,7.8051,7.8051,7.881,7.9189,7.9189,7.9638,8.0258,6.9303,7.3452,7.6638,7.6638,7.2327,6.7037,6.2956,5.6937,5.1078,4.7062,4.5677,4.523,4.523,4.6158,4.7474,4.913,5.176,5.6002,6.3016,6.4746,6.758,7.3802,7.4537,7.6579,8.1733,8.7738,9.1522,9.2156,9.2061,9.1685,9.0933,9.2866,9.277,9.0205,9.2884,9.3728,9.2436,9.326,9.3464,9.2988,9.2582,9.2198,9.1803,9.1396,9.0975,9.0654,9.169,9.1977,9.1921,9.3551,9.4078,9.3903,9.4697,9.5022,9.5022,9.5278,9.5398,9.529,9.4493,9.4203,9.395,9.232,9.1128,9.0141,8.9356,8.9106,8.9106,8.9106,8.841,8.7644,8.7597,8.6838,8.582,8.4872,8.464,8.464,8.464,8.464,8.464,8.464,8.464,8.4403,8.3625,8.349,8.3087,8.1885,8.1698,8.1526,8.1058,8.1248,8.081,7.9252,8.0003,8.0017,7.8568,7.843,7.8085,7.7247,7.7258,7.7223,7.7223,7.7223,7.7223,7.7223,7.7223,7.7178,7.7178,7.8017,7.843,7.8465,7.9913,8.1017,6.4749,6.7154,6.7948,6.6886,6.3182,5.905,5.5972,5.1569,4.7566,4.571,4.5152,4.501,4.501,4.5862,4.7172,4.8971,5.1112,5.4165,5.8845,6.2342,6.6713,7.2818,7.9857,8.5563,8.8975,9.1015,9.2214,9.2381,9.2198,9.2161,9.2338,9.2371,9.2144,9.1619,9.3652,9.4212,9.3077,9.3806,9.37,9.2788,9.2786,9.2463,9.1803,9.1091,9.0701,9.069,9.1913,9.2621,9.2887,9.3992,9.4367,9.4184,9.4611,9.4763,9.4806,9.5022,9.4697,9.4107,9.4024,9.3146,9.2088,9.1707,9.0551,8.9244,8.917,8.8139,8.703,8.703,8.7316,8.7457,8.6741,8.582,8.4995,8.466,8.464,8.464,8.464,8.464,8.464,8.464,8.464,8.4539,8.4302,8.3828,8.3629,8.3958,8.2684,8.1866,8.2424,8.1865,8.1222,8.0741,8.1151,8.0603,7.8568,7.8879,7.8753,7.7823,7.7926,7.7685,7.6964,7.7099,7.7223,7.7223,7.7223,7.7499,7.8017,7.8775,7.9707,8.0741,8.119,8.1629,5.8484,6.1224,6.2259,6.1298,5.7804,5.4147,5.256,4.8813,4.5558,4.5028,4.4914,4.4914,4.4914,4.5726,4.7002,4.8794,5.0798,5.3785,5.8599,6.2043,6.6717,7.3762,8.2352,8.8628,9.0898,9.1948,9.2634,9.2954,9.2762,9.2695,9.2845,9.269,9.2493,9.2203,9.3737,9.4166,9.3426,9.442,9.4313,9.3063,9.3013,9.2721,9.2205,9.1115,9.0581,9.069,9.1919,9.2502,0.0,9.4112,9.4482,9.4213,9.4347,9.4551,9.4711,9.485,9.4302,9.3453,9.3337,9.2358,9.1193,9.1078,8.9786,8.8219,8.7586,8.7316,8.7078,8.6286,8.679,8.7363,8.6336,8.5378,8.464,8.464,8.464,8.464,8.464,8.464,8.464,8.464,8.464,8.464,8.464,8.434,8.4261,8.4726,8.3449,8.2576,8.2996,8.2197,8.1434,8.1125,8.1173,8.0578,7.8982,7.9132,7.897,7.8075,7.7766,7.7343,7.6691,7.6918,7.7054,7.7054,7.7178,7.742,7.7811,7.8569,7.9786,8.1362,8.1456,8.1827,0.0,5.5437,5.8621,5.8583,5.5142,5.1767,5.1691,4.817,0.0,4.4914,4.4914,4.4914,4.499,4.5741,4.6973,4.8712,5.0798,5.4559,6.1423,6.4007,6.8353,7.6912,8.2921,8.7069,8.8905,9.1167,9.2827,9.3654,9.3593,9.3288,9.2791,9.3725,9.3612,9.219,9.3332,9.3725,9.3252,9.4894,9.502,9.3704,9.3382,9.3158,9.2923,9.1324,9.0618,9.065,9.1638,9.1929,9.1814,9.3766,9.4365,9.399,9.399,9.4267,9.4667,9.4667,9.4128,9.3337,9.2547,9.1756,9.1043,9.0383,8.9011,8.7221,8.5274,8.6679,8.8499,8.6532,8.6693,8.7268,8.6237,8.5274,8.4587,8.4587,8.4587,8.464,8.464,8.464,8.464,8.464,8.464,8.464,8.464,8.4906,8.4982,8.4472,8.3974,8.3468,8.3038,8.228,8.1522,8.0682,8.0424,8.0068,7.9648,7.9337,7.8853,7.8098,7.7227,7.6632,7.6563,7.6725,7.6828,7.6851,7.7101,7.7125,7.6896,7.7616,7.8922,8.0635,8.0881,8.1676,4.6098,0.0,4.9956,4.9428,4.8461,4.7452,0.0,4.5735,4.4914,4.4914,4.4914,4.5103,4.5786,4.6088,4.7048,4.9489,5.1595,5.5152,6.153,7.023,7.8452,8.5177,8.7806,9.0,9.2377,9.2554,9.2561,9.271,9.321,9.3658,9.409,9.3948,9.3678,9.3331,9.4042,9.3573,9.1799,9.3066,9.4017,9.4704,9.5405,9.4773,9.2923,9.1317,9.0602,9.0629,9.0874,9.1484,9.2364,9.3175,9.3739,9.3996,9.3996,9.4079,9.4186,9.4321,9.3775,9.2854,9.2243,9.1447,9.0486,8.9288,8.831,8.7363,8.6087,8.6237,8.6532,8.5326,8.5702,8.6187,8.4961,8.4606,8.4587,8.4372,8.448,8.464,8.464,8.464,8.464,8.464,8.48,8.4958,8.4958,8.5255,8.5446,8.5498,8.4711,8.3958,8.3502,8.26,8.1748,8.0994,8.0829,8.076,8.0638,8.02,7.9643,7.8887,7.86,7.8164,7.7349,7.6965,7.6976,7.7408,7.7625,7.7735,7.7798,7.8,7.9094,8.1036,8.1136,8.198,4.4317,4.5232,4.6063,4.5697,4.5596,4.5483,4.5028,4.4914,4.4914,4.4914,4.5217,4.5634,4.6089,4.721,4.865,5.0418,5.4207,5.9095,6.5291,7.2895,7.9968,8.5647,8.7421,8.9841,9.3972,9.3231,9.2602,9.2963,9.3608,9.4192,9.4596,9.4188,9.3889,9.3786,9.2645,9.1783,9.1293,9.3937,9.5249,9.5184,9.6135,9.5713,9.4034,9.165,9.0609,9.0609,9.0617,9.1591,9.3294,9.433,9.4706,9.4589,9.4142,9.4007,9.4005,9.4141,9.3381,9.2175,9.1916,9.1153,8.9986,8.834,8.7714,8.7316,8.5871,8.5719,8.5871,8.489,8.5222,8.5668,8.4626,8.4426,8.4426,8.4426,8.45,8.464,8.464,8.464,8.464,8.464,8.4747,8.4853,8.4853,8.5221,8.5378,8.5053,8.4694,8.4282,8.3494,8.2642,8.1977,8.1699,8.116,8.0906,8.1151,8.1034,8.0424,7.9378,7.8873,7.8354,7.7802,7.736,7.7182,7.7314,7.7614,7.7984,7.8336,7.808,7.9043,8.1104,8.1021,8.1698,4.4192,4.4992,4.5672,4.5053,4.4914,4.4914,4.4914,4.499,4.5103,4.5103,4.5786,4.6455,4.6757,4.8694,5.0631,5.1726,5.795,6.4721,7.0717,7.4906,7.9042,8.3569,8.5742,8.8967,9.4202,9.333,9.2758,9.3599,9.4249,9.4663,9.4757,9.4624,9.433,9.3792,9.1155,9.0172,9.1041,9.5087,9.6547,9.5439,9.6082,9.6085,9.5295,9.2592,9.0972,9.0396,9.0407,9.1495,9.3417,9.5477,9.5808,9.5001,9.4284,9.4015,9.3995,9.3995,9.3139,9.1925,9.1711,9.091,8.9713,8.7831,8.7386,8.7221,8.5549,8.5344,8.5617,8.4995,8.5292,8.5566,8.4732,8.4426,8.4319,8.45,8.4553,8.464,8.464,8.464,8.464,8.464,8.464,8.4694,8.4694,8.5116,8.5172,8.418,8.4421,8.4318,8.3193,8.2494,8.2116,8.2208,8.1232,8.0793,8.119,8.1372,8.0935,7.9768,7.8837,7.8262,7.7927,7.7697,7.743,7.6991,7.7466,7.7918,7.8332,7.7865,7.8649,8.0646,8.0609,8.1159,4.4147,4.6997,4.9074,4.5735,4.4914,4.4914,4.4914,4.5483,4.6013,4.6013,4.6657,4.7732,4.9379,4.9904,5.109,5.4273,6.2545,7.0335,7.5302,8.0938,8.5074,8.6633,8.8984,9.1115,9.2747,9.2615,9.2723,9.3483,9.4212,9.4851,9.548,9.5904,9.5265,9.337,9.3251,9.2177,8.9972,9.2458,9.4338,9.5396,9.5553,9.5498,9.539,9.4885,9.2769,8.9534,8.9536,8.9696,9.0254,9.3193,9.4319,9.4205,9.4064,9.399,9.3995,9.3995,9.3817,9.3424,9.2068,9.091,8.9797,8.8686,8.7807,8.7268,8.7173,8.5735,8.4412,8.5549,8.5971,8.577,8.4573,8.4426,8.448,8.4319,8.4392,8.464,8.464,8.464,8.464,8.464,8.4853,8.5011,8.5011,8.5307,8.5291,8.4596,8.4384,8.3824,8.2561,8.2135,8.1646,8.0966,8.0727,8.0597,8.0591,8.0496,8.0425,8.0426,8.0275,7.9411,7.763,7.7917,7.7707,7.6921,7.7379,7.7446,7.7069,7.7013,7.7673,7.9078,7.9638,8.0641,4.3989,4.5781,4.7686,4.7998,5.0128,5.2145,5.2145,5.2914,5.3101,5.1282,5.1585,5.1925,5.113,5.4051,5.8883,6.5924,6.917,7.2415,7.7048,7.9334,8.1719,8.4912,8.7144,8.9495,9.2194,9.2407,9.271,9.3441,9.4192,9.4929,9.5649,9.6165,9.5665,9.3956,9.3837,9.2941,9.1041,9.2742,9.5107,9.7945,9.6239,9.5392,9.5354,9.4331,9.1897,8.8587,8.9094,8.9835,9.0774,9.2209,9.3266,9.3992,9.4007,9.3998,9.3888,9.2996,9.271,9.2461,9.089,9.0108,8.955,8.8153,8.7386,8.7017,8.6873,8.5735,8.4856,8.582,8.5464,8.4804,8.45,8.4123,8.3867,8.4325,8.4196,8.4133,8.4539,8.464,8.464,8.464,8.4446,8.4339,8.4339,8.4339,8.4009,8.3172,8.3691,8.3692,8.2282,8.2608,8.2563,8.1558,8.1288,8.1072,8.0655,8.0697,8.0695,8.0521,8.0187,7.9432,7.8186,7.8722,7.8376,7.6877,7.7786,7.7981,7.7255,7.6952,7.7451,7.8628,7.8686,7.9406,4.3859,4.5092,4.7108,5.0538,5.3434,5.5993,5.811,5.8623,5.8337,5.7147,5.7506,5.7192,5.4417,5.8767,6.5562,7.395,7.3922,7.4417,7.914,7.9065,8.0204,8.4765,8.6817,8.9118,9.2383,9.2847,9.318,9.3716,9.4423,9.5192,9.5907,9.6222,9.5763,9.4425,9.4056,9.3279,9.1974,9.3071,9.5457,9.9018,9.6559,9.5397,9.5314,9.337,9.1337,8.9361,8.9841,9.049,9.1203,9.1209,9.2343,9.3998,9.3989,9.4005,9.3817,9.2389,9.1783,9.1426,9.007,8.9593,8.9292,8.7468,8.6846,8.6728,8.6434,8.5583,8.4946,8.6137,8.5188,8.3905,8.4244,8.3771,8.3361,8.3945,8.3659,8.3404,8.3988,8.4156,8.419,8.4359,8.3872,8.3543,8.3708,8.3432,8.2876,8.1887,8.2877,8.3205,8.1859,8.2585,8.2852,8.1846,8.1596,8.1206,8.0584,8.078,8.0688,8.0035,7.9845,7.9397,7.8461,7.9182,7.8705,7.6815,7.7852,7.8145,7.765,7.7236,7.7581,7.8574,7.8437,7.8827,4.3689,4.7086,5.0825,5.2671,5.0052,4.9243,5.754,5.7159,5.6544,6.1798,6.3177,6.2901,6.1034,6.2775,6.58,6.976,7.3721,7.8185,8.3508,8.5594,8.7592,9.0312,9.2165,9.3326,9.3588,9.424,9.4601,9.4529,9.5192,9.5945,9.6696,9.6386,9.557,9.4062,9.4253,9.3457,9.1574,9.1817,9.3268,9.5731,9.5513,9.5397,9.5305,9.3414,9.2915,9.3511,9.2658,9.1202,8.9492,8.9477,9.1253,9.3978,9.3998,9.4024,9.3888,9.3032,9.2246,9.1497,9.0712,9.0057,8.9256,8.7208,8.6498,8.6512,8.6982,8.5224,8.3674,8.6658,8.5684,8.3771,8.3602,8.3524,8.3355,8.2712,8.2543,8.2522,8.2731,8.2757,8.2958,8.3628,8.3265,8.3042,8.3598,8.321,8.2647,8.2009,8.1984,8.1835,8.1158,8.1188,8.1082,8.0714,8.08,8.0531,7.9679,7.9879,7.9732,7.89,7.9958,7.9694,7.7741,7.8396,7.815,7.6815,7.6912,7.7204,7.7779,7.7754,7.8136,7.8874,7.9529,7.9886,4.4485,4.8596,5.284,5.3871,5.3634,5.5367,6.3803,6.5275,6.565,6.8375,6.9095,6.8756,6.7316,6.9969,7.2874,7.4527,7.8209,8.1987,8.5114,8.6623,8.8344,9.0883,9.273,9.3548,9.2951,9.4045,9.4747,9.4596,9.5285,9.5835,9.6163,9.6171,9.554,9.4099,9.4885,9.4319,9.2202,9.3114,9.3677,9.3915,9.4897,9.541,9.5295,9.3408,9.3379,9.4846,9.4473,9.2984,9.0766,8.9707,8.999,9.1296,9.3256,9.3989,9.3969,9.3657,9.2729,9.1426,9.0196,8.9606,8.9075,8.7148,8.6921,8.7363,8.7268,8.5717,8.4596,8.6948,8.5442,8.3201,8.3399,8.3152,8.2746,8.2475,8.2113,8.1999,8.2469,8.2676,8.2899,8.3686,8.3341,8.3128,8.3821,8.3454,8.3014,8.2775,8.2943,8.2813,8.1802,8.244,8.2435,8.0901,8.0742,8.062,8.0211,8.0068,7.9632,7.8733,7.9266,7.9007,7.7771,7.8421,7.8177,7.6815,7.7657,7.8014,7.7819,7.8273,7.8629,7.8888,7.9179,7.9536,4.4591,4.8198,5.2343,5.4896,5.6661,6.0156,6.915,7.0116,7.0118,7.3804,7.3935,7.3231,7.2793,7.5044,7.7041,7.7356,8.0535,8.3828,8.619,8.702,8.8544,9.164,9.3068,9.3539,9.2873,9.4237,9.499,9.4635,9.548,9.6057,9.6037,9.6134,9.5502,9.4015,9.4921,9.4382,9.2072,9.3199,9.3536,9.3009,9.4048,9.4571,9.4443,9.3095,9.3562,9.5375,9.4749,9.3533,9.19,9.0039,8.9315,8.9619,9.2782,9.4015,9.4005,9.3962,9.3283,9.205,9.0018,8.9348,8.9146,8.7309,8.73,8.7864,8.7173,8.5868,8.5086,8.6886,8.5119,8.2744,8.2956,8.2558,8.2002,8.1765,8.1387,8.1255,8.1851,8.2212,8.2671,8.3458,8.3329,8.3269,8.3971,8.377,8.3467,8.3467,8.3827,8.3706,8.2721,8.3151,8.2858,8.0996,8.0596,8.0451,8.0415,8.0131,7.9516,7.8452,7.873,7.8467,7.7528,7.8175,7.8014,7.6815,7.7949,7.8402,7.8143,7.8888,7.9341,7.9568,7.9568,7.9827,4.3811,4.581,4.9251,5.5844,5.8189,6.1667,7.2431,6.9644,6.76,7.7641,7.7478,7.5935,7.7265,7.715,7.6816,7.6632,7.9679,8.3326,8.6897,8.7414,8.8974,9.3277,9.381,9.3778,9.3691,9.5029,9.5528,9.4663,9.5984,9.6707,9.6492,9.6302,9.5423,9.3769,9.4204,9.3342,9.0933,9.1655,9.2317,9.2967,9.2848,9.272,9.2484,9.2496,9.355,9.5309,9.3342,9.2474,9.2316,9.0179,8.9281,8.9579,9.2804,9.3985,9.4005,9.3981,9.3963,9.3533,9.0407,8.9486,8.9427,8.7749,8.7602,8.7818,8.6755,8.5498,8.4841,8.6469,8.4848,8.2556,8.2138,8.1626,8.1088,8.0378,8.0209,8.0257,8.053,8.1205,8.1939,8.2837,8.31,8.3378,8.3982,8.4129,8.4096,8.4096,8.4292,8.4244,8.3753,8.2765,8.1779,8.091,8.023,7.9872,7.9983,7.9957,7.9341,7.7916,7.8499,7.824,7.6848,7.7463,7.7495,7.6815,7.7463,7.8175,7.8888,7.9633,8.0345,8.0966,8.0966,8.0966,4.5305,5.1978,5.8564,5.8102,6.3628,7.0024,7.3106,7.2271,7.2727,7.9372,7.9934,7.882,7.742,7.9011,7.9679,7.7015,7.9679,8.3326,8.6897,8.7414,8.8779,9.246,9.3419,9.3768,9.3655,9.501,9.5778,9.5461,9.5849,9.5906,9.538,9.4934,9.4477,9.4135,9.38,9.3281,9.2465,9.271,9.2719,9.2436,9.2629,9.2988,9.3461,9.2818,9.3547,9.5261,9.3327,9.2496,9.2276,8.9485,8.8322,8.8693,9.2513,9.4005,9.399,9.4005,9.2603,9.0722,9.0882,9.024,8.9375,8.9084,8.8252,8.7468,8.7515,8.6707,8.6003,8.6679,8.4438,8.1833,8.1738,8.1129,8.036,7.9732,7.9861,8.0101,8.0066,8.0859,8.1885,8.298,8.3544,8.4131,8.4803,8.5299,8.5467,8.5089,8.531,8.4867,8.3264,8.2855,8.2312,8.1062,8.1198,8.1009,8.008,7.9957,7.9341,7.7916,7.8014,7.7722,7.6848,7.7463,7.7495,7.6815,7.7981,7.8661,7.8888,8.0119,8.0831,8.0966,8.0966,8.1144,4.7798,5.4434,6.1107,6.3347,6.8792,7.4076,7.5874,7.6457,7.7576,8.1205,8.1757,8.1261,8.0043,8.1113,8.1485,7.9174,8.0921,8.3755,8.6936,8.7684,8.9169,9.2616,9.3497,9.3993,9.4504,9.5379,9.6,9.6254,9.6304,9.5915,9.5005,9.487,9.4465,9.3652,9.359,9.3152,9.2423,9.2898,9.2806,9.2207,9.2601,9.3336,9.4463,9.3531,9.3484,9.416,9.3022,9.2052,9.1087,8.9218,8.8461,8.8778,9.2128,9.3654,9.4004,9.3995,9.2782,9.1123,9.0802,9.0049,8.926,8.8873,8.8475,8.803,8.7093,8.6568,8.6286,8.6175,8.3992,8.1658,8.1591,8.0699,7.9611,7.9094,7.8974,7.9188,7.9912,8.0802,8.2029,8.363,8.4504,8.5245,8.5915,8.659,8.6846,8.6494,8.623,8.5444,8.3696,8.3209,8.2746,8.196,8.2029,8.177,8.0896,8.109,8.0378,7.837,7.8758,7.8532,7.7236,7.7593,7.7625,7.7204,7.8596,7.9238,7.9062,8.0372,8.0955,8.0782,8.0896,8.1204,5.0739,5.4776,6.0029,6.9948,7.3341,7.5418,7.9871,8.1268,8.1933,8.2874,8.2965,8.3109,8.3951,8.3175,8.234,8.2234,8.2883,8.4373,8.7248,8.827,9.0027,9.3514,9.3927,9.4495,9.597,9.6048,9.6315,9.7108,9.7049,9.6406,9.5058,9.5414,9.4767,9.2758,9.336,9.3081,9.1668,9.2598,9.2807,9.2298,9.2733,9.3748,9.5235,9.4228,9.3333,9.247,9.2294,9.1115,8.9265,8.93,8.9244,8.941,9.163,9.3093,9.4004,9.3969,9.3981,9.356,9.0748,8.9437,8.8932,8.7714,8.8323,8.9037,8.6073,8.5624,8.5955,8.5199,8.3537,8.1884,8.1476,8.0195,7.8874,7.8444,7.7912,7.8015,7.9895,8.0926,8.2156,8.4664,8.5673,8.6315,8.6918,8.7603,8.7978,8.7869,8.6984,8.5848,8.4661,8.3723,8.3209,8.3191,8.2644,8.2256,8.2126,8.2709,8.1932,7.9147,8.0216,8.0021,7.7981,7.7916,7.7884,7.7876,7.9302,7.9834,7.9374,8.049,8.0879,8.0554,8.0847,8.1198,5.1991,5.9853,6.8451,7.1316,7.5707,7.9803,8.1627,8.2893,8.3675,8.3707,8.316,8.2946,8.3906,8.307,8.2422,8.3007,8.3273,8.4808,8.8809,8.9519,9.0927,9.4412,9.4825,9.5382,9.6818,9.6882,9.7264,9.8262,9.6963,9.5768,9.4886,9.3498,9.2936,9.3355,9.2831,9.2865,9.3671,9.3826,9.3585,9.2876,9.3649,9.4115,9.4245,9.3255,9.2702,9.2425,9.0687,8.9725,8.9279,8.9307,8.888,8.8502,9.1377,9.3079,9.4004,9.3985,9.3998,9.3891,9.3193,9.0658,8.7676,8.7402,8.8007,8.8559,8.7122,8.6436,8.5921,8.5186,8.3543,8.173,8.0605,7.9119,7.7783,7.7213,7.7972,7.8958,7.958,8.0899,8.2477,8.4128,8.5031,8.5512,8.5645,8.6435,8.712,8.7716,8.6613,8.5321,8.434,8.4524,8.4417,8.3292,8.3519,8.3292,8.2191,8.2256,8.1608,7.9859,8.0021,7.973,7.8694,7.8661,7.8517,7.8194,7.956,8.0091,7.9659,8.1073,8.1727,8.1621,8.1138,8.141,5.3794,6.0473,6.7406,7.342,7.8202,8.1542,8.2033,8.3145,8.432,8.502,8.4836,8.4859,8.5796,8.5268,8.4815,8.5203,8.596,8.7442,9.015,9.0892,9.2411,9.5893,9.6249,9.6934,9.8819,9.8551,9.8472,9.8962,9.7417,9.5983,9.4909,9.3638,9.3155,9.3566,9.3342,9.3447,9.3966,9.4741,9.4431,9.302,9.4052,9.4088,9.3272,9.3674,9.3398,9.2344,9.0206,8.9321,8.9307,8.929,8.8738,8.8255,9.1859,9.3562,9.4004,9.3995,9.4007,9.3811,9.2286,9.0261,8.8137,8.7527,8.8036,8.8845,8.8355,8.7216,8.5822,8.4379,8.2716,8.1037,7.9616,7.8376,7.7391,7.7123,7.7956,7.8972,7.944,8.1321,8.3393,8.5074,8.5959,8.6606,8.7036,8.7153,8.7212,8.7512,8.629,8.5215,8.472,8.5063,8.5009,8.4264,8.4523,8.4296,8.3195,8.3422,8.2871,8.1122,8.1317,8.1085,8.0191,8.0126,7.986,7.9317,8.0533,8.0796,7.9997,8.1361,8.1722,8.1147,8.0943,8.1451,5.4424,5.9534,6.4989,7.6315,8.0603,8.2127,8.2459,8.3339,8.4593,8.6223,8.6478,8.6775,8.783,8.7564,8.7256,8.7507,8.8729,9.016,9.145,9.2267,9.3975,9.7415,9.7705,9.8524,10.0796,10.0108,9.9467,9.9402,9.7825,9.6319,9.5044,9.4302,9.3816,9.3604,9.4001,9.4112,9.3896,9.535,9.5174,9.3445,9.4338,9.4007,9.2558,9.4182,9.4006,9.2382,9.022,8.9305,8.9305,8.9281,8.9128,8.9285,9.2687,9.4036,9.3979,9.4015,9.365,9.2836,9.0199,8.9185,8.8775,8.7658,8.81,8.9004,8.8344,8.7212,8.5637,8.3509,8.1736,8.0289,7.9199,7.7971,7.7092,7.7438,7.8145,7.8973,7.9686,8.1923,8.4352,8.6108,8.6951,8.7677,8.8485,8.7926,8.7278,8.6938,8.5987,8.5281,8.5298,8.5268,8.5268,8.5268,8.5268,8.5041,8.4426,8.4944,8.449,8.258,8.3033,8.2891,8.1727,8.1721,8.1486,8.0957,8.1647,8.1541,8.0474,8.1467,8.15,8.0639,8.0678,8.1302,5.089,6.0129,7.1228,8.0575,8.2513,8.2723,8.4854,8.5182,8.5279,8.623,8.5889,8.594,8.7692,8.7057,8.6749,8.8204,8.8628,8.9866,9.3012,9.3564,9.4917,9.8313,9.8607,9.9187,10.0796,10.0108,9.9564,9.9713,9.7439,9.5847,9.5369,9.3633,9.3015,9.3778,9.365,9.4054,9.512,9.5383,9.5382,9.5087,9.5229,9.4313,9.2539,9.2739,9.2778,9.2354,9.0252,8.9285,8.9307,8.9307,9.0863,9.3236,9.3761,9.4021,9.3995,9.3989,9.2282,8.9885,8.946,8.8549,8.7554,8.7366,8.7825,8.7831,8.4742,8.4876,8.5669,8.3507,8.1469,8.0023,8.0332,7.8242,7.6265,7.7268,7.8822,8.0291,8.079,8.2603,8.4413,8.5327,8.5549,8.5927,8.6785,8.6217,8.5636,8.5547,8.5411,8.5265,8.5268,8.5268,8.5268,8.5268,8.5268,8.5235,8.5138,8.5235,8.4911,8.3972,8.4005,8.3577,8.2509,8.2648,8.2877,8.3103,8.2634,8.2114,8.1602,8.1745,8.2042,8.2496,8.0653,8.0884,5.2274,6.1326,7.0586,7.8473,8.1222,8.2392,8.4026,8.4703,8.5294,8.6187,8.6014,8.6404,8.8849,8.9114,8.9368,9.0603,9.1188,9.2225,9.4223,9.4905,9.6289,9.9286,9.9833,10.0405,10.1612,10.0509,9.9731,9.9695,9.7495,9.6117,9.5913,9.4301,9.3783,9.4674,9.4144,9.4325,9.5362,9.5382,9.6033,9.7255,9.5958,9.4373,9.2478,9.2467,9.2505,9.2377,9.0198,8.93,8.9272,8.8703,9.0666,9.3989,9.3995,9.3995,9.4005,9.3971,9.1997,8.9279,8.927,8.8411,8.7297,8.7304,8.6386,8.4972,8.3347,8.355,8.413,8.3176,8.1823,8.0563,7.9813,7.8607,7.7672,7.8158,7.986,8.1548,8.2383,8.4309,8.5992,8.629,8.6383,8.639,8.6581,8.6201,8.5842,8.5809,8.5512,8.5268,8.5268,8.5268,8.5268,8.5268,8.5268,8.5268,8.5268,8.5268,8.5138,8.4847,8.4612,8.437,8.4053,8.3953,8.405,8.4374,8.3648,8.3233,8.3049,8.3446,8.338,8.2883,8.232,8.2585,5.2645,5.9414,6.5531,7.4183,7.7994,8.0311,8.2944,8.4268,8.5182,8.6273,8.6174,8.677,8.9496,9.047,9.1237,9.2303,9.3045,9.3841,9.4931,9.5614,9.7031,9.9868,10.0416,10.0903,10.1813,10.0601,9.956,9.9171,9.7337,9.6212,9.6309,9.5221,9.4851,9.5368,9.4689,9.4657,9.5362,9.4919,9.561,9.7504,9.5806,9.4137,9.2514,9.2233,9.2316,9.2563,9.0305,8.976,9.0445,8.9724,9.1254,9.3943,9.3363,9.3516,9.3924,9.3531,9.1529,8.9046,8.904,8.8037,8.6746,8.6746,8.535,8.3653,8.3087,8.2884,8.2899,8.2907,8.1963,8.0678,7.9798,7.93,7.916,7.9533,8.1548,8.3639,8.4446,8.5883,8.7069,8.7196,8.6951,8.6693,8.6567,8.6249,8.6013,8.598,8.558,8.5268,8.5268,8.5268,8.5268,8.5268,8.5268,8.5268,8.5268,8.5268,8.5268,8.5268,8.5092,8.5042,8.5177,8.4985,8.5076,8.5368,8.4838,8.4473,8.4275,8.4639,8.4241,8.3181,8.3546,8.3811,4.9204,5.1845,5.5792,6.8631,7.2755,7.5576,8.2874,8.4732,8.525,8.6525,8.6219,8.6451,8.8833,8.9667,9.052,9.2202,9.2522,9.3159,9.4866,9.5143,9.6406,9.9794,9.9599,9.9571,10.0507,9.9767,9.8861,9.7941,9.6543,9.5906,9.6272,9.5873,9.5548,9.541,9.4859,9.4826,9.5362,9.3566,9.3181,9.422,9.4052,9.3461,9.2483,9.1445,9.1799,9.3002,9.0411,9.0995,9.3721,9.3712,9.3791,9.3776,9.1631,9.2129,9.3797,9.2306,9.0301,8.8356,8.8326,8.6965,8.5195,8.5195,8.5506,8.5567,8.3529,8.2898,8.2891,8.2963,8.1381,7.9938,8.1174,8.0545,7.9912,8.1339,8.4412,8.7012,8.6998,8.6825,8.6765,8.7097,8.6228,8.5552,8.6193,8.5766,8.533,8.533,8.533,8.5268,8.5268,8.5268,8.5268,8.5268,8.5268,8.5268,8.5268,8.5268,8.5268,8.5268,8.558,8.5564,8.521,8.5478,8.5835,8.613,8.6122,8.5732,8.5037,8.4374,8.401,8.3943,8.3281,8.3314,4.6855,4.9801,5.3444,6.2919,6.934,7.3791,7.5582,8.0689,8.5113,8.549,8.5698,8.6092,8.6991,8.8655,9.0477,9.2225,9.2514,9.2727,9.3332,9.5311,9.7451,9.9435,10.0107,10.0407,10.0504,9.8821,9.786,9.8162,9.6818,9.6191,9.6692,9.6253,9.5988,9.5923,9.5363,9.4933,9.4463,9.3149,9.2662,9.3026,9.3012,9.2447,9.1445,9.1069,9.1352,9.2159,9.1916,9.2457,9.3521,9.3852,9.401,9.3897,9.3096,9.2386,9.1778,9.1661,9.0188,8.8259,8.7844,8.6534,8.5119,8.5089,8.5047,8.48,8.4035,8.3387,8.2954,8.3001,8.1819,8.048,8.0585,8.0878,8.1801,8.4142,8.6219,8.784,8.846,8.7793,8.7032,8.6929,8.6409,8.5908,8.5707,8.5455,8.5268,8.5268,8.5268,8.5268,8.5268,8.5268,8.5268,8.5268,8.5268,8.5268,8.5268,8.5268,8.5425,8.5613,8.5923,8.616,8.6234,8.6534,8.6773,8.6892,8.6892,8.6759,8.6494,8.6229,8.5633,8.4738,8.5401,8.5368,4.3943,4.6507,4.9824,5.7602,6.3857,6.9315,7.3855,7.981,8.4436,8.5035,8.5619,8.6207,8.6677,8.7931,8.9693,9.2125,9.2507,9.2649,9.3059,9.5468,9.7793,9.947,9.9925,10.0108,9.9923,9.7942,9.6963,9.7619,9.7027,9.6775,9.7172,9.699,9.669,9.6336,9.5752,9.4979,9.406,9.3336,9.283,9.2517,9.2489,9.2021,9.1069,9.1234,9.1493,9.193,9.261,9.3093,9.3303,9.3705,9.3604,9.3309,9.3404,9.2494,9.1163,9.0964,9.0099,8.8905,8.7847,8.646,8.5147,8.538,8.475,8.382,8.3832,8.3437,8.2928,8.2769,8.202,8.1391,8.1429,8.255,8.4275,8.6651,8.7621,8.8298,8.9091,8.8316,8.7448,8.7314,8.6976,8.6595,8.6077,8.5818,8.5656,8.5656,8.5462,8.5268,8.5268,8.5268,8.5268,8.5268,8.5268,8.5363,8.5488,8.5488,8.5613,8.5923,8.6291,8.6535,8.681,8.711,8.7289,8.7289,8.7289,8.7289,8.7289,8.7289,8.666,8.55,8.6726,8.6759,0.0,0.0,0.0,5.2717,5.6145,6.1675,7.7652,8.1859,8.2965,8.5033,8.5889,8.6662,8.8011,8.7589,8.8162,9.1777,9.2416,9.2925,9.4163,9.5584,9.7416,9.9865,9.915,9.8478,9.8643,9.7172,9.626,9.6299,9.7102,9.7661,9.779,9.7981,9.7607,9.6612,9.5818,9.5065,9.4285,9.406,9.3449,9.2537,9.2554,9.2132,9.1409,9.1906,9.2222,9.2382,9.2382,9.2784,9.3445,9.3449,9.2823,9.1955,9.2154,9.2253,9.2049,9.0105,8.9898,9.0291,8.8422,8.661,8.5268,8.5964,8.4738,8.3002,8.3027,8.2996,8.2823,8.2313,8.2093,8.2368,8.393,8.5661,8.7257,8.8634,8.8674,8.8557,8.8957,8.847,8.8045,8.8361,8.7885,8.7437,8.7437,8.6887,8.6433,8.6433,8.5786,8.53,8.53,8.53,8.5268,8.5268,8.5268,8.5425,8.5737,8.5799,8.5923,8.6291,8.6595,8.681,8.681,8.711,8.7289,8.7289,8.7289,8.7289,8.7289,8.7289,8.6892,8.6255,8.6892,8.7256,4.0104,0.0,0.0,0.0,0.0,0.0,5.6725,6.6611,7.671,8.0776,8.3448,8.5559,8.7068,8.7064,8.7261,8.8475,9.0802,9.3049,9.466,9.6953,9.8768,9.9474,9.9221,9.869,9.7893,9.7027,9.6515,9.6522,9.72,9.7727,9.7982,9.7368,9.6764,9.618,9.5654,9.5108,9.4587,9.415,9.3612,9.3002,9.3024,9.2318,9.1104,9.2123,9.2316,9.1871,9.226,9.2401,9.2329,9.2351,9.2154,9.182,9.1314,9.1074,9.0953,8.9795,8.9263,8.8913,8.7812,8.6569,8.5644,8.6369,8.6019,8.5185,8.4701,8.4244,8.3723,8.3094,8.2525,8.2716,8.5146,8.6759,8.8012,8.9411,8.964,8.9674,8.974,8.9448,8.9025,8.8571,8.8344,8.8053,8.7502,8.7275,8.7146,8.7146,8.6563,8.611,8.611,8.5624,8.5268,8.5268,8.5268,8.5425,8.5737,8.5799,8.6046,8.6628,8.6749,8.693,8.717,8.7289,8.7289,8.7289,8.7289,8.7289,8.7289,8.7289,8.6892,8.6163,8.6395,8.7024,0.0,0.0,0.0,4.3556,0.0,0.0,5.177,6.1017,7.139,7.8842,8.1516,8.3283,8.5978,8.6107,8.6208,8.748,8.943,9.1393,9.3078,9.5741,9.768,9.8007,9.8297,9.8229,9.7584,9.6806,9.6337,9.6177,9.6734,9.704,9.6987,9.6881,9.6514,9.5784,9.5513,9.5193,9.4806,9.4195,9.374,9.3357,9.3002,9.2353,9.1445,9.2468,9.2361,9.1431,9.1976,9.188,9.1314,9.0745,9.0516,9.0569,9.1109,9.071,8.9879,8.9913,8.9267,8.8361,8.7592,8.6596,8.5821,8.6365,8.6204,8.5589,8.4655,8.4312,8.4027,8.3067,8.3319,8.4403,8.6527,8.7858,8.8895,8.9838,8.987,8.9608,8.9608,8.9608,8.9445,8.9024,8.8959,8.8895,8.8571,8.815,8.7955,8.8052,8.7113,8.6465,8.6591,8.5942,8.5488,8.5488,8.5488,8.5613,8.5799,8.5923,8.623,8.6749,8.693,8.711,8.7289,8.7289,8.7289,8.7289,8.7289,8.7289,8.7289,8.7289,8.7057,8.6627,8.6627,8.709,0.0,0.0,0.0,0.0,4.3847,0.0,5.5153,5.9909,6.5345,7.5769,7.747,7.8381,8.2714,8.2951,8.3369,8.5873,8.6825,8.8079,9.0516,9.3272,9.5349,9.6075,9.6789,9.7256,9.722,9.65,9.5825,9.546,9.6057,9.6094,9.5436,9.6467,9.6548,9.5436,9.5381,9.5314,9.5065,9.4285,9.3832,9.3602,9.2784,9.229,9.2211,9.2737,9.2311,9.1192,9.1606,9.1263,9.0288,8.9082,8.8643,8.8869,9.0953,9.05,8.8824,8.9893,8.9368,8.8109,8.746,8.6621,8.5861,8.6244,8.5861,8.5024,8.3791,8.3846,8.4044,8.2907,8.4466,8.6721,8.7787,8.886,8.9674,9.0066,8.9607,8.9044,8.8947,8.9246,8.9542,8.9706,8.9739,8.9772,9.0099,8.9285,8.8766,8.9057,8.7597,8.6658,8.6941,8.6225,8.5737,8.5737,8.5737,8.5799,8.5861,8.6107,8.6474,8.687,8.717,8.7289,8.7289,8.7289,8.7289,8.7289,8.7289,8.7289,8.7289,8.7289,8.7322,8.7389,8.7322,8.7289,4.1875,0.0,4.2188,4.2865,4.3036,0.0,4.7161,4.8973,5.1865,5.8433,6.09,6.3475,6.8806,7.0379,7.1502,7.351,7.7414,8.2758,9.0109,9.338,9.5077,9.5246,9.5551,9.5631,9.5422,9.5406,9.5161,9.4593,9.5751,9.6169,9.544,9.5916,9.5961,9.5436,9.5381,9.5362,9.532,9.4374,9.3888,9.3842,9.3157,9.2764,9.261,9.2377,9.2066,9.1599,9.1084,9.0235,8.9181,8.8937,8.8858,8.8802,8.8438,8.8012,8.7636,8.7837,8.7603,8.7104,8.6957,8.6771,8.6612,8.6684,8.6398,8.5898,8.5039,8.4567,8.4283,8.4613,8.5713,8.7111,8.8302,8.9347,9.0164,9.0456,8.9996,8.9306,8.8694,8.9053,8.9739,9.0489,9.0294,9.0099,9.0454,8.9903,8.9512,8.9806,8.8344,8.7211,8.7275,8.6204,8.5425,8.5425,8.5425,8.5613,8.6169,8.6291,8.6535,8.7137,8.7289,8.7289,8.7289,8.7289,8.7289,8.7289,8.7289,8.7289,8.7289,8.7289,8.7554,8.8084,8.7521,8.7289,4.3376,4.2374,4.2002,4.2166,4.25,0.0,0.0,4.8199,5.0391,5.6488,5.8439,6.0481,6.5076,6.576,6.6531,6.9234,7.4055,7.8131,7.9983,8.7699,9.3123,9.3045,9.4021,9.4744,9.4876,9.4686,9.444,9.4095,9.4796,9.4878,9.4247,9.5331,9.562,9.4812,9.54,9.5571,9.5398,9.4551,9.3891,9.3497,9.2591,9.2045,9.1753,9.1326,9.0836,9.0347,8.9957,8.916,8.8094,8.8094,8.8094,8.8094,8.8094,8.7754,8.7375,8.7895,8.7312,8.6316,8.6858,8.6666,8.6316,8.6497,8.6413,8.6075,8.5047,8.4219,8.4051,8.587,8.6066,8.6233,8.8265,8.9115,8.9575,8.9998,8.9669,8.9079,8.8728,8.9119,8.9641,9.0098,9.0163,9.0196,9.0519,9.0033,8.9706,9.0033,8.8539,8.7469,8.7597,8.6427,8.555,8.555,8.5737,8.5861,8.6046,8.6352,8.6656,8.705,8.723,8.7289,8.7289,8.7289,8.7289,8.7289,8.7289,8.7289,8.7289,8.7289,8.7256,8.7223,8.6527,8.6196,4.4994,4.29,4.1742,4.1817,4.2314,4.3875,0.0,0.0,0.0,5.6538,5.778,5.8746,6.1627,6.136,6.1694,6.4765,6.9663,7.1697,6.7765,7.8533,8.7057,8.7609,9.0924,9.3087,9.2802,9.2449,9.2708,9.3848,9.3009,9.2631,9.2984,9.4763,9.5294,9.4225,9.5379,9.5818,9.5398,9.4719,9.3935,9.3103,9.2009,9.1349,9.1032,9.0199,8.955,8.9181,8.8768,8.8094,8.7289,8.7289,8.7289,8.7375,8.8267,8.8036,8.7375,8.8099,8.7361,8.6105,8.6865,8.6581,8.6079,8.6216,8.6169,8.5766,8.4539,8.3863,8.3918,8.6493,8.6132,8.5644,8.8134,8.8883,8.9081,8.9475,8.9244,8.9014,8.9282,8.9478,8.9641,8.9773,8.9968,9.0228,9.0483,9.0001,8.9675,8.9837,8.8537,8.7565,8.7784,8.6643,8.5923,8.5923,8.6169,8.623,8.5984,8.6507,8.681,8.693,8.717,8.7289,8.7289,8.7289,8.7289,8.7289,8.7289,8.7289,8.7289,8.7123,8.6759,8.6221,8.56,8.5202,4.5908,4.3355,4.2634,4.2649,4.2723,4.3132,4.4395,0.0,4.535,4.6107,0.0,4.8209,4.8624,0.0,0.0,5.152,5.6216,5.9769,5.9957,6.6194,7.1856,7.4879,8.3997,8.8717,8.5378,8.5808,8.8416,9.3547,8.9836,8.899,9.2798,9.421,9.4705,9.4189,9.5379,9.5818,9.5398,9.4893,9.4148,9.3103,9.2113,9.1834,9.208,8.9673,8.9198,9.0185,8.829,8.7434,8.7289,8.7289,8.7289,8.7349,8.7434,8.7375,8.7249,8.6704,8.6778,8.7057,8.6494,8.666,8.7038,8.6502,8.5737,8.4858,8.4411,8.4218,8.4538,8.6075,8.656,8.6982,8.8463,8.9147,8.9475,8.9601,8.9566,8.9863,9.1011,9.0685,9.0228,9.0676,9.0612,9.045,9.0143,8.9804,8.948,8.913,8.833,8.7751,8.7379,8.6688,8.623,8.623,8.6291,8.6413,8.6656,8.6749,8.693,8.723,8.7289,8.7289,8.7289,8.7289,8.7289,8.7289,8.7289,8.7289,8.7289,8.6627,8.6262,8.6163,8.6097,8.5475,4.8942,4.7579,4.7148,4.4916,4.5185,4.5738,4.4753,4.4597,4.4624,4.4624,0.0,0.0,0.0,0.0,0.0,0.0,5.2903,5.5637,5.2574,6.0862,6.8209,7.0714,7.5371,7.9396,8.1865,8.3665,8.6964,9.2485,8.8059,8.752,9.2939,9.444,9.4846,9.4226,9.5613,9.6024,9.544,9.5022,9.4032,9.2331,9.164,9.0717,8.9657,8.8337,8.8069,8.8599,8.7695,8.7289,8.7289,8.7289,8.7289,8.7289,8.7289,8.7289,8.719,8.6428,8.6214,8.6231,8.6188,8.6214,8.6247,8.6057,8.5613,8.5048,8.4667,8.4476,8.4635,8.6436,8.7081,8.7533,8.8923,8.941,8.9607,8.9572,8.9604,8.9737,9.0294,9.0327,9.0196,9.0129,9.0388,9.0417,8.9823,8.9636,8.9509,8.9267,8.826,8.748,8.7339,8.6684,8.6291,8.6291,8.6474,8.6656,8.681,8.699,8.717,8.7289,8.7289,8.7289,8.7289,8.7289,8.7289,8.7289,8.7289,8.6879,8.6091,8.5762,8.511,8.4143,8.4753,8.4233,5.306,5.1727,5.0718,4.7748,4.7518,4.7669,4.6253,4.5568,4.5288,4.5288,4.4783,0.0,0.0,0.0,0.0,0.0,0.0,5.1351,4.6879,5.4383,6.1318,6.3803,6.6359,7.0609,7.7512,7.9012,8.2471,8.9601,8.5336,8.5612,9.2953,9.464,9.4987,9.4151,9.573,9.6223,9.544,9.4806,9.3604,9.1799,9.0907,8.9598,8.8053,8.7537,8.7408,8.7552,8.7408,8.7289,8.7289,8.7289,8.7289,8.7289,8.7289,8.7315,8.7275,8.6288,8.6032,8.6072,8.6032,8.5882,8.5681,8.5748,8.5488,8.5111,8.4985,8.4795,8.4924,8.6662,8.7276,8.7761,8.8959,8.9283,8.9283,8.9382,8.9187,8.8993,8.8926,8.9283,8.9479,8.9152,8.9667,8.9956,8.9431,8.9434,8.9434,8.9196,8.8181,8.7426,8.729,8.6891,8.6595,8.6595,8.6777,8.693,8.693,8.717,8.723,8.7017,8.7196,8.723,8.7017,8.7196,8.7289,8.7289,8.6938,8.6217,8.5177,8.492,8.396,8.2335,8.3369,8.3067,5.8143,5.4576,5.1873,5.1045,4.9067,4.7515,4.8301,4.7422,4.6473,4.6473,4.5985,4.5547,4.5624,0.0,0.0,0.0,0.0,0.0,0.0,4.4042,4.5942,5.0202,5.7081,6.4078,7.0676,6.9077,7.2461,8.409,8.074,8.2608,9.2646,9.4611,9.4952,9.3923,9.5653,9.6223,9.544,9.3892,9.272,9.1799,9.0015,8.8993,8.8633,8.7711,8.7611,8.8136,8.7552,8.7289,8.7289,8.7289,8.7289,8.7289,8.7289,8.7434,8.7503,8.5782,8.6173,8.7462,8.603,8.5788,8.616,8.589,8.5363,8.4858,8.5174,8.53,8.5462,8.6239,8.6919,8.7599,8.8344,8.8538,8.8571,8.8797,8.8117,8.7435,8.743,8.7706,8.7943,8.7878,8.8428,8.8922,8.8889,8.9232,8.9262,8.846,8.8047,8.7661,8.7329,8.7289,8.7289,8.7289,8.7289,8.7289,8.7289,8.7289,8.7017,8.6352,8.6957,8.7017,8.6352,8.6957,8.7289,8.7289,8.5965,8.527,8.5177,8.4189,8.3049,8.1637,8.2335,8.2432,6.1452,6.0045,5.8536,5.6103,5.4532,5.3242,5.1905,4.9953,4.826,4.7684,4.6502,4.5594,4.5594,0.0,0.0,0.0,0.0,0.0,0.0,4.2734,4.3578,4.5601,5.3972,6.0657,6.3454,6.8208,7.4379,8.2144,8.3028,8.6077,9.2541,9.4179,9.4741,9.4301,9.5254,9.575,9.5612,9.3935,9.2535,9.146,8.9864,8.864,8.7792,8.7419,8.7375,8.7552,8.7408,8.7289,8.7289,8.7289,8.7289,8.7289,8.7289,8.7494,8.7732,8.7036,8.7437,8.8152,8.7303,8.6792,8.6408,8.5984,8.5488,8.5077,8.4717,8.4911,8.5332,8.5591,8.6207,8.6919,8.7599,8.7794,8.7858,8.8114,8.7467,8.6787,8.7029,8.6925,8.6892,8.7153,8.7906,8.8603,8.8852,8.8782,8.8636,8.8322,8.7798,8.7375,8.7023,8.699,8.699,8.699,8.699,8.705,8.7289,8.7289,8.7196,8.6957,8.7137,8.7196,8.6957,8.6316,8.5774,8.5423,8.4991,8.4146,8.2943,8.3198,8.2407,8.0573,8.0819,8.0899,6.471,6.3927,6.2841,6.0475,5.8877,5.7487,5.5855,5.3302,5.0969,4.9753,4.815,4.6801,4.6266,4.5634,0.0,0.0,0.0,0.0,0.0,4.2273,4.2562,4.3131,4.9716,5.5586,5.9075,6.3495,6.9731,7.831,8.0811,8.4026,8.8823,9.2353,9.4053,9.3638,9.4853,9.5466,9.5381,9.3424,9.2069,9.1293,8.9257,8.7968,8.7289,8.7289,8.7289,8.7289,8.7289,8.7315,8.7434,8.7434,8.7659,8.801,8.7773,8.8084,8.8641,8.7944,8.8103,8.8506,8.7812,8.7282,8.6744,8.5923,8.5488,8.5203,8.4717,8.4911,8.5268,8.5268,8.5818,8.6498,8.7079,8.7113,8.7112,8.7295,8.6551,8.5745,8.5596,8.5547,8.551,8.5556,8.6563,8.7447,8.7699,8.7843,8.8018,8.8283,8.772,8.723,8.699,8.699,8.699,8.699,8.6717,8.6717,8.6897,8.6957,8.6957,8.6957,8.6957,8.687,8.6788,8.5903,8.5009,8.4077,8.4027,8.346,8.2286,8.1938,8.1051,7.9756,8.0011,8.0197]}]]